<?xml version='1.0' encoding='UTF-8'?><gpx version="1.1" creator="JPX - https://github.com/jenetics/jpx" xmlns="http://www.topografix.com/GPX/1/1"><trk><trkseg><trkpt lat="43.1663013" lon="12.2978827"><ele>277.0</ele><time>2026-04-10T10:58:15.295Z</time></trkpt><trkpt lat="43.1662366" lon="12.2978661"><ele>277.0</ele><time>2026-04-10T10:58:26.265Z</time></trkpt><trkpt lat="43.1662152" lon="12.2979497"><ele>277.0</ele><time>2026-04-10T10:58:33.3Z</time></trkpt><trkpt lat="43.1663314" lon="12.2979629"><ele>277.0</ele><time>2026-04-10T10:59:06.301Z</time></trkpt><trkpt lat="43.1662929" lon="12.2978938"><ele>277.0</ele><time>2026-04-10T10:59:32.306Z</time></trkpt><trkpt lat="43.1662285" lon="12.2978588"><ele>277.0</ele><time>2026-04-10T10:59:39.312Z</time></trkpt><trkpt lat="43.166237" lon="12.2977579"><ele>277.0</ele><time>2026-04-10T10:59:43.322Z</time></trkpt><trkpt lat="43.1662807" lon="12.2978305"><ele>277.0</ele><time>2026-04-10T10:59:51.341Z</time></trkpt><trkpt lat="43.1663357" lon="12.2978956"><ele>277.0</ele><time>2026-04-10T11:00:05.345Z</time></trkpt><trkpt lat="43.1663789" lon="12.2978286"><ele>277.0</ele><time>2026-04-10T11:00:39.322Z</time></trkpt><trkpt lat="43.1664867" lon="12.2978086"><ele>277.0</ele><time>2026-04-10T11:01:06.34Z</time></trkpt><trkpt lat="43.1665443" lon="12.2977647"><ele>277.0</ele><time>2026-04-10T11:01:07.338Z</time></trkpt><trkpt lat="43.1666036" lon="12.2977134"><ele>278.4</ele><time>2026-04-10T11:01:08.315Z</time></trkpt><trkpt lat="43.1667088" lon="12.297617"><ele>279.79999999999995</ele><time>2026-04-10T11:01:10.361Z</time></trkpt><trkpt lat="43.166769" lon="12.2975569"><ele>281.2</ele><time>2026-04-10T11:01:11.354Z</time></trkpt><trkpt lat="43.166867" lon="12.2974606"><ele>282.59999999999997</ele><time>2026-04-10T11:01:13.33Z</time></trkpt><trkpt lat="43.1669234" lon="12.2974032"><ele>284.0</ele><time>2026-04-10T11:01:14.352Z</time></trkpt><trkpt lat="43.1669896" lon="12.2973414"><ele>284.0</ele><time>2026-04-10T11:01:15.34Z</time></trkpt><trkpt lat="43.1670502" lon="12.2972814"><ele>284.0</ele><time>2026-04-10T11:01:16.343Z</time></trkpt><trkpt lat="43.1671467" lon="12.2971758"><ele>284.0</ele><time>2026-04-10T11:01:18.395Z</time></trkpt><trkpt lat="43.1672105" lon="12.2970772"><ele>284.0</ele><time>2026-04-10T11:01:20.334Z</time></trkpt><trkpt lat="43.1672494" lon="12.2969911"><ele>284.0</ele><time>2026-04-10T11:01:22.339Z</time></trkpt><trkpt lat="43.167184" lon="12.2968461"><ele>281.8</ele><time>2026-04-10T11:01:24.339Z</time></trkpt><trkpt lat="43.167146" lon="12.2967223"><ele>279.59999999999997</ele><time>2026-04-10T11:01:25.296Z</time></trkpt><trkpt lat="43.1671128" lon="12.2965855"><ele>277.4</ele><time>2026-04-10T11:01:26.279Z</time></trkpt><trkpt lat="43.1670856" lon="12.2964653"><ele>275.2</ele><time>2026-04-10T11:01:27.345Z</time></trkpt><trkpt lat="43.1670622" lon="12.2963501"><ele>273.0</ele><time>2026-04-10T11:01:28.354Z</time></trkpt><trkpt lat="43.1670481" lon="12.2962338"><ele>271.6666666666667</ele><time>2026-04-10T11:01:29.348Z</time></trkpt><trkpt lat="43.1670405" lon="12.2961126"><ele>270.3333333333333</ele><time>2026-04-10T11:01:30.286Z</time></trkpt><trkpt lat="43.167037" lon="12.2959956"><ele>269.0</ele><time>2026-04-10T11:01:31.297Z</time></trkpt><trkpt lat="43.1670288" lon="12.2958774"><ele>267.66666666666663</ele><time>2026-04-10T11:01:32.311Z</time></trkpt><trkpt lat="43.1670193" lon="12.2957603"><ele>266.3333333333333</ele><time>2026-04-10T11:01:33.327Z</time></trkpt><trkpt lat="43.1669992" lon="12.2956472"><ele>265.0</ele><time>2026-04-10T11:01:34.356Z</time></trkpt><trkpt lat="43.1669794" lon="12.295535"><ele>263.66666666666663</ele><time>2026-04-10T11:01:35.316Z</time></trkpt><trkpt lat="43.1669623" lon="12.2954335"><ele>262.3333333333333</ele><time>2026-04-10T11:01:36.334Z</time></trkpt><trkpt lat="43.166932" lon="12.295349"><ele>261.0</ele><time>2026-04-10T11:01:37.34Z</time></trkpt><trkpt lat="43.1668821" lon="12.2952861"><ele>259.6666666666667</ele><time>2026-04-10T11:01:38.321Z</time></trkpt><trkpt lat="43.1667425" lon="12.2952336"><ele>258.33333333333337</ele><time>2026-04-10T11:01:40.313Z</time></trkpt><trkpt lat="43.1666572" lon="12.29521"><ele>257.0</ele><time>2026-04-10T11:01:41.329Z</time></trkpt><trkpt lat="43.166603" lon="12.2951424"><ele>257.0</ele><time>2026-04-10T11:01:42.34Z</time></trkpt><trkpt lat="43.1665678" lon="12.295009"><ele>257.0</ele><time>2026-04-10T11:01:43.363Z</time></trkpt><trkpt lat="43.1665449" lon="12.2948524"><ele>257.0</ele><time>2026-04-10T11:01:44.337Z</time></trkpt><trkpt lat="43.1665299" lon="12.2946585"><ele>257.0</ele><time>2026-04-10T11:01:45.343Z</time></trkpt><trkpt lat="43.1664957" lon="12.2944859"><ele>256.6</ele><time>2026-04-10T11:01:46.318Z</time></trkpt><trkpt lat="43.1664638" lon="12.2943296"><ele>256.2</ele><time>2026-04-10T11:01:47.344Z</time></trkpt><trkpt lat="43.1664371" lon="12.2941957"><ele>255.8</ele><time>2026-04-10T11:01:48.299Z</time></trkpt><trkpt lat="43.1664162" lon="12.2940843"><ele>255.4</ele><time>2026-04-10T11:01:49.36Z</time></trkpt><trkpt lat="43.1663959" lon="12.2939867"><ele>255.0</ele><time>2026-04-10T11:01:50.332Z</time></trkpt><trkpt lat="43.1663556" lon="12.2938681"><ele>255.0</ele><time>2026-04-10T11:01:52.337Z</time></trkpt><trkpt lat="43.1662943" lon="12.2938315"><ele>255.0</ele><time>2026-04-10T11:01:54.333Z</time></trkpt><trkpt lat="43.1661867" lon="12.29385"><ele>255.0</ele><time>2026-04-10T11:01:56.306Z</time></trkpt><trkpt lat="43.1661233" lon="12.2938733"><ele>255.0</ele><time>2026-04-10T11:01:57.319Z</time></trkpt><trkpt lat="43.1660547" lon="12.2938955"><ele>255.0</ele><time>2026-04-10T11:01:58.34Z</time></trkpt><trkpt lat="43.1659821" lon="12.2939128"><ele>255.0</ele><time>2026-04-10T11:01:59.346Z</time></trkpt><trkpt lat="43.1659121" lon="12.2939272"><ele>255.0</ele><time>2026-04-10T11:02:00.363Z</time></trkpt><trkpt lat="43.1658114" lon="12.2939495"><ele>255.0</ele><time>2026-04-10T11:02:02.347Z</time></trkpt><trkpt lat="43.1657494" lon="12.2939682"><ele>255.0</ele><time>2026-04-10T11:02:04.291Z</time></trkpt><trkpt lat="43.1656945" lon="12.2940253"><ele>255.0</ele><time>2026-04-10T11:02:07.317Z</time></trkpt><trkpt lat="43.1656212" lon="12.2942276"><ele>255.0</ele><time>2026-04-10T11:02:09.333Z</time></trkpt><trkpt lat="43.1655754" lon="12.2943617"><ele>255.0</ele><time>2026-04-10T11:02:10.334Z</time></trkpt><trkpt lat="43.1655395" lon="12.2945015"><ele>255.0</ele><time>2026-04-10T11:02:11.337Z</time></trkpt><trkpt lat="43.1654967" lon="12.2946482"><ele>255.0</ele><time>2026-04-10T11:02:12.34Z</time></trkpt><trkpt lat="43.1654534" lon="12.2948146"><ele>255.0</ele><time>2026-04-10T11:02:13.323Z</time></trkpt><trkpt lat="43.1654073" lon="12.294978"><ele>255.0</ele><time>2026-04-10T11:02:14.343Z</time></trkpt><trkpt lat="43.165351" lon="12.295143"><ele>255.0</ele><time>2026-04-10T11:02:15.32Z</time></trkpt><trkpt lat="43.1652713" lon="12.2953009"><ele>255.0</ele><time>2026-04-10T11:02:16.338Z</time></trkpt><trkpt lat="43.1651895" lon="12.2954506"><ele>255.0</ele><time>2026-04-10T11:02:17.338Z</time></trkpt><trkpt lat="43.1651148" lon="12.2955798"><ele>255.25</ele><time>2026-04-10T11:02:18.337Z</time></trkpt><trkpt lat="43.1650465" lon="12.295707"><ele>255.5</ele><time>2026-04-10T11:02:19.286Z</time></trkpt><trkpt lat="43.1649737" lon="12.2958254"><ele>255.75</ele><time>2026-04-10T11:02:20.345Z</time></trkpt><trkpt lat="43.1649076" lon="12.2959562"><ele>256.0</ele><time>2026-04-10T11:02:21.344Z</time></trkpt><trkpt lat="43.1648358" lon="12.2961023"><ele>256.0</ele><time>2026-04-10T11:02:22.331Z</time></trkpt><trkpt lat="43.1647753" lon="12.2962176"><ele>256.0</ele><time>2026-04-10T11:02:23.332Z</time></trkpt><trkpt lat="43.1647189" lon="12.2963437"><ele>256.0</ele><time>2026-04-10T11:02:24.348Z</time></trkpt><trkpt lat="43.1646645" lon="12.296468"><ele>256.0</ele><time>2026-04-10T11:02:25.328Z</time></trkpt><trkpt lat="43.1646021" lon="12.2965966"><ele>256.0</ele><time>2026-04-10T11:02:26.32Z</time></trkpt><trkpt lat="43.164535" lon="12.2967173"><ele>256.66666666666663</ele><time>2026-04-10T11:02:27.329Z</time></trkpt><trkpt lat="43.1644763" lon="12.2968187"><ele>257.3333333333333</ele><time>2026-04-10T11:02:28.303Z</time></trkpt><trkpt lat="43.1644167" lon="12.2968994"><ele>258.0</ele><time>2026-04-10T11:02:29.333Z</time></trkpt><trkpt lat="43.1643626" lon="12.2969784"><ele>258.6666666666667</ele><time>2026-04-10T11:02:30.33Z</time></trkpt><trkpt lat="43.1643211" lon="12.2970518"><ele>259.33333333333337</ele><time>2026-04-10T11:02:31.335Z</time></trkpt><trkpt lat="43.1642611" lon="12.2971639"><ele>260.0</ele><time>2026-04-10T11:02:33.329Z</time></trkpt><trkpt lat="43.1642076" lon="12.2972392"><ele>260.0</ele><time>2026-04-10T11:02:34.321Z</time></trkpt><trkpt lat="43.1641383" lon="12.2973277"><ele>260.0</ele><time>2026-04-10T11:02:35.323Z</time></trkpt><trkpt lat="43.1640562" lon="12.2974236"><ele>260.0</ele><time>2026-04-10T11:02:36.31Z</time></trkpt><trkpt lat="43.1639653" lon="12.2975311"><ele>260.0</ele><time>2026-04-10T11:02:37.319Z</time></trkpt><trkpt lat="43.1638701" lon="12.2976642"><ele>260.0</ele><time>2026-04-10T11:02:38.32Z</time></trkpt><trkpt lat="43.1637709" lon="12.2978198"><ele>260.0</ele><time>2026-04-10T11:02:39.352Z</time></trkpt><trkpt lat="43.1636572" lon="12.2979878"><ele>260.0</ele><time>2026-04-10T11:02:40.314Z</time></trkpt><trkpt lat="43.1635244" lon="12.2981741"><ele>260.33333333333337</ele><time>2026-04-10T11:02:41.293Z</time></trkpt><trkpt lat="43.1633847" lon="12.298374"><ele>260.6666666666667</ele><time>2026-04-10T11:02:42.318Z</time></trkpt><trkpt lat="43.1632434" lon="12.2985524"><ele>261.0</ele><time>2026-04-10T11:02:43.317Z</time></trkpt><trkpt lat="43.1630966" lon="12.2987262"><ele>261.0</ele><time>2026-04-10T11:02:44.345Z</time></trkpt><trkpt lat="43.1629635" lon="12.2988934"><ele>261.0</ele><time>2026-04-10T11:02:45.325Z</time></trkpt><trkpt lat="43.1628295" lon="12.2990487"><ele>261.0</ele><time>2026-04-10T11:02:46.337Z</time></trkpt><trkpt lat="43.162708" lon="12.2991969"><ele>261.3333333333333</ele><time>2026-04-10T11:02:47.334Z</time></trkpt><trkpt lat="43.1625889" lon="12.2993559"><ele>261.66666666666663</ele><time>2026-04-10T11:02:48.316Z</time></trkpt><trkpt lat="43.1624787" lon="12.29952"><ele>262.0</ele><time>2026-04-10T11:02:49.335Z</time></trkpt><trkpt lat="43.1623786" lon="12.2996841"><ele>261.75</ele><time>2026-04-10T11:02:50.343Z</time></trkpt><trkpt lat="43.1622835" lon="12.2998475"><ele>261.5</ele><time>2026-04-10T11:02:51.339Z</time></trkpt><trkpt lat="43.1621928" lon="12.3000094"><ele>261.25</ele><time>2026-04-10T11:02:52.342Z</time></trkpt><trkpt lat="43.1621175" lon="12.3001458"><ele>261.0</ele><time>2026-04-10T11:02:53.321Z</time></trkpt><trkpt lat="43.1620457" lon="12.3002768"><ele>261.0</ele><time>2026-04-10T11:02:54.331Z</time></trkpt><trkpt lat="43.1619871" lon="12.3003945"><ele>261.0</ele><time>2026-04-10T11:02:55.341Z</time></trkpt><trkpt lat="43.1619332" lon="12.30049"><ele>261.0</ele><time>2026-04-10T11:02:56.334Z</time></trkpt><trkpt lat="43.1618825" lon="12.3005562"><ele>261.0</ele><time>2026-04-10T11:02:57.328Z</time></trkpt><trkpt lat="43.1617965" lon="12.3006189"><ele>261.0</ele><time>2026-04-10T11:02:59.343Z</time></trkpt><trkpt lat="43.1617398" lon="12.3006643"><ele>261.0</ele><time>2026-04-10T11:03:03.351Z</time></trkpt><trkpt lat="43.1617018" lon="12.3007884"><ele>262.0</ele><time>2026-04-10T11:03:05.343Z</time></trkpt><trkpt lat="43.1616898" lon="12.3008922"><ele>263.0</ele><time>2026-04-10T11:03:06.33Z</time></trkpt><trkpt lat="43.1616724" lon="12.301042"><ele>264.0</ele><time>2026-04-10T11:03:07.326Z</time></trkpt><trkpt lat="43.1616416" lon="12.3012114"><ele>265.0</ele><time>2026-04-10T11:03:08.342Z</time></trkpt><trkpt lat="43.1616115" lon="12.3014079"><ele>266.0</ele><time>2026-04-10T11:03:09.347Z</time></trkpt><trkpt lat="43.1615901" lon="12.3015898"><ele>267.0</ele><time>2026-04-10T11:03:10.317Z</time></trkpt><trkpt lat="43.1615796" lon="12.3017774"><ele>268.0</ele><time>2026-04-10T11:03:11.35Z</time></trkpt><trkpt lat="43.1615675" lon="12.301973"><ele>269.0</ele><time>2026-04-10T11:03:12.362Z</time></trkpt><trkpt lat="43.1615524" lon="12.302171"><ele>270.0</ele><time>2026-04-10T11:03:13.356Z</time></trkpt><trkpt lat="43.1615437" lon="12.3023678"><ele>271.0</ele><time>2026-04-10T11:03:14.345Z</time></trkpt><trkpt lat="43.1615427" lon="12.3025648"><ele>272.0</ele><time>2026-04-10T11:03:15.358Z</time></trkpt><trkpt lat="43.1615445" lon="12.3027722"><ele>273.0</ele><time>2026-04-10T11:03:16.316Z</time></trkpt><trkpt lat="43.1615566" lon="12.3029821"><ele>272.6666666666667</ele><time>2026-04-10T11:03:17.316Z</time></trkpt><trkpt lat="43.1615727" lon="12.3032042"><ele>272.33333333333337</ele><time>2026-04-10T11:03:18.353Z</time></trkpt><trkpt lat="43.1615921" lon="12.3034359"><ele>272.0</ele><time>2026-04-10T11:03:19.345Z</time></trkpt><trkpt lat="43.1616272" lon="12.3036743"><ele>272.0</ele><time>2026-04-10T11:03:20.361Z</time></trkpt><trkpt lat="43.161658" lon="12.3039087"><ele>272.0</ele><time>2026-04-10T11:03:21.338Z</time></trkpt><trkpt lat="43.1616932" lon="12.3041526"><ele>272.0</ele><time>2026-04-10T11:03:22.343Z</time></trkpt><trkpt lat="43.1617259" lon="12.3043954"><ele>270.6666666666667</ele><time>2026-04-10T11:03:23.351Z</time></trkpt><trkpt lat="43.1617619" lon="12.3046325"><ele>269.3333333333333</ele><time>2026-04-10T11:03:24.34Z</time></trkpt><trkpt lat="43.1617994" lon="12.3048804"><ele>268.0</ele><time>2026-04-10T11:03:25.341Z</time></trkpt><trkpt lat="43.1618314" lon="12.3051258"><ele>265.66666666666663</ele><time>2026-04-10T11:03:26.349Z</time></trkpt><trkpt lat="43.1618644" lon="12.3053705"><ele>263.3333333333333</ele><time>2026-04-10T11:03:27.334Z</time></trkpt><trkpt lat="43.1618948" lon="12.3056119"><ele>261.0</ele><time>2026-04-10T11:03:28.341Z</time></trkpt><trkpt lat="43.1619221" lon="12.3058407"><ele>259.6666666666667</ele><time>2026-04-10T11:03:29.312Z</time></trkpt><trkpt lat="43.1619584" lon="12.3060757"><ele>258.33333333333337</ele><time>2026-04-10T11:03:30.349Z</time></trkpt><trkpt lat="43.1619962" lon="12.3062969"><ele>257.0</ele><time>2026-04-10T11:03:31.365Z</time></trkpt><trkpt lat="43.1620293" lon="12.3064995"><ele>257.0</ele><time>2026-04-10T11:03:32.344Z</time></trkpt><trkpt lat="43.1620669" lon="12.3066971"><ele>257.0</ele><time>2026-04-10T11:03:33.34Z</time></trkpt><trkpt lat="43.16211" lon="12.3069045"><ele>257.0</ele><time>2026-04-10T11:03:34.353Z</time></trkpt><trkpt lat="43.1621454" lon="12.3071133"><ele>256.6666666666667</ele><time>2026-04-10T11:03:35.302Z</time></trkpt><trkpt lat="43.162179" lon="12.3073268"><ele>256.3333333333333</ele><time>2026-04-10T11:03:36.273Z</time></trkpt><trkpt lat="43.1622033" lon="12.3075406"><ele>256.0</ele><time>2026-04-10T11:03:37.274Z</time></trkpt><trkpt lat="43.1622339" lon="12.307767"><ele>256.0</ele><time>2026-04-10T11:03:38.289Z</time></trkpt><trkpt lat="43.162231" lon="12.3079996"><ele>256.0</ele><time>2026-04-10T11:03:39.348Z</time></trkpt><trkpt lat="43.1622046" lon="12.3082253"><ele>256.0</ele><time>2026-04-10T11:03:40.314Z</time></trkpt><trkpt lat="43.1621677" lon="12.3084536"><ele>257.0</ele><time>2026-04-10T11:03:41.365Z</time></trkpt><trkpt lat="43.1621257" lon="12.3086827"><ele>258.0</ele><time>2026-04-10T11:03:42.322Z</time></trkpt><trkpt lat="43.162086" lon="12.3089157"><ele>259.0</ele><time>2026-04-10T11:03:43.339Z</time></trkpt><trkpt lat="43.1620493" lon="12.3091368"><ele>259.0</ele><time>2026-04-10T11:03:44.34Z</time></trkpt><trkpt lat="43.1620141" lon="12.3093365"><ele>259.0</ele><time>2026-04-10T11:03:45.341Z</time></trkpt><trkpt lat="43.1619671" lon="12.3095136"><ele>259.0</ele><time>2026-04-10T11:03:46.295Z</time></trkpt><trkpt lat="43.1619145" lon="12.309667"><ele>259.0</ele><time>2026-04-10T11:03:47.331Z</time></trkpt><trkpt lat="43.1618536" lon="12.3098002"><ele>259.0</ele><time>2026-04-10T11:03:48.332Z</time></trkpt><trkpt lat="43.161755" lon="12.3099273"><ele>259.0</ele><time>2026-04-10T11:03:49.307Z</time></trkpt><trkpt lat="43.1616546" lon="12.310021"><ele>259.0</ele><time>2026-04-10T11:03:50.352Z</time></trkpt><trkpt lat="43.1615436" lon="12.3100911"><ele>259.0</ele><time>2026-04-10T11:03:51.35Z</time></trkpt><trkpt lat="43.1614269" lon="12.3101124"><ele>259.0</ele><time>2026-04-10T11:03:52.352Z</time></trkpt><trkpt lat="43.1613296" lon="12.3101161"><ele>259.0</ele><time>2026-04-10T11:03:53.317Z</time></trkpt><trkpt lat="43.1612429" lon="12.310121"><ele>259.0</ele><time>2026-04-10T11:03:54.353Z</time></trkpt><trkpt lat="43.1611767" lon="12.3101391"><ele>259.0</ele><time>2026-04-10T11:03:55.348Z</time></trkpt><trkpt lat="43.1610677" lon="12.3101999"><ele>259.0</ele><time>2026-04-10T11:03:57.332Z</time></trkpt><trkpt lat="43.1610311" lon="12.3102854"><ele>259.0</ele><time>2026-04-10T11:03:58.331Z</time></trkpt><trkpt lat="43.1610174" lon="12.3104056"><ele>259.0</ele><time>2026-04-10T11:03:59.295Z</time></trkpt><trkpt lat="43.1610192" lon="12.310539"><ele>259.0</ele><time>2026-04-10T11:04:00.332Z</time></trkpt><trkpt lat="43.1610252" lon="12.3107083"><ele>259.0</ele><time>2026-04-10T11:04:01.341Z</time></trkpt><trkpt lat="43.1610292" lon="12.3108771"><ele>259.0</ele><time>2026-04-10T11:04:02.339Z</time></trkpt><trkpt lat="43.1610293" lon="12.3110689"><ele>259.0</ele><time>2026-04-10T11:04:03.326Z</time></trkpt><trkpt lat="43.1610493" lon="12.311267"><ele>259.0</ele><time>2026-04-10T11:04:04.302Z</time></trkpt><trkpt lat="43.1610951" lon="12.3114665"><ele>259.0</ele><time>2026-04-10T11:04:05.326Z</time></trkpt><trkpt lat="43.1611494" lon="12.3116667"><ele>258.66666666666663</ele><time>2026-04-10T11:04:06.33Z</time></trkpt><trkpt lat="43.1612068" lon="12.3118762"><ele>258.3333333333333</ele><time>2026-04-10T11:04:07.339Z</time></trkpt><trkpt lat="43.1612487" lon="12.312103"><ele>258.0</ele><time>2026-04-10T11:04:08.358Z</time></trkpt><trkpt lat="43.1612901" lon="12.3123342"><ele>258.0</ele><time>2026-04-10T11:04:09.353Z</time></trkpt><trkpt lat="43.161343" lon="12.3125712"><ele>258.0</ele><time>2026-04-10T11:04:10.355Z</time></trkpt><trkpt lat="43.1613958" lon="12.3128022"><ele>258.0</ele><time>2026-04-10T11:04:11.36Z</time></trkpt><trkpt lat="43.1614461" lon="12.3130319"><ele>257.6666666666667</ele><time>2026-04-10T11:04:12.352Z</time></trkpt><trkpt lat="43.1614994" lon="12.3132699"><ele>257.33333333333337</ele><time>2026-04-10T11:04:13.313Z</time></trkpt><trkpt lat="43.1615388" lon="12.3135126"><ele>257.0</ele><time>2026-04-10T11:04:14.345Z</time></trkpt><trkpt lat="43.1615634" lon="12.3137443"><ele>257.6666666666667</ele><time>2026-04-10T11:04:15.342Z</time></trkpt><trkpt lat="43.1615641" lon="12.3139735"><ele>258.3333333333333</ele><time>2026-04-10T11:04:16.364Z</time></trkpt><trkpt lat="43.1615455" lon="12.3142129"><ele>259.0</ele><time>2026-04-10T11:04:17.327Z</time></trkpt><trkpt lat="43.1615074" lon="12.3144394"><ele>259.0</ele><time>2026-04-10T11:04:18.353Z</time></trkpt><trkpt lat="43.1614568" lon="12.3146717"><ele>259.0</ele><time>2026-04-10T11:04:19.344Z</time></trkpt><trkpt lat="43.1614082" lon="12.3149113"><ele>259.0</ele><time>2026-04-10T11:04:20.35Z</time></trkpt><trkpt lat="43.1613694" lon="12.3151505"><ele>260.0</ele><time>2026-04-10T11:04:21.362Z</time></trkpt><trkpt lat="43.1613322" lon="12.3153889"><ele>261.0</ele><time>2026-04-10T11:04:22.355Z</time></trkpt><trkpt lat="43.1613019" lon="12.3156243"><ele>262.0</ele><time>2026-04-10T11:04:23.346Z</time></trkpt><trkpt lat="43.1612774" lon="12.3158651"><ele>262.0</ele><time>2026-04-10T11:04:24.343Z</time></trkpt><trkpt lat="43.1612432" lon="12.3161021"><ele>262.0</ele><time>2026-04-10T11:04:25.314Z</time></trkpt><trkpt lat="43.1612104" lon="12.3163147"><ele>262.0</ele><time>2026-04-10T11:04:26.35Z</time></trkpt><trkpt lat="43.1611785" lon="12.3165198"><ele>262.0</ele><time>2026-04-10T11:04:27.328Z</time></trkpt><trkpt lat="43.1611246" lon="12.3167116"><ele>262.0</ele><time>2026-04-10T11:04:28.345Z</time></trkpt><trkpt lat="43.1610363" lon="12.3169024"><ele>262.0</ele><time>2026-04-10T11:04:29.337Z</time></trkpt><trkpt lat="43.160927" lon="12.317076"><ele>262.0</ele><time>2026-04-10T11:04:30.34Z</time></trkpt><trkpt lat="43.1608114" lon="12.3172363"><ele>262.0</ele><time>2026-04-10T11:04:31.334Z</time></trkpt><trkpt lat="43.1607109" lon="12.3174043"><ele>262.0</ele><time>2026-04-10T11:04:32.372Z</time></trkpt><trkpt lat="43.1606221" lon="12.3175809"><ele>261.66666666666663</ele><time>2026-04-10T11:04:33.345Z</time></trkpt><trkpt lat="43.1605448" lon="12.3177592"><ele>261.3333333333333</ele><time>2026-04-10T11:04:34.341Z</time></trkpt><trkpt lat="43.1604739" lon="12.3179475"><ele>261.0</ele><time>2026-04-10T11:04:35.356Z</time></trkpt><trkpt lat="43.1604106" lon="12.318145"><ele>262.3333333333333</ele><time>2026-04-10T11:04:36.342Z</time></trkpt><trkpt lat="43.1603285" lon="12.3183363"><ele>263.66666666666663</ele><time>2026-04-10T11:04:37.328Z</time></trkpt><trkpt lat="43.160221" lon="12.3185171"><ele>265.0</ele><time>2026-04-10T11:04:38.344Z</time></trkpt><trkpt lat="43.1600939" lon="12.3186524"><ele>265.0</ele><time>2026-04-10T11:04:39.367Z</time></trkpt><trkpt lat="43.1599599" lon="12.3187787"><ele>265.0</ele><time>2026-04-10T11:04:40.377Z</time></trkpt><trkpt lat="43.1598269" lon="12.3189012"><ele>265.0</ele><time>2026-04-10T11:04:41.336Z</time></trkpt><trkpt lat="43.1596936" lon="12.319033"><ele>267.66666666666663</ele><time>2026-04-10T11:04:42.286Z</time></trkpt><trkpt lat="43.1595779" lon="12.3191696"><ele>270.3333333333333</ele><time>2026-04-10T11:04:43.331Z</time></trkpt><trkpt lat="43.159481" lon="12.3193278"><ele>273.0</ele><time>2026-04-10T11:04:44.337Z</time></trkpt><trkpt lat="43.1593947" lon="12.3195132"><ele>273.0</ele><time>2026-04-10T11:04:45.344Z</time></trkpt><trkpt lat="43.1593179" lon="12.3197018"><ele>273.0</ele><time>2026-04-10T11:04:46.32Z</time></trkpt><trkpt lat="43.1592659" lon="12.3199199"><ele>273.0</ele><time>2026-04-10T11:04:47.335Z</time></trkpt><trkpt lat="43.1592502" lon="12.3201447"><ele>272.6666666666667</ele><time>2026-04-10T11:04:48.346Z</time></trkpt><trkpt lat="43.1592483" lon="12.3203664"><ele>272.33333333333337</ele><time>2026-04-10T11:04:49.352Z</time></trkpt><trkpt lat="43.1592625" lon="12.3205903"><ele>272.0</ele><time>2026-04-10T11:04:50.337Z</time></trkpt><trkpt lat="43.1592911" lon="12.3208001"><ele>272.0</ele><time>2026-04-10T11:04:51.318Z</time></trkpt><trkpt lat="43.1593291" lon="12.3210121"><ele>272.0</ele><time>2026-04-10T11:04:52.335Z</time></trkpt><trkpt lat="43.1593638" lon="12.3212263"><ele>272.0</ele><time>2026-04-10T11:04:53.33Z</time></trkpt><trkpt lat="43.1593939" lon="12.3214344"><ele>275.33333333333337</ele><time>2026-04-10T11:04:54.331Z</time></trkpt><trkpt lat="43.1594229" lon="12.3216421"><ele>278.6666666666667</ele><time>2026-04-10T11:04:55.342Z</time></trkpt><trkpt lat="43.159444" lon="12.3218447"><ele>282.0</ele><time>2026-04-10T11:04:56.36Z</time></trkpt><trkpt lat="43.1594596" lon="12.3220518"><ele>284.6666666666667</ele><time>2026-04-10T11:04:57.322Z</time></trkpt><trkpt lat="43.1594748" lon="12.3222621"><ele>287.33333333333337</ele><time>2026-04-10T11:04:58.318Z</time></trkpt><trkpt lat="43.1594934" lon="12.322477"><ele>290.0</ele><time>2026-04-10T11:04:59.334Z</time></trkpt><trkpt lat="43.1595035" lon="12.3226888"><ele>290.0</ele><time>2026-04-10T11:05:00.324Z</time></trkpt><trkpt lat="43.1595232" lon="12.3228981"><ele>290.0</ele><time>2026-04-10T11:05:01.312Z</time></trkpt><trkpt lat="43.1595312" lon="12.3231075"><ele>290.0</ele><time>2026-04-10T11:05:02.321Z</time></trkpt><trkpt lat="43.1595256" lon="12.3233155"><ele>288.0</ele><time>2026-04-10T11:05:03.328Z</time></trkpt><trkpt lat="43.1595247" lon="12.3235271"><ele>286.0</ele><time>2026-04-10T11:05:04.334Z</time></trkpt><trkpt lat="43.1595171" lon="12.3237298"><ele>284.0</ele><time>2026-04-10T11:05:05.294Z</time></trkpt><trkpt lat="43.159513" lon="12.3239239"><ele>282.0</ele><time>2026-04-10T11:05:06.35Z</time></trkpt><trkpt lat="43.159506" lon="12.3241115"><ele>280.4</ele><time>2026-04-10T11:05:07.356Z</time></trkpt><trkpt lat="43.1595018" lon="12.3242838"><ele>278.79999999999995</ele><time>2026-04-10T11:05:08.288Z</time></trkpt><trkpt lat="43.1595003" lon="12.3244357"><ele>277.2</ele><time>2026-04-10T11:05:09.346Z</time></trkpt><trkpt lat="43.1594896" lon="12.3245856"><ele>275.59999999999997</ele><time>2026-04-10T11:05:10.328Z</time></trkpt><trkpt lat="43.15948" lon="12.3247156"><ele>274.0</ele><time>2026-04-10T11:05:11.342Z</time></trkpt><trkpt lat="43.1594573" lon="12.3248086"><ele>273.8333333333333</ele><time>2026-04-10T11:05:12.355Z</time></trkpt><trkpt lat="43.1594296" lon="12.324899"><ele>273.66666666666663</ele><time>2026-04-10T11:05:13.353Z</time></trkpt><trkpt lat="43.1593792" lon="12.3249572"><ele>273.5</ele><time>2026-04-10T11:05:14.341Z</time></trkpt><trkpt lat="43.159311" lon="12.3250058"><ele>273.3333333333333</ele><time>2026-04-10T11:05:15.319Z</time></trkpt><trkpt lat="43.1592435" lon="12.3249848"><ele>273.1666666666667</ele><time>2026-04-10T11:05:16.336Z</time></trkpt><trkpt lat="43.159182" lon="12.324904"><ele>273.0</ele><time>2026-04-10T11:05:17.345Z</time></trkpt><trkpt lat="43.1591273" lon="12.3247905"><ele>273.25</ele><time>2026-04-10T11:05:18.341Z</time></trkpt><trkpt lat="43.1590599" lon="12.3246527"><ele>273.5</ele><time>2026-04-10T11:05:19.293Z</time></trkpt><trkpt lat="43.1589854" lon="12.324511"><ele>273.75</ele><time>2026-04-10T11:05:20.334Z</time></trkpt><trkpt lat="43.1589072" lon="12.3243639"><ele>274.0</ele><time>2026-04-10T11:05:21.367Z</time></trkpt><trkpt lat="43.1588347" lon="12.3242131"><ele>276.0</ele><time>2026-04-10T11:05:22.343Z</time></trkpt><trkpt lat="43.1587888" lon="12.3240772"><ele>278.0</ele><time>2026-04-10T11:05:23.354Z</time></trkpt><trkpt lat="43.1587773" lon="12.3239348"><ele>280.0</ele><time>2026-04-10T11:05:24.348Z</time></trkpt><trkpt lat="43.1588117" lon="12.323779"><ele>282.0</ele><time>2026-04-10T11:05:25.351Z</time></trkpt><trkpt lat="43.1588863" lon="12.3236465"><ele>282.0</ele><time>2026-04-10T11:05:26.336Z</time></trkpt><trkpt lat="43.1589772" lon="12.3235153"><ele>282.0</ele><time>2026-04-10T11:05:27.351Z</time></trkpt><trkpt lat="43.1590518" lon="12.3233825"><ele>282.0</ele><time>2026-04-10T11:05:28.35Z</time></trkpt><trkpt lat="43.159119" lon="12.3232466"><ele>282.0</ele><time>2026-04-10T11:05:29.338Z</time></trkpt><trkpt lat="43.1591818" lon="12.3230896"><ele>284.0</ele><time>2026-04-10T11:05:30.374Z</time></trkpt><trkpt lat="43.1592081" lon="12.3229361"><ele>286.0</ele><time>2026-04-10T11:05:31.365Z</time></trkpt><trkpt lat="43.1592127" lon="12.3227868"><ele>288.0</ele><time>2026-04-10T11:05:32.334Z</time></trkpt><trkpt lat="43.1591984" lon="12.3226249"><ele>290.0</ele><time>2026-04-10T11:05:33.345Z</time></trkpt><trkpt lat="43.1591813" lon="12.3224378"><ele>290.0</ele><time>2026-04-10T11:05:34.298Z</time></trkpt><trkpt lat="43.1591556" lon="12.3222566"><ele>290.0</ele><time>2026-04-10T11:05:35.336Z</time></trkpt><trkpt lat="43.1591216" lon="12.3220806"><ele>290.0</ele><time>2026-04-10T11:05:36.345Z</time></trkpt><trkpt lat="43.1590661" lon="12.321908"><ele>290.0</ele><time>2026-04-10T11:05:37.336Z</time></trkpt><trkpt lat="43.1589696" lon="12.3217293"><ele>295.33333333333337</ele><time>2026-04-10T11:05:38.335Z</time></trkpt><trkpt lat="43.1588469" lon="12.3215474"><ele>300.6666666666667</ele><time>2026-04-10T11:05:39.345Z</time></trkpt><trkpt lat="43.1587366" lon="12.321384"><ele>306.0</ele><time>2026-04-10T11:05:40.345Z</time></trkpt><trkpt lat="43.1586407" lon="12.3212404"><ele>306.0</ele><time>2026-04-10T11:05:41.297Z</time></trkpt><trkpt lat="43.158542" lon="12.3211312"><ele>306.0</ele><time>2026-04-10T11:05:42.294Z</time></trkpt><trkpt lat="43.1584339" lon="12.3210471"><ele>306.0</ele><time>2026-04-10T11:05:43.315Z</time></trkpt><trkpt lat="43.1583156" lon="12.3210007"><ele>306.0</ele><time>2026-04-10T11:05:44.337Z</time></trkpt><trkpt lat="43.1582029" lon="12.3209636"><ele>310.5</ele><time>2026-04-10T11:05:45.344Z</time></trkpt><trkpt lat="43.1580905" lon="12.3209366"><ele>315.0</ele><time>2026-04-10T11:05:46.296Z</time></trkpt><trkpt lat="43.1579733" lon="12.3209179"><ele>319.5</ele><time>2026-04-10T11:05:47.336Z</time></trkpt><trkpt lat="43.1578465" lon="12.320897"><ele>324.0</ele><time>2026-04-10T11:05:48.306Z</time></trkpt><trkpt lat="43.1577397" lon="12.3208548"><ele>324.0</ele><time>2026-04-10T11:05:49.33Z</time></trkpt><trkpt lat="43.1576401" lon="12.3208156"><ele>324.0</ele><time>2026-04-10T11:05:50.329Z</time></trkpt><trkpt lat="43.1575764" lon="12.3207641"><ele>324.0</ele><time>2026-04-10T11:05:51.32Z</time></trkpt><trkpt lat="43.1575426" lon="12.3205921"><ele>324.0</ele><time>2026-04-10T11:05:53.326Z</time></trkpt><trkpt lat="43.1575906" lon="12.3204705"><ele>324.0</ele><time>2026-04-10T11:05:54.324Z</time></trkpt><trkpt lat="43.1576667" lon="12.3203539"><ele>324.3333333333333</ele><time>2026-04-10T11:05:55.314Z</time></trkpt><trkpt lat="43.1577179" lon="12.3202657"><ele>324.6666666666667</ele><time>2026-04-10T11:05:56.313Z</time></trkpt><trkpt lat="43.1577661" lon="12.3201887"><ele>325.0</ele><time>2026-04-10T11:05:57.326Z</time></trkpt><trkpt lat="43.1577577" lon="12.3200926"><ele>325.33333333333337</ele><time>2026-04-10T11:05:58.34Z</time></trkpt><trkpt lat="43.1577262" lon="12.3199955"><ele>325.6666666666667</ele><time>2026-04-10T11:05:59.341Z</time></trkpt><trkpt lat="43.1576958" lon="12.3198891"><ele>326.0</ele><time>2026-04-10T11:06:00.334Z</time></trkpt><trkpt lat="43.1575927" lon="12.319839"><ele>326.0</ele><time>2026-04-10T11:06:02.337Z</time></trkpt><trkpt lat="43.1575295" lon="12.319873"><ele>326.0</ele><time>2026-04-10T11:06:03.353Z</time></trkpt><trkpt lat="43.1574773" lon="12.3199531"><ele>326.0</ele><time>2026-04-10T11:06:04.342Z</time></trkpt><trkpt lat="43.1574193" lon="12.3200384"><ele>326.0</ele><time>2026-04-10T11:06:05.356Z</time></trkpt><trkpt lat="43.1573577" lon="12.3201377"><ele>326.0</ele><time>2026-04-10T11:06:06.348Z</time></trkpt><trkpt lat="43.1572915" lon="12.3202244"><ele>326.0</ele><time>2026-04-10T11:06:07.358Z</time></trkpt><trkpt lat="43.1572308" lon="12.3202929"><ele>331.20000000000005</ele><time>2026-04-10T11:06:08.339Z</time></trkpt><trkpt lat="43.1571748" lon="12.320348"><ele>336.40000000000003</ele><time>2026-04-10T11:06:09.377Z</time></trkpt><trkpt lat="43.1570848" lon="12.3203695"><ele>341.6</ele><time>2026-04-10T11:06:11.325Z</time></trkpt><trkpt lat="43.1570339" lon="12.3202425"><ele>346.8</ele><time>2026-04-10T11:06:13.358Z</time></trkpt><trkpt lat="43.1570402" lon="12.320104"><ele>352.0</ele><time>2026-04-10T11:06:14.346Z</time></trkpt><trkpt lat="43.1570225" lon="12.31994"><ele>352.0</ele><time>2026-04-10T11:06:15.358Z</time></trkpt><trkpt lat="43.1569949" lon="12.3197807"><ele>352.0</ele><time>2026-04-10T11:06:16.364Z</time></trkpt><trkpt lat="43.1569706" lon="12.319618"><ele>352.0</ele><time>2026-04-10T11:06:17.35Z</time></trkpt><trkpt lat="43.156959" lon="12.3194563"><ele>352.0</ele><time>2026-04-10T11:06:18.36Z</time></trkpt><trkpt lat="43.1569481" lon="12.3192744"><ele>353.0</ele><time>2026-04-10T11:06:19.37Z</time></trkpt><trkpt lat="43.1569337" lon="12.3190858"><ele>354.0</ele><time>2026-04-10T11:06:20.359Z</time></trkpt><trkpt lat="43.1569064" lon="12.3189088"><ele>355.0</ele><time>2026-04-10T11:06:21.358Z</time></trkpt><trkpt lat="43.1568809" lon="12.3187366"><ele>356.0</ele><time>2026-04-10T11:06:22.342Z</time></trkpt><trkpt lat="43.1568617" lon="12.3185666"><ele>356.0</ele><time>2026-04-10T11:06:23.309Z</time></trkpt><trkpt lat="43.1568443" lon="12.3184223"><ele>356.0</ele><time>2026-04-10T11:06:24.35Z</time></trkpt><trkpt lat="43.1567998" lon="12.318284"><ele>356.0</ele><time>2026-04-10T11:06:25.352Z</time></trkpt><trkpt lat="43.1567375" lon="12.3181667"><ele>356.0</ele><time>2026-04-10T11:06:26.349Z</time></trkpt><trkpt lat="43.1566626" lon="12.3180641"><ele>356.0</ele><time>2026-04-10T11:06:27.357Z</time></trkpt><trkpt lat="43.1565948" lon="12.3179839"><ele>359.1666666666667</ele><time>2026-04-10T11:06:28.334Z</time></trkpt><trkpt lat="43.1565347" lon="12.3179052"><ele>362.33333333333337</ele><time>2026-04-10T11:06:29.353Z</time></trkpt><trkpt lat="43.1564676" lon="12.3178329"><ele>365.5</ele><time>2026-04-10T11:06:30.342Z</time></trkpt><trkpt lat="43.1564094" lon="12.3177606"><ele>368.6666666666667</ele><time>2026-04-10T11:06:31.295Z</time></trkpt><trkpt lat="43.1563599" lon="12.3176771"><ele>371.8333333333333</ele><time>2026-04-10T11:06:32.364Z</time></trkpt><trkpt lat="43.1563084" lon="12.3175956"><ele>375.0</ele><time>2026-04-10T11:06:33.358Z</time></trkpt><trkpt lat="43.1562626" lon="12.3175056"><ele>375.0</ele><time>2026-04-10T11:06:34.296Z</time></trkpt><trkpt lat="43.1562199" lon="12.3174267"><ele>375.0</ele><time>2026-04-10T11:06:35.366Z</time></trkpt><trkpt lat="43.1561804" lon="12.3173468"><ele>375.0</ele><time>2026-04-10T11:06:36.369Z</time></trkpt><trkpt lat="43.156138" lon="12.3172736"><ele>375.0</ele><time>2026-04-10T11:06:37.364Z</time></trkpt><trkpt lat="43.1560473" lon="12.3171553"><ele>375.0</ele><time>2026-04-10T11:06:39.35Z</time></trkpt><trkpt lat="43.1559661" lon="12.3170361"><ele>374.2</ele><time>2026-04-10T11:06:41.303Z</time></trkpt><trkpt lat="43.1558876" lon="12.3169252"><ele>373.4</ele><time>2026-04-10T11:06:43.363Z</time></trkpt><trkpt lat="43.1558005" lon="12.3168272"><ele>372.6</ele><time>2026-04-10T11:06:45.38Z</time></trkpt><trkpt lat="43.1557521" lon="12.3167706"><ele>371.8</ele><time>2026-04-10T11:06:46.361Z</time></trkpt><trkpt lat="43.1556548" lon="12.3166735"><ele>371.0</ele><time>2026-04-10T11:06:48.357Z</time></trkpt><trkpt lat="43.1555466" lon="12.31663"><ele>371.0</ele><time>2026-04-10T11:06:50.359Z</time></trkpt><trkpt lat="43.1554566" lon="12.3166307"><ele>371.0</ele><time>2026-04-10T11:06:52.354Z</time></trkpt><trkpt lat="43.1553734" lon="12.3166457"><ele>371.0</ele><time>2026-04-10T11:06:54.342Z</time></trkpt><trkpt lat="43.1552847" lon="12.3166555"><ele>371.0</ele><time>2026-04-10T11:06:56.348Z</time></trkpt><trkpt lat="43.1551899" lon="12.3166669"><ele>371.0</ele><time>2026-04-10T11:06:58.346Z</time></trkpt><trkpt lat="43.1550833" lon="12.316685"><ele>371.0</ele><time>2026-04-10T11:07:00.339Z</time></trkpt><trkpt lat="43.1550215" lon="12.3167019"><ele>371.0</ele><time>2026-04-10T11:07:01.359Z</time></trkpt><trkpt lat="43.1548969" lon="12.3167561"><ele>371.0</ele><time>2026-04-10T11:07:03.378Z</time></trkpt><trkpt lat="43.1548281" lon="12.3168006"><ele>371.0</ele><time>2026-04-10T11:07:04.356Z</time></trkpt><trkpt lat="43.154749" lon="12.3168558"><ele>371.0</ele><time>2026-04-10T11:07:05.351Z</time></trkpt><trkpt lat="43.1546725" lon="12.3169057"><ele>371.0</ele><time>2026-04-10T11:07:06.347Z</time></trkpt><trkpt lat="43.1546083" lon="12.3169502"><ele>373.1666666666667</ele><time>2026-04-10T11:07:07.353Z</time></trkpt><trkpt lat="43.1545417" lon="12.3169921"><ele>375.33333333333337</ele><time>2026-04-10T11:07:08.367Z</time></trkpt><trkpt lat="43.1544424" lon="12.3170556"><ele>377.5</ele><time>2026-04-10T11:07:10.361Z</time></trkpt><trkpt lat="43.1543805" lon="12.3170029"><ele>379.6666666666667</ele><time>2026-04-10T11:07:12.354Z</time></trkpt><trkpt lat="43.1543693" lon="12.3169041"><ele>381.8333333333333</ele><time>2026-04-10T11:07:13.355Z</time></trkpt><trkpt lat="43.1543724" lon="12.3168076"><ele>384.0</ele><time>2026-04-10T11:07:14.339Z</time></trkpt><trkpt lat="43.1543766" lon="12.3166987"><ele>384.0</ele><time>2026-04-10T11:07:15.347Z</time></trkpt><trkpt lat="43.1543814" lon="12.3165811"><ele>384.0</ele><time>2026-04-10T11:07:16.342Z</time></trkpt><trkpt lat="43.1543729" lon="12.3164756"><ele>384.0</ele><time>2026-04-10T11:07:17.369Z</time></trkpt><trkpt lat="43.1543495" lon="12.3163748"><ele>384.0</ele><time>2026-04-10T11:07:18.36Z</time></trkpt><trkpt lat="43.1543186" lon="12.3162772"><ele>384.0</ele><time>2026-04-10T11:07:19.343Z</time></trkpt><trkpt lat="43.1542722" lon="12.3161938"><ele>384.0</ele><time>2026-04-10T11:07:20.362Z</time></trkpt><trkpt lat="43.1542324" lon="12.3160974"><ele>382.5</ele><time>2026-04-10T11:07:21.363Z</time></trkpt><trkpt lat="43.1541849" lon="12.3159992"><ele>381.0</ele><time>2026-04-10T11:07:22.33Z</time></trkpt><trkpt lat="43.1541266" lon="12.3159141"><ele>379.5</ele><time>2026-04-10T11:07:23.371Z</time></trkpt><trkpt lat="43.1540618" lon="12.3158319"><ele>378.0</ele><time>2026-04-10T11:07:24.359Z</time></trkpt><trkpt lat="43.1539983" lon="12.3157659"><ele>376.5</ele><time>2026-04-10T11:07:25.334Z</time></trkpt><trkpt lat="43.1539279" lon="12.3156995"><ele>375.0</ele><time>2026-04-10T11:07:26.352Z</time></trkpt><trkpt lat="43.1538466" lon="12.3156447"><ele>376.6666666666667</ele><time>2026-04-10T11:07:27.329Z</time></trkpt><trkpt lat="43.1537724" lon="12.3155924"><ele>378.33333333333337</ele><time>2026-04-10T11:07:28.293Z</time></trkpt><trkpt lat="43.1536927" lon="12.3155435"><ele>380.0</ele><time>2026-04-10T11:07:29.351Z</time></trkpt><trkpt lat="43.1536119" lon="12.315512"><ele>381.6666666666667</ele><time>2026-04-10T11:07:30.345Z</time></trkpt><trkpt lat="43.1535276" lon="12.3154798"><ele>383.33333333333337</ele><time>2026-04-10T11:07:31.345Z</time></trkpt><trkpt lat="43.1534406" lon="12.3154505"><ele>385.0</ele><time>2026-04-10T11:07:32.288Z</time></trkpt><trkpt lat="43.1533474" lon="12.3154237"><ele>385.0</ele><time>2026-04-10T11:07:33.356Z</time></trkpt><trkpt lat="43.1532549" lon="12.3153969"><ele>385.0</ele><time>2026-04-10T11:07:34.349Z</time></trkpt><trkpt lat="43.1531587" lon="12.3153788"><ele>385.0</ele><time>2026-04-10T11:07:35.36Z</time></trkpt><trkpt lat="43.1530651" lon="12.3153432"><ele>385.0</ele><time>2026-04-10T11:07:36.353Z</time></trkpt><trkpt lat="43.152979" lon="12.3152939"><ele>385.0</ele><time>2026-04-10T11:07:37.349Z</time></trkpt><trkpt lat="43.1529209" lon="12.3151998"><ele>388.00000000000006</ele><time>2026-04-10T11:07:38.337Z</time></trkpt><trkpt lat="43.152872" lon="12.3150967"><ele>391.0</ele><time>2026-04-10T11:07:39.337Z</time></trkpt><trkpt lat="43.1528282" lon="12.3149981"><ele>394.0</ele><time>2026-04-10T11:07:40.335Z</time></trkpt><trkpt lat="43.1527842" lon="12.3149011"><ele>397.0</ele><time>2026-04-10T11:07:41.331Z</time></trkpt><trkpt lat="43.1527399" lon="12.3148046"><ele>400.00000000000006</ele><time>2026-04-10T11:07:42.323Z</time></trkpt><trkpt lat="43.152694" lon="12.3147175"><ele>403.0</ele><time>2026-04-10T11:07:43.34Z</time></trkpt><trkpt lat="43.1526447" lon="12.3146223"><ele>403.00000000000006</ele><time>2026-04-10T11:07:44.321Z</time></trkpt><trkpt lat="43.1525786" lon="12.314545"><ele>403.0</ele><time>2026-04-10T11:07:45.345Z</time></trkpt><trkpt lat="43.1525063" lon="12.314473"><ele>403.0</ele><time>2026-04-10T11:07:46.353Z</time></trkpt><trkpt lat="43.1524283" lon="12.3144063"><ele>403.0</ele><time>2026-04-10T11:07:47.363Z</time></trkpt><trkpt lat="43.1523557" lon="12.3143469"><ele>403.00000000000006</ele><time>2026-04-10T11:07:48.341Z</time></trkpt><trkpt lat="43.152284" lon="12.3142808"><ele>403.0</ele><time>2026-04-10T11:07:49.347Z</time></trkpt><trkpt lat="43.1522109" lon="12.3142088"><ele>403.79999999999995</ele><time>2026-04-10T11:07:50.285Z</time></trkpt><trkpt lat="43.1521547" lon="12.3141226"><ele>404.6</ele><time>2026-04-10T11:07:51.339Z</time></trkpt><trkpt lat="43.1520932" lon="12.3140275"><ele>405.4</ele><time>2026-04-10T11:07:52.353Z</time></trkpt><trkpt lat="43.1520301" lon="12.3139367"><ele>406.20000000000005</ele><time>2026-04-10T11:07:53.348Z</time></trkpt><trkpt lat="43.1519652" lon="12.3138434"><ele>407.0</ele><time>2026-04-10T11:07:54.346Z</time></trkpt><trkpt lat="43.1518911" lon="12.3137505"><ele>407.0</ele><time>2026-04-10T11:07:55.351Z</time></trkpt><trkpt lat="43.1518185" lon="12.3136708"><ele>407.0</ele><time>2026-04-10T11:07:56.347Z</time></trkpt><trkpt lat="43.1517335" lon="12.3135941"><ele>407.0</ele><time>2026-04-10T11:07:57.351Z</time></trkpt><trkpt lat="43.1516423" lon="12.3135167"><ele>407.0</ele><time>2026-04-10T11:07:58.346Z</time></trkpt><trkpt lat="43.1515492" lon="12.3134406"><ele>407.0</ele><time>2026-04-10T11:07:59.363Z</time></trkpt><trkpt lat="43.1514606" lon="12.3133631"><ele>408.99999999999994</ele><time>2026-04-10T11:08:00.341Z</time></trkpt><trkpt lat="43.1513726" lon="12.3132759"><ele>411.0</ele><time>2026-04-10T11:08:01.351Z</time></trkpt><trkpt lat="43.151299" lon="12.3132"><ele>413.0</ele><time>2026-04-10T11:08:02.339Z</time></trkpt><trkpt lat="43.1512408" lon="12.3131277"><ele>415.0</ele><time>2026-04-10T11:08:03.356Z</time></trkpt><trkpt lat="43.1511838" lon="12.3130507"><ele>416.99999999999994</ele><time>2026-04-10T11:08:04.343Z</time></trkpt><trkpt lat="43.1511335" lon="12.3129796"><ele>419.0</ele><time>2026-04-10T11:08:05.361Z</time></trkpt><trkpt lat="43.1510668" lon="12.3128907"><ele>419.0</ele><time>2026-04-10T11:08:06.33Z</time></trkpt><trkpt lat="43.150988" lon="12.3127978"><ele>419.0</ele><time>2026-04-10T11:08:07.341Z</time></trkpt><trkpt lat="43.1509193" lon="12.3127091"><ele>419.0</ele><time>2026-04-10T11:08:08.319Z</time></trkpt><trkpt lat="43.1508505" lon="12.3126104"><ele>419.0</ele><time>2026-04-10T11:08:09.355Z</time></trkpt><trkpt lat="43.1507851" lon="12.3125108"><ele>419.0</ele><time>2026-04-10T11:08:10.351Z</time></trkpt><trkpt lat="43.1507159" lon="12.312433"><ele>421.99999999999994</ele><time>2026-04-10T11:08:11.318Z</time></trkpt><trkpt lat="43.1506504" lon="12.3123393"><ele>425.0</ele><time>2026-04-10T11:08:12.346Z</time></trkpt><trkpt lat="43.1505857" lon="12.3122467"><ele>428.0</ele><time>2026-04-10T11:08:13.349Z</time></trkpt><trkpt lat="43.1505316" lon="12.3121536"><ele>431.0</ele><time>2026-04-10T11:08:14.348Z</time></trkpt><trkpt lat="43.1504751" lon="12.3120689"><ele>433.99999999999994</ele><time>2026-04-10T11:08:15.336Z</time></trkpt><trkpt lat="43.1504182" lon="12.3119855"><ele>437.0</ele><time>2026-04-10T11:08:16.351Z</time></trkpt><trkpt lat="43.1503677" lon="12.3118974"><ele>436.99999999999994</ele><time>2026-04-10T11:08:17.338Z</time></trkpt><trkpt lat="43.1503195" lon="12.3118158"><ele>437.0</ele><time>2026-04-10T11:08:18.351Z</time></trkpt><trkpt lat="43.150277" lon="12.3117173"><ele>437.0</ele><time>2026-04-10T11:08:19.362Z</time></trkpt><trkpt lat="43.1502591" lon="12.3116024"><ele>437.0</ele><time>2026-04-10T11:08:20.349Z</time></trkpt><trkpt lat="43.1502461" lon="12.3114781"><ele>436.99999999999994</ele><time>2026-04-10T11:08:21.346Z</time></trkpt><trkpt lat="43.1502384" lon="12.311387"><ele>437.0</ele><time>2026-04-10T11:08:22.344Z</time></trkpt><trkpt lat="43.1501748" lon="12.3112743"><ele>436.40000000000003</ele><time>2026-04-10T11:08:24.375Z</time></trkpt><trkpt lat="43.1500783" lon="12.3112274"><ele>435.80000000000007</ele><time>2026-04-10T11:08:26.354Z</time></trkpt><trkpt lat="43.1499781" lon="12.3112122"><ele>435.2</ele><time>2026-04-10T11:08:28.325Z</time></trkpt><trkpt lat="43.1499122" lon="12.3112235"><ele>434.6</ele><time>2026-04-10T11:08:29.356Z</time></trkpt><trkpt lat="43.1498486" lon="12.3112416"><ele>434.0</ele><time>2026-04-10T11:08:30.332Z</time></trkpt><trkpt lat="43.1497093" lon="12.3112857"><ele>434.0</ele><time>2026-04-10T11:08:32.347Z</time></trkpt><trkpt lat="43.1496174" lon="12.31131"><ele>434.0</ele><time>2026-04-10T11:08:33.344Z</time></trkpt><trkpt lat="43.1495159" lon="12.3113277"><ele>434.0</ele><time>2026-04-10T11:08:34.339Z</time></trkpt><trkpt lat="43.1494195" lon="12.3113476"><ele>434.0</ele><time>2026-04-10T11:08:35.361Z</time></trkpt><trkpt lat="43.1493248" lon="12.311382"><ele>434.0</ele><time>2026-04-10T11:08:36.338Z</time></trkpt><trkpt lat="43.1492426" lon="12.311409"><ele>435.66666666666663</ele><time>2026-04-10T11:08:37.333Z</time></trkpt><trkpt lat="43.1491665" lon="12.31144"><ele>437.3333333333333</ele><time>2026-04-10T11:08:38.339Z</time></trkpt><trkpt lat="43.1490823" lon="12.3114757"><ele>439.0</ele><time>2026-04-10T11:08:39.34Z</time></trkpt><trkpt lat="43.1490012" lon="12.3115083"><ele>440.66666666666663</ele><time>2026-04-10T11:08:40.367Z</time></trkpt><trkpt lat="43.1489277" lon="12.311539"><ele>442.3333333333333</ele><time>2026-04-10T11:08:41.303Z</time></trkpt><trkpt lat="43.1488566" lon="12.3115703"><ele>444.0</ele><time>2026-04-10T11:08:42.3Z</time></trkpt><trkpt lat="43.1487891" lon="12.3116073"><ele>444.0</ele><time>2026-04-10T11:08:43.322Z</time></trkpt><trkpt lat="43.1487137" lon="12.311647"><ele>444.0</ele><time>2026-04-10T11:08:44.348Z</time></trkpt><trkpt lat="43.148634" lon="12.311678"><ele>444.0</ele><time>2026-04-10T11:08:45.299Z</time></trkpt><trkpt lat="43.1485634" lon="12.3117134"><ele>444.0</ele><time>2026-04-10T11:08:46.352Z</time></trkpt><trkpt lat="43.1485005" lon="12.3117444"><ele>444.0</ele><time>2026-04-10T11:08:47.339Z</time></trkpt><trkpt lat="43.1484267" lon="12.3118214"><ele>444.0</ele><time>2026-04-10T11:08:49.343Z</time></trkpt><trkpt lat="43.1484663" lon="12.3119353"><ele>444.0</ele><time>2026-04-10T11:08:52.323Z</time></trkpt><trkpt lat="43.1485525" lon="12.3120326"><ele>444.0</ele><time>2026-04-10T11:08:54.343Z</time></trkpt><trkpt lat="43.1486064" lon="12.3121054"><ele>444.0</ele><time>2026-04-10T11:08:56.341Z</time></trkpt><trkpt lat="43.1485792" lon="12.3121964"><ele>444.0</ele><time>2026-04-10T11:08:58.32Z</time></trkpt><trkpt lat="43.1485339" lon="12.3123104"><ele>444.0</ele><time>2026-04-10T11:09:01.288Z</time></trkpt><trkpt lat="43.1485064" lon="12.3124204"><ele>444.0</ele><time>2026-04-10T11:09:03.335Z</time></trkpt><trkpt lat="43.1484628" lon="12.3125467"><ele>446.79999999999995</ele><time>2026-04-10T11:09:05.29Z</time></trkpt><trkpt lat="43.1484369" lon="12.3127051"><ele>449.59999999999997</ele><time>2026-04-10T11:09:07.343Z</time></trkpt><trkpt lat="43.148397" lon="12.3128386"><ele>452.4</ele><time>2026-04-10T11:09:09.35Z</time></trkpt><trkpt lat="43.1483346" lon="12.3129203"><ele>455.2</ele><time>2026-04-10T11:09:11.342Z</time></trkpt><trkpt lat="43.1482779" lon="12.3129956"><ele>458.0</ele><time>2026-04-10T11:09:13.323Z</time></trkpt><trkpt lat="43.1482341" lon="12.3130619"><ele>456.99999999999994</ele><time>2026-04-10T11:09:15.348Z</time></trkpt><trkpt lat="43.148187" lon="12.3131257"><ele>456.0</ele><time>2026-04-10T11:09:17.353Z</time></trkpt><trkpt lat="43.1481349" lon="12.3131866"><ele>455.0</ele><time>2026-04-10T11:09:19.365Z</time></trkpt><trkpt lat="43.1481087" lon="12.3132904"><ele>454.0</ele><time>2026-04-10T11:09:21.349Z</time></trkpt><trkpt lat="43.1481086" lon="12.3134666"><ele>452.99999999999994</ele><time>2026-04-10T11:09:23.333Z</time></trkpt><trkpt lat="43.1481238" lon="12.3135761"><ele>452.0</ele><time>2026-04-10T11:09:24.359Z</time></trkpt><trkpt lat="43.148136" lon="12.3136985"><ele>452.0</ele><time>2026-04-10T11:09:25.377Z</time></trkpt><trkpt lat="43.1481438" lon="12.3138312"><ele>452.00000000000006</ele><time>2026-04-10T11:09:26.344Z</time></trkpt><trkpt lat="43.14815" lon="12.3139639"><ele>452.00000000000006</ele><time>2026-04-10T11:09:27.359Z</time></trkpt><trkpt lat="43.1481564" lon="12.3140985"><ele>452.0</ele><time>2026-04-10T11:09:28.329Z</time></trkpt><trkpt lat="43.1481628" lon="12.3142224"><ele>452.0</ele><time>2026-04-10T11:09:29.349Z</time></trkpt><trkpt lat="43.1481679" lon="12.3143486"><ele>453.16666666666663</ele><time>2026-04-10T11:09:30.348Z</time></trkpt><trkpt lat="43.148176" lon="12.3144771"><ele>454.3333333333333</ele><time>2026-04-10T11:09:31.325Z</time></trkpt><trkpt lat="43.1481847" lon="12.314597"><ele>455.5</ele><time>2026-04-10T11:09:32.342Z</time></trkpt><trkpt lat="43.1481708" lon="12.3147058"><ele>456.66666666666663</ele><time>2026-04-10T11:09:33.352Z</time></trkpt><trkpt lat="43.1481555" lon="12.3147927"><ele>457.8333333333333</ele><time>2026-04-10T11:09:34.354Z</time></trkpt><trkpt lat="43.1481016" lon="12.3149167"><ele>459.0</ele><time>2026-04-10T11:09:36.362Z</time></trkpt><trkpt lat="43.1480377" lon="12.3149803"><ele>460.8333333333333</ele><time>2026-04-10T11:09:38.325Z</time></trkpt><trkpt lat="43.1479381" lon="12.3149754"><ele>462.66666666666663</ele><time>2026-04-10T11:09:40.315Z</time></trkpt><trkpt lat="43.1478602" lon="12.3149723"><ele>464.5</ele><time>2026-04-10T11:09:42.304Z</time></trkpt><trkpt lat="43.147782" lon="12.314954"><ele>466.3333333333333</ele><time>2026-04-10T11:09:45.341Z</time></trkpt><trkpt lat="43.1477162" lon="12.3149581"><ele>468.16666666666663</ele><time>2026-04-10T11:09:47.331Z</time></trkpt><trkpt lat="43.1476649" lon="12.3150105"><ele>470.0</ele><time>2026-04-10T11:09:49.341Z</time></trkpt><trkpt lat="43.1475577" lon="12.3150904"><ele>469.99999999999994</ele><time>2026-04-10T11:09:51.345Z</time></trkpt><trkpt lat="43.1474485" lon="12.3151754"><ele>470.0</ele><time>2026-04-10T11:09:53.35Z</time></trkpt><trkpt lat="43.1473974" lon="12.31523"><ele>470.0</ele><time>2026-04-10T11:09:54.337Z</time></trkpt><trkpt lat="43.1473363" lon="12.3152842"><ele>470.0</ele><time>2026-04-10T11:09:55.345Z</time></trkpt><trkpt lat="43.1472696" lon="12.3153328"><ele>469.99999999999994</ele><time>2026-04-10T11:09:56.354Z</time></trkpt><trkpt lat="43.1471993" lon="12.315397"><ele>470.0</ele><time>2026-04-10T11:09:57.361Z</time></trkpt><trkpt lat="43.1471307" lon="12.3154484"><ele>470.49999999999994</ele><time>2026-04-10T11:09:58.321Z</time></trkpt><trkpt lat="43.1470659" lon="12.3155009"><ele>471.0</ele><time>2026-04-10T11:09:59.349Z</time></trkpt><trkpt lat="43.1470089" lon="12.3155483"><ele>471.5</ele><time>2026-04-10T11:10:00.335Z</time></trkpt><trkpt lat="43.1469492" lon="12.3155832"><ele>472.0</ele><time>2026-04-10T11:10:01.358Z</time></trkpt><trkpt lat="43.146833" lon="12.3156231"><ele>472.49999999999994</ele><time>2026-04-10T11:10:03.345Z</time></trkpt><trkpt lat="43.1467336" lon="12.3157131"><ele>473.0</ele><time>2026-04-10T11:10:05.345Z</time></trkpt><trkpt lat="43.1466361" lon="12.3158144"><ele>475.3333333333333</ele><time>2026-04-10T11:10:07.304Z</time></trkpt><trkpt lat="43.1465197" lon="12.3159014"><ele>477.66666666666663</ele><time>2026-04-10T11:10:09.359Z</time></trkpt><trkpt lat="43.146458" lon="12.3159415"><ele>480.0</ele><time>2026-04-10T11:10:10.35Z</time></trkpt><trkpt lat="43.1463945" lon="12.3159779"><ele>482.33333333333337</ele><time>2026-04-10T11:10:11.359Z</time></trkpt><trkpt lat="43.1463256" lon="12.3160279"><ele>484.6666666666667</ele><time>2026-04-10T11:10:12.353Z</time></trkpt><trkpt lat="43.1462605" lon="12.3160729"><ele>487.0</ele><time>2026-04-10T11:10:13.352Z</time></trkpt><trkpt lat="43.1462032" lon="12.3161166"><ele>487.00000000000006</ele><time>2026-04-10T11:10:14.374Z</time></trkpt><trkpt lat="43.1461354" lon="12.3161603"><ele>487.0</ele><time>2026-04-10T11:10:15.343Z</time></trkpt><trkpt lat="43.1460709" lon="12.3161955"><ele>487.0</ele><time>2026-04-10T11:10:16.305Z</time></trkpt><trkpt lat="43.146005" lon="12.3162246"><ele>487.0</ele><time>2026-04-10T11:10:17.311Z</time></trkpt><trkpt lat="43.1459445" lon="12.316256"><ele>487.00000000000006</ele><time>2026-04-10T11:10:18.341Z</time></trkpt><trkpt lat="43.1458588" lon="12.3163531"><ele>487.0</ele><time>2026-04-10T11:10:20.344Z</time></trkpt><trkpt lat="43.1457867" lon="12.3164558"><ele>487.40000000000003</ele><time>2026-04-10T11:10:22.344Z</time></trkpt><trkpt lat="43.1457271" lon="12.3165419"><ele>487.80000000000007</ele><time>2026-04-10T11:10:24.362Z</time></trkpt><trkpt lat="43.1456574" lon="12.3166076"><ele>488.2</ele><time>2026-04-10T11:10:26.361Z</time></trkpt><trkpt lat="43.1455878" lon="12.3166797"><ele>488.6</ele><time>2026-04-10T11:10:27.335Z</time></trkpt><trkpt lat="43.1454758" lon="12.3167604"><ele>489.0</ele><time>2026-04-10T11:10:29.354Z</time></trkpt><trkpt lat="43.1453989" lon="12.3167918"><ele>489.0</ele><time>2026-04-10T11:10:30.355Z</time></trkpt><trkpt lat="43.1453082" lon="12.3168186"><ele>489.0</ele><time>2026-04-10T11:10:31.367Z</time></trkpt><trkpt lat="43.1452295" lon="12.3168398"><ele>489.0</ele><time>2026-04-10T11:10:32.351Z</time></trkpt><trkpt lat="43.1451477" lon="12.3168565"><ele>489.0</ele><time>2026-04-10T11:10:33.313Z</time></trkpt><trkpt lat="43.1450737" lon="12.3168601"><ele>489.0</ele><time>2026-04-10T11:10:34.346Z</time></trkpt><trkpt lat="43.1450004" lon="12.316861"><ele>489.0</ele><time>2026-04-10T11:10:35.347Z</time></trkpt><trkpt lat="43.1449325" lon="12.3168713"><ele>489.79999999999995</ele><time>2026-04-10T11:10:36.356Z</time></trkpt><trkpt lat="43.1448697" lon="12.3168851"><ele>490.59999999999997</ele><time>2026-04-10T11:10:37.363Z</time></trkpt><trkpt lat="43.1447846" lon="12.3169566"><ele>491.4</ele><time>2026-04-10T11:10:39.358Z</time></trkpt><trkpt lat="43.1447309" lon="12.3170684"><ele>492.2</ele><time>2026-04-10T11:10:41.311Z</time></trkpt><trkpt lat="43.1446157" lon="12.3170969"><ele>493.0</ele><time>2026-04-10T11:10:43.325Z</time></trkpt><trkpt lat="43.1445221" lon="12.3171197"><ele>493.0</ele><time>2026-04-10T11:10:45.367Z</time></trkpt><trkpt lat="43.1444064" lon="12.3171722"><ele>492.99999999999994</ele><time>2026-04-10T11:10:47.349Z</time></trkpt><trkpt lat="43.144285" lon="12.317224"><ele>492.99999999999994</ele><time>2026-04-10T11:10:49.349Z</time></trkpt><trkpt lat="43.1442041" lon="12.3172348"><ele>493.0</ele><time>2026-04-10T11:10:50.34Z</time></trkpt><trkpt lat="43.1441186" lon="12.3172292"><ele>493.0</ele><time>2026-04-10T11:10:51.345Z</time></trkpt><trkpt lat="43.14403" lon="12.3172247"><ele>493.50000000000006</ele><time>2026-04-10T11:10:52.346Z</time></trkpt><trkpt lat="43.1439419" lon="12.3172252"><ele>494.0</ele><time>2026-04-10T11:10:53.35Z</time></trkpt><trkpt lat="43.143849" lon="12.3172412"><ele>494.5</ele><time>2026-04-10T11:10:54.349Z</time></trkpt><trkpt lat="43.1437637" lon="12.3172416"><ele>495.0</ele><time>2026-04-10T11:10:55.351Z</time></trkpt><trkpt lat="43.1436802" lon="12.3172453"><ele>495.50000000000006</ele><time>2026-04-10T11:10:56.354Z</time></trkpt><trkpt lat="43.1436117" lon="12.3172711"><ele>496.0</ele><time>2026-04-10T11:10:57.336Z</time></trkpt><trkpt lat="43.1435485" lon="12.3173259"><ele>496.00000000000006</ele><time>2026-04-10T11:10:58.347Z</time></trkpt><trkpt lat="43.143483" lon="12.3173992"><ele>496.0</ele><time>2026-04-10T11:10:59.362Z</time></trkpt><trkpt lat="43.1434262" lon="12.3174825"><ele>496.0</ele><time>2026-04-10T11:11:00.35Z</time></trkpt><trkpt lat="43.1433747" lon="12.3175813"><ele>496.0</ele><time>2026-04-10T11:11:01.344Z</time></trkpt><trkpt lat="43.1433127" lon="12.3176678"><ele>496.00000000000006</ele><time>2026-04-10T11:11:02.355Z</time></trkpt><trkpt lat="43.1432433" lon="12.3177665"><ele>496.0</ele><time>2026-04-10T11:11:03.329Z</time></trkpt><trkpt lat="43.1431753" lon="12.3178718"><ele>498.1666666666667</ele><time>2026-04-10T11:11:04.332Z</time></trkpt><trkpt lat="43.1431152" lon="12.3179975"><ele>500.33333333333337</ele><time>2026-04-10T11:11:05.337Z</time></trkpt><trkpt lat="43.1430648" lon="12.3181149"><ele>502.5</ele><time>2026-04-10T11:11:06.334Z</time></trkpt><trkpt lat="43.1430107" lon="12.3182187"><ele>504.66666666666663</ele><time>2026-04-10T11:11:07.352Z</time></trkpt><trkpt lat="43.1429723" lon="12.318293"><ele>506.8333333333333</ele><time>2026-04-10T11:11:08.346Z</time></trkpt><trkpt lat="43.1429516" lon="12.3183765"><ele>509.0</ele><time>2026-04-10T11:11:09.347Z</time></trkpt><trkpt lat="43.1429373" lon="12.3184753"><ele>509.0</ele><time>2026-04-10T11:11:10.353Z</time></trkpt><trkpt lat="43.1429464" lon="12.3186103"><ele>509.0</ele><time>2026-04-10T11:11:11.348Z</time></trkpt><trkpt lat="43.1429704" lon="12.3187673"><ele>509.0</ele><time>2026-04-10T11:11:12.341Z</time></trkpt><trkpt lat="43.1430041" lon="12.3189382"><ele>509.0</ele><time>2026-04-10T11:11:13.338Z</time></trkpt><trkpt lat="43.1430327" lon="12.319091"><ele>509.4</ele><time>2026-04-10T11:11:14.354Z</time></trkpt><trkpt lat="43.143057" lon="12.3192435"><ele>509.79999999999995</ele><time>2026-04-10T11:11:15.346Z</time></trkpt><trkpt lat="43.1430647" lon="12.3193982"><ele>510.20000000000005</ele><time>2026-04-10T11:11:16.3Z</time></trkpt><trkpt lat="43.1430583" lon="12.3195526"><ele>510.6</ele><time>2026-04-10T11:11:17.347Z</time></trkpt><trkpt lat="43.1430583" lon="12.3196902"><ele>511.0</ele><time>2026-04-10T11:11:18.33Z</time></trkpt><trkpt lat="43.1430598" lon="12.3198363"><ele>511.6</ele><time>2026-04-10T11:11:19.322Z</time></trkpt><trkpt lat="43.1430399" lon="12.3199751"><ele>512.2</ele><time>2026-04-10T11:11:20.33Z</time></trkpt><trkpt lat="43.1430162" lon="12.32011"><ele>512.8</ele><time>2026-04-10T11:11:21.332Z</time></trkpt><trkpt lat="43.1429983" lon="12.3202305"><ele>513.4</ele><time>2026-04-10T11:11:22.329Z</time></trkpt><trkpt lat="43.1429881" lon="12.3203694"><ele>514.0</ele><time>2026-04-10T11:11:23.336Z</time></trkpt><trkpt lat="43.14298" lon="12.3204954"><ele>514.2</ele><time>2026-04-10T11:11:24.335Z</time></trkpt><trkpt lat="43.1429859" lon="12.3206072"><ele>514.4</ele><time>2026-04-10T11:11:25.349Z</time></trkpt><trkpt lat="43.1430103" lon="12.3207272"><ele>514.6</ele><time>2026-04-10T11:11:26.335Z</time></trkpt><trkpt lat="43.1430485" lon="12.3208594"><ele>514.8</ele><time>2026-04-10T11:11:27.356Z</time></trkpt><trkpt lat="43.1430964" lon="12.320989"><ele>515.0</ele><time>2026-04-10T11:11:28.356Z</time></trkpt><trkpt lat="43.1431383" lon="12.3211253"><ele>515.0</ele><time>2026-04-10T11:11:29.338Z</time></trkpt><trkpt lat="43.1431817" lon="12.3212491"><ele>515.0</ele><time>2026-04-10T11:11:30.317Z</time></trkpt><trkpt lat="43.1432222" lon="12.3213721"><ele>515.0</ele><time>2026-04-10T11:11:31.331Z</time></trkpt><trkpt lat="43.1432604" lon="12.3214892"><ele>515.0</ele><time>2026-04-10T11:11:32.345Z</time></trkpt><trkpt lat="43.1433005" lon="12.3216075"><ele>515.0</ele><time>2026-04-10T11:11:33.349Z</time></trkpt><trkpt lat="43.143344" lon="12.3217345"><ele>511.49999999999994</ele><time>2026-04-10T11:11:34.339Z</time></trkpt><trkpt lat="43.1433751" lon="12.3218562"><ele>508.0</ele><time>2026-04-10T11:11:35.333Z</time></trkpt><trkpt lat="43.1434035" lon="12.3219727"><ele>504.5</ele><time>2026-04-10T11:11:36.343Z</time></trkpt><trkpt lat="43.1434267" lon="12.3220923"><ele>501.0</ele><time>2026-04-10T11:11:37.367Z</time></trkpt><trkpt lat="43.1434405" lon="12.3222025"><ele>497.49999999999994</ele><time>2026-04-10T11:11:38.321Z</time></trkpt><trkpt lat="43.1434486" lon="12.3223077"><ele>494.0</ele><time>2026-04-10T11:11:39.354Z</time></trkpt><trkpt lat="43.1434572" lon="12.3224402"><ele>494.0</ele><time>2026-04-10T11:11:40.34Z</time></trkpt><trkpt lat="43.1434564" lon="12.3225591"><ele>494.0</ele><time>2026-04-10T11:11:41.343Z</time></trkpt><trkpt lat="43.1434676" lon="12.3226783"><ele>494.0</ele><time>2026-04-10T11:11:42.315Z</time></trkpt><trkpt lat="43.1434773" lon="12.3227979"><ele>494.0</ele><time>2026-04-10T11:11:43.331Z</time></trkpt><trkpt lat="43.1434907" lon="12.3229176"><ele>494.0</ele><time>2026-04-10T11:11:44.35Z</time></trkpt><trkpt lat="43.1435116" lon="12.3230511"><ele>494.0</ele><time>2026-04-10T11:11:45.358Z</time></trkpt><trkpt lat="43.1435355" lon="12.3231828"><ele>494.0</ele><time>2026-04-10T11:11:46.369Z</time></trkpt><trkpt lat="43.1435605" lon="12.3233092"><ele>494.0</ele><time>2026-04-10T11:11:47.35Z</time></trkpt><trkpt lat="43.1435924" lon="12.3234446"><ele>494.0</ele><time>2026-04-10T11:11:48.373Z</time></trkpt><trkpt lat="43.1436297" lon="12.3235775"><ele>494.0</ele><time>2026-04-10T11:11:49.348Z</time></trkpt><trkpt lat="43.1436817" lon="12.3237038"><ele>494.0</ele><time>2026-04-10T11:11:50.365Z</time></trkpt><trkpt lat="43.1437338" lon="12.3238265"><ele>494.0</ele><time>2026-04-10T11:11:51.363Z</time></trkpt><trkpt lat="43.143785" lon="12.3239442"><ele>494.0</ele><time>2026-04-10T11:11:52.352Z</time></trkpt><trkpt lat="43.1438209" lon="12.3240703"><ele>494.0</ele><time>2026-04-10T11:11:53.37Z</time></trkpt><trkpt lat="43.1438446" lon="12.3241879"><ele>494.0</ele><time>2026-04-10T11:11:54.358Z</time></trkpt><trkpt lat="43.1438628" lon="12.3242963"><ele>494.16666666666663</ele><time>2026-04-10T11:11:55.337Z</time></trkpt><trkpt lat="43.1438895" lon="12.3244011"><ele>494.3333333333333</ele><time>2026-04-10T11:11:56.342Z</time></trkpt><trkpt lat="43.1439255" lon="12.3245026"><ele>494.5</ele><time>2026-04-10T11:11:57.363Z</time></trkpt><trkpt lat="43.1439659" lon="12.3246084"><ele>494.66666666666663</ele><time>2026-04-10T11:11:58.353Z</time></trkpt><trkpt lat="43.1440155" lon="12.3247031"><ele>494.8333333333333</ele><time>2026-04-10T11:11:59.354Z</time></trkpt><trkpt lat="43.1440654" lon="12.3247845"><ele>495.0</ele><time>2026-04-10T11:12:00.355Z</time></trkpt><trkpt lat="43.1441183" lon="12.3248452"><ele>490.5</ele><time>2026-04-10T11:12:01.348Z</time></trkpt><trkpt lat="43.1442108" lon="12.3249574"><ele>486.0</ele><time>2026-04-10T11:12:03.296Z</time></trkpt><trkpt lat="43.1442938" lon="12.3250484"><ele>481.5</ele><time>2026-04-10T11:12:05.351Z</time></trkpt><trkpt lat="43.144359" lon="12.3251559"><ele>477.0</ele><time>2026-04-10T11:12:07.351Z</time></trkpt><trkpt lat="43.1443941" lon="12.3253266"><ele>477.0</ele><time>2026-04-10T11:12:09.359Z</time></trkpt><trkpt lat="43.144421" lon="12.3254264"><ele>477.0</ele><time>2026-04-10T11:12:10.349Z</time></trkpt><trkpt lat="43.1444531" lon="12.3255221"><ele>477.0</ele><time>2026-04-10T11:12:11.349Z</time></trkpt><trkpt lat="43.1444895" lon="12.3256107"><ele>477.0</ele><time>2026-04-10T11:12:12.35Z</time></trkpt><trkpt lat="43.1445216" lon="12.3256975"><ele>477.0</ele><time>2026-04-10T11:12:13.344Z</time></trkpt><trkpt lat="43.1445578" lon="12.325775"><ele>477.0</ele><time>2026-04-10T11:12:14.343Z</time></trkpt><trkpt lat="43.1446075" lon="12.325907"><ele>478.0</ele><time>2026-04-10T11:12:16.348Z</time></trkpt><trkpt lat="43.1446707" lon="12.3259688"><ele>479.00000000000006</ele><time>2026-04-10T11:12:19.348Z</time></trkpt><trkpt lat="43.1447822" lon="12.3258911"><ele>480.00000000000006</ele><time>2026-04-10T11:12:21.346Z</time></trkpt><trkpt lat="43.1448756" lon="12.3258409"><ele>481.0</ele><time>2026-04-10T11:12:22.296Z</time></trkpt><trkpt lat="43.1449773" lon="12.3257919"><ele>482.0</ele><time>2026-04-10T11:12:23.327Z</time></trkpt><trkpt lat="43.1450855" lon="12.3257407"><ele>478.40000000000003</ele><time>2026-04-10T11:12:24.36Z</time></trkpt><trkpt lat="43.1451904" lon="12.3256871"><ele>474.80000000000007</ele><time>2026-04-10T11:12:25.347Z</time></trkpt><trkpt lat="43.1452785" lon="12.3256639"><ele>471.2</ele><time>2026-04-10T11:12:26.337Z</time></trkpt><trkpt lat="43.1453502" lon="12.3256879"><ele>467.6</ele><time>2026-04-10T11:12:27.285Z</time></trkpt><trkpt lat="43.1454344" lon="12.3257974"><ele>464.0</ele><time>2026-04-10T11:12:29.338Z</time></trkpt><trkpt lat="43.1454766" lon="12.3258649"><ele>463.99999999999994</ele><time>2026-04-10T11:12:30.354Z</time></trkpt><trkpt lat="43.1455649" lon="12.3259962"><ele>464.0</ele><time>2026-04-10T11:12:32.353Z</time></trkpt><trkpt lat="43.1456305" lon="12.3260705"><ele>464.0</ele><time>2026-04-10T11:12:33.372Z</time></trkpt><trkpt lat="43.1456854" lon="12.3261366"><ele>464.0</ele><time>2026-04-10T11:12:34.354Z</time></trkpt><trkpt lat="43.1457353" lon="12.3261994"><ele>463.99999999999994</ele><time>2026-04-10T11:12:35.345Z</time></trkpt><trkpt lat="43.1457847" lon="12.3262561"><ele>464.0</ele><time>2026-04-10T11:12:36.34Z</time></trkpt><trkpt lat="43.1458872" lon="12.3263137"><ele>464.16666666666663</ele><time>2026-04-10T11:12:38.351Z</time></trkpt><trkpt lat="43.1459572" lon="12.3263232"><ele>464.3333333333333</ele><time>2026-04-10T11:12:39.333Z</time></trkpt><trkpt lat="43.1460381" lon="12.3263217"><ele>464.5</ele><time>2026-04-10T11:12:40.346Z</time></trkpt><trkpt lat="43.1461124" lon="12.3263201"><ele>464.66666666666663</ele><time>2026-04-10T11:12:41.334Z</time></trkpt><trkpt lat="43.1461781" lon="12.3263598"><ele>464.8333333333333</ele><time>2026-04-10T11:12:42.347Z</time></trkpt><trkpt lat="43.146238" lon="12.3264012"><ele>465.0</ele><time>2026-04-10T11:12:43.324Z</time></trkpt><trkpt lat="43.1463492" lon="12.3264029"><ele>466.2</ele><time>2026-04-10T11:12:45.362Z</time></trkpt><trkpt lat="43.1464428" lon="12.3263888"><ele>467.4</ele><time>2026-04-10T11:12:47.356Z</time></trkpt><trkpt lat="43.1465244" lon="12.3263414"><ele>468.6</ele><time>2026-04-10T11:12:50.36Z</time></trkpt><trkpt lat="43.1465868" lon="12.3262976"><ele>469.8</ele><time>2026-04-10T11:12:52.338Z</time></trkpt><trkpt lat="43.1466662" lon="12.3262644"><ele>471.0</ele><time>2026-04-10T11:12:54.349Z</time></trkpt><trkpt lat="43.1467834" lon="12.3261811"><ele>472.0</ele><time>2026-04-10T11:12:56.366Z</time></trkpt><trkpt lat="43.146841" lon="12.3261369"><ele>473.0</ele><time>2026-04-10T11:12:57.37Z</time></trkpt><trkpt lat="43.1469513" lon="12.3260694"><ele>474.0</ele><time>2026-04-10T11:12:59.357Z</time></trkpt><trkpt lat="43.1470436" lon="12.3259948"><ele>475.0</ele><time>2026-04-10T11:13:01.358Z</time></trkpt><trkpt lat="43.1471326" lon="12.3259349"><ele>476.0</ele><time>2026-04-10T11:13:03.354Z</time></trkpt><trkpt lat="43.14721" lon="12.3259617"><ele>475.99999999999994</ele><time>2026-04-10T11:13:05.371Z</time></trkpt><trkpt lat="43.147263" lon="12.3260351"><ele>476.0</ele><time>2026-04-10T11:13:06.331Z</time></trkpt><trkpt lat="43.1473168" lon="12.3260986"><ele>476.0</ele><time>2026-04-10T11:13:07.337Z</time></trkpt><trkpt lat="43.1473706" lon="12.3261517"><ele>476.0</ele><time>2026-04-10T11:13:08.37Z</time></trkpt><trkpt lat="43.1474635" lon="12.3262321"><ele>475.99999999999994</ele><time>2026-04-10T11:13:10.362Z</time></trkpt><trkpt lat="43.1475106" lon="12.326291"><ele>476.0</ele><time>2026-04-10T11:13:11.352Z</time></trkpt><trkpt lat="43.1475565" lon="12.3263717"><ele>473.99999999999994</ele><time>2026-04-10T11:13:12.378Z</time></trkpt><trkpt lat="43.1475946" lon="12.3264722"><ele>472.0</ele><time>2026-04-10T11:13:13.357Z</time></trkpt><trkpt lat="43.1476323" lon="12.3265866"><ele>470.0</ele><time>2026-04-10T11:13:14.322Z</time></trkpt><trkpt lat="43.1476637" lon="12.3267036"><ele>468.0</ele><time>2026-04-10T11:13:15.354Z</time></trkpt><trkpt lat="43.1476964" lon="12.3268198"><ele>465.99999999999994</ele><time>2026-04-10T11:13:16.353Z</time></trkpt><trkpt lat="43.1477327" lon="12.326928"><ele>464.0</ele><time>2026-04-10T11:13:17.313Z</time></trkpt><trkpt lat="43.1477755" lon="12.3270121"><ele>464.0</ele><time>2026-04-10T11:13:18.345Z</time></trkpt><trkpt lat="43.1478868" lon="12.3270769"><ele>464.0</ele><time>2026-04-10T11:13:20.326Z</time></trkpt><trkpt lat="43.1479531" lon="12.3271032"><ele>464.0</ele><time>2026-04-10T11:13:21.329Z</time></trkpt><trkpt lat="43.1480513" lon="12.3271621"><ele>464.0</ele><time>2026-04-10T11:13:23.351Z</time></trkpt><trkpt lat="43.1481173" lon="12.327275"><ele>464.0</ele><time>2026-04-10T11:13:25.343Z</time></trkpt><trkpt lat="43.1481755" lon="12.3274138"><ele>463.6</ele><time>2026-04-10T11:13:27.358Z</time></trkpt><trkpt lat="43.1482258" lon="12.3275356"><ele>463.2</ele><time>2026-04-10T11:13:29.36Z</time></trkpt><trkpt lat="43.1483052" lon="12.3276839"><ele>462.80000000000007</ele><time>2026-04-10T11:13:31.349Z</time></trkpt><trkpt lat="43.148357" lon="12.327758"><ele>462.40000000000003</ele><time>2026-04-10T11:13:32.338Z</time></trkpt><trkpt lat="43.1484083" lon="12.3278311"><ele>462.0</ele><time>2026-04-10T11:13:33.348Z</time></trkpt><trkpt lat="43.1484555" lon="12.3279111"><ele>462.0</ele><time>2026-04-10T11:13:34.303Z</time></trkpt><trkpt lat="43.1485114" lon="12.3279907"><ele>462.0</ele><time>2026-04-10T11:13:35.35Z</time></trkpt><trkpt lat="43.1485704" lon="12.3280526"><ele>462.0</ele><time>2026-04-10T11:13:36.362Z</time></trkpt><trkpt lat="43.148627" lon="12.328107"><ele>462.0</ele><time>2026-04-10T11:13:37.344Z</time></trkpt><trkpt lat="43.1486822" lon="12.3281725"><ele>462.0</ele><time>2026-04-10T11:13:38.356Z</time></trkpt><trkpt lat="43.1487485" lon="12.3282579"><ele>462.0</ele><time>2026-04-10T11:13:39.361Z</time></trkpt><trkpt lat="43.1488104" lon="12.3283548"><ele>461.8</ele><time>2026-04-10T11:13:40.302Z</time></trkpt><trkpt lat="43.1488568" lon="12.3284567"><ele>461.6</ele><time>2026-04-10T11:13:41.371Z</time></trkpt><trkpt lat="43.1489021" lon="12.3285342"><ele>461.40000000000003</ele><time>2026-04-10T11:13:42.333Z</time></trkpt><trkpt lat="43.1489567" lon="12.3286815"><ele>461.20000000000005</ele><time>2026-04-10T11:13:44.35Z</time></trkpt><trkpt lat="43.1490309" lon="12.3288169"><ele>461.0</ele><time>2026-04-10T11:13:46.306Z</time></trkpt><trkpt lat="43.1490828" lon="12.3288859"><ele>459.49999999999994</ele><time>2026-04-10T11:13:47.365Z</time></trkpt><trkpt lat="43.1491416" lon="12.3289669"><ele>458.0</ele><time>2026-04-10T11:13:48.318Z</time></trkpt><trkpt lat="43.149208" lon="12.3290477"><ele>456.5</ele><time>2026-04-10T11:13:49.354Z</time></trkpt><trkpt lat="43.1492701" lon="12.3291254"><ele>455.0</ele><time>2026-04-10T11:13:50.378Z</time></trkpt><trkpt lat="43.1493212" lon="12.3291969"><ele>453.49999999999994</ele><time>2026-04-10T11:13:51.367Z</time></trkpt><trkpt lat="43.1493681" lon="12.3292578"><ele>452.0</ele><time>2026-04-10T11:13:52.35Z</time></trkpt><trkpt lat="43.1494679" lon="12.329342"><ele>451.99999999999994</ele><time>2026-04-10T11:13:54.355Z</time></trkpt><trkpt lat="43.1495267" lon="12.3294084"><ele>452.0</ele><time>2026-04-10T11:13:56.371Z</time></trkpt><trkpt lat="43.1495564" lon="12.3294996"><ele>452.0</ele><time>2026-04-10T11:13:59.328Z</time></trkpt><trkpt lat="43.1496009" lon="12.3296299"><ele>452.0</ele><time>2026-04-10T11:14:01.361Z</time></trkpt><trkpt lat="43.1496271" lon="12.3297156"><ele>451.99999999999994</ele><time>2026-04-10T11:14:02.352Z</time></trkpt><trkpt lat="43.1496607" lon="12.329817"><ele>452.0</ele><time>2026-04-10T11:14:04.389Z</time></trkpt><trkpt lat="43.1496935" lon="12.3298993"><ele>451.99999999999994</ele><time>2026-04-10T11:14:06.36Z</time></trkpt><trkpt lat="43.1497516" lon="12.3299835"><ele>452.0</ele><time>2026-04-10T11:14:09.345Z</time></trkpt><trkpt lat="43.1496929" lon="12.3299449"><ele>452.0</ele><time>2026-04-10T11:14:28.371Z</time></trkpt><trkpt lat="43.1496359" lon="12.3298564"><ele>452.0</ele><time>2026-04-10T11:14:31.377Z</time></trkpt><trkpt lat="43.1496014" lon="12.3297563"><ele>451.99999999999994</ele><time>2026-04-10T11:14:33.369Z</time></trkpt><trkpt lat="43.1495691" lon="12.3296516"><ele>452.0</ele><time>2026-04-10T11:14:35.352Z</time></trkpt><trkpt lat="43.1495437" lon="12.329566"><ele>452.0</ele><time>2026-04-10T11:14:37.356Z</time></trkpt><trkpt lat="43.1495307" lon="12.3294714"><ele>452.00000000000006</ele><time>2026-04-10T11:14:40.356Z</time></trkpt><trkpt lat="43.1494627" lon="12.3293866"><ele>452.00000000000006</ele><time>2026-04-10T11:14:44.368Z</time></trkpt><trkpt lat="43.1493785" lon="12.3293098"><ele>452.0</ele><time>2026-04-10T11:14:46.375Z</time></trkpt><trkpt lat="43.1493218" lon="12.3292238"><ele>452.0</ele><time>2026-04-10T11:14:47.368Z</time></trkpt><trkpt lat="43.1492545" lon="12.3291114"><ele>451.99999999999994</ele><time>2026-04-10T11:14:48.357Z</time></trkpt><trkpt lat="43.1491831" lon="12.3290011"><ele>452.0</ele><time>2026-04-10T11:14:49.366Z</time></trkpt><trkpt lat="43.1491151" lon="12.3289084"><ele>452.0</ele><time>2026-04-10T11:14:50.353Z</time></trkpt><trkpt lat="43.1490536" lon="12.32884"><ele>452.0</ele><time>2026-04-10T11:14:51.347Z</time></trkpt><trkpt lat="43.1489972" lon="12.3287873"><ele>451.99999999999994</ele><time>2026-04-10T11:14:52.345Z</time></trkpt><trkpt lat="43.1489543" lon="12.3287012"><ele>452.0</ele><time>2026-04-10T11:14:54.366Z</time></trkpt><trkpt lat="43.1490757" lon="12.3286723"><ele>453.49999999999994</ele><time>2026-04-10T11:14:56.319Z</time></trkpt><trkpt lat="43.1491614" lon="12.3286859"><ele>455.0</ele><time>2026-04-10T11:14:57.353Z</time></trkpt><trkpt lat="43.1492511" lon="12.3287118"><ele>456.5</ele><time>2026-04-10T11:14:58.299Z</time></trkpt><trkpt lat="43.14933" lon="12.3287312"><ele>458.0</ele><time>2026-04-10T11:14:59.327Z</time></trkpt><trkpt lat="43.1494078" lon="12.328727"><ele>459.49999999999994</ele><time>2026-04-10T11:15:00.307Z</time></trkpt><trkpt lat="43.1494822" lon="12.3287156"><ele>461.0</ele><time>2026-04-10T11:15:01.352Z</time></trkpt><trkpt lat="43.1495658" lon="12.3286976"><ele>460.99999999999994</ele><time>2026-04-10T11:15:02.349Z</time></trkpt><trkpt lat="43.1496492" lon="12.3286898"><ele>461.0</ele><time>2026-04-10T11:15:03.336Z</time></trkpt><trkpt lat="43.1497147" lon="12.3286693"><ele>461.0</ele><time>2026-04-10T11:15:04.372Z</time></trkpt><trkpt lat="43.1497756" lon="12.3286377"><ele>461.0</ele><time>2026-04-10T11:15:05.38Z</time></trkpt><trkpt lat="43.1498419" lon="12.3286022"><ele>460.99999999999994</ele><time>2026-04-10T11:15:06.372Z</time></trkpt><trkpt lat="43.1499117" lon="12.3285215"><ele>461.0</ele><time>2026-04-10T11:15:07.348Z</time></trkpt><trkpt lat="43.1499862" lon="12.3284255"><ele>461.6</ele><time>2026-04-10T11:15:08.347Z</time></trkpt><trkpt lat="43.1500734" lon="12.3283473"><ele>462.20000000000005</ele><time>2026-04-10T11:15:09.352Z</time></trkpt><trkpt lat="43.1501442" lon="12.3282542"><ele>462.79999999999995</ele><time>2026-04-10T11:15:10.359Z</time></trkpt><trkpt lat="43.15022" lon="12.3281729"><ele>463.4</ele><time>2026-04-10T11:15:11.36Z</time></trkpt><trkpt lat="43.1502705" lon="12.3281013"><ele>464.0</ele><time>2026-04-10T11:15:12.359Z</time></trkpt><trkpt lat="43.1502871" lon="12.3279797"><ele>465.3333333333333</ele><time>2026-04-10T11:15:15.341Z</time></trkpt><trkpt lat="43.1502489" lon="12.3278951"><ele>466.66666666666663</ele><time>2026-04-10T11:15:18.348Z</time></trkpt><trkpt lat="43.1502005" lon="12.3278118"><ele>468.0</ele><time>2026-04-10T11:15:20.353Z</time></trkpt><trkpt lat="43.1501681" lon="12.3277328"><ele>469.33333333333337</ele><time>2026-04-10T11:15:21.349Z</time></trkpt><trkpt lat="43.1501123" lon="12.3275954"><ele>470.6666666666667</ele><time>2026-04-10T11:15:22.356Z</time></trkpt><trkpt lat="43.1500596" lon="12.3274974"><ele>472.0</ele><time>2026-04-10T11:15:23.366Z</time></trkpt><trkpt lat="43.1499917" lon="12.327416"><ele>472.00000000000006</ele><time>2026-04-10T11:15:24.33Z</time></trkpt><trkpt lat="43.1499159" lon="12.3273525"><ele>472.0</ele><time>2026-04-10T11:15:25.352Z</time></trkpt><trkpt lat="43.1498304" lon="12.3273128"><ele>472.0</ele><time>2026-04-10T11:15:26.376Z</time></trkpt><trkpt lat="43.1497598" lon="12.3272767"><ele>472.0</ele><time>2026-04-10T11:15:27.366Z</time></trkpt><trkpt lat="43.149674" lon="12.3271636"><ele>472.00000000000006</ele><time>2026-04-10T11:15:29.375Z</time></trkpt><trkpt lat="43.1496326" lon="12.327085"><ele>472.0</ele><time>2026-04-10T11:15:30.35Z</time></trkpt><trkpt lat="43.1495858" lon="12.3270079"><ele>472.85714285714283</ele><time>2026-04-10T11:15:31.363Z</time></trkpt><trkpt lat="43.1495391" lon="12.3269344"><ele>473.7142857142858</ele><time>2026-04-10T11:15:32.359Z</time></trkpt><trkpt lat="43.1494883" lon="12.3268696"><ele>474.5714285714286</ele><time>2026-04-10T11:15:33.349Z</time></trkpt><trkpt lat="43.1494556" lon="12.3267897"><ele>475.42857142857144</ele><time>2026-04-10T11:15:34.349Z</time></trkpt><trkpt lat="43.1494254" lon="12.326712"><ele>476.28571428571433</ele><time>2026-04-10T11:15:35.347Z</time></trkpt><trkpt lat="43.1493648" lon="12.3266426"><ele>477.1428571428572</ele><time>2026-04-10T11:15:37.347Z</time></trkpt><trkpt lat="43.1493251" lon="12.326569"><ele>478.00000000000006</ele><time>2026-04-10T11:15:39.359Z</time></trkpt><trkpt lat="43.149328" lon="12.3264478"><ele>477.83333333333337</ele><time>2026-04-10T11:15:41.332Z</time></trkpt><trkpt lat="43.1493083" lon="12.32631"><ele>477.6666666666667</ele><time>2026-04-10T11:15:43.292Z</time></trkpt><trkpt lat="43.1493046" lon="12.3261872"><ele>477.5</ele><time>2026-04-10T11:15:45.358Z</time></trkpt><trkpt lat="43.1493347" lon="12.3260984"><ele>477.33333333333337</ele><time>2026-04-10T11:15:46.358Z</time></trkpt><trkpt lat="43.149393" lon="12.3260134"><ele>477.1666666666667</ele><time>2026-04-10T11:15:47.291Z</time></trkpt><trkpt lat="43.1494469" lon="12.3259356"><ele>477.0</ele><time>2026-04-10T11:15:48.332Z</time></trkpt><trkpt lat="43.1495167" lon="12.3257768"><ele>477.0</ele><time>2026-04-10T11:15:50.362Z</time></trkpt><trkpt lat="43.1495588" lon="12.3257054"><ele>477.0</ele><time>2026-04-10T11:15:51.372Z</time></trkpt><trkpt lat="43.1496053" lon="12.3256238"><ele>477.0</ele><time>2026-04-10T11:15:52.357Z</time></trkpt><trkpt lat="43.1496446" lon="12.3255512"><ele>477.0</ele><time>2026-04-10T11:15:53.338Z</time></trkpt><trkpt lat="43.1496794" lon="12.3254769"><ele>477.0</ele><time>2026-04-10T11:15:54.373Z</time></trkpt><trkpt lat="43.1496609" lon="12.3253123"><ele>477.0</ele><time>2026-04-10T11:15:56.351Z</time></trkpt><trkpt lat="43.1496497" lon="12.3252263"><ele>476.85714285714283</ele><time>2026-04-10T11:15:57.349Z</time></trkpt><trkpt lat="43.149635" lon="12.3251201"><ele>476.71428571428567</ele><time>2026-04-10T11:15:58.352Z</time></trkpt><trkpt lat="43.1496275" lon="12.3250144"><ele>476.57142857142856</ele><time>2026-04-10T11:15:59.337Z</time></trkpt><trkpt lat="43.1496253" lon="12.3249255"><ele>476.42857142857144</ele><time>2026-04-10T11:16:00.361Z</time></trkpt><trkpt lat="43.149624" lon="12.3248202"><ele>476.2857142857143</ele><time>2026-04-10T11:16:01.349Z</time></trkpt><trkpt lat="43.1496039" lon="12.3247228"><ele>476.1428571428571</ele><time>2026-04-10T11:16:02.351Z</time></trkpt><trkpt lat="43.1495891" lon="12.3246329"><ele>476.0</ele><time>2026-04-10T11:16:03.347Z</time></trkpt><trkpt lat="43.1495195" lon="12.3244761"><ele>474.75</ele><time>2026-04-10T11:16:05.349Z</time></trkpt><trkpt lat="43.1494489" lon="12.3243826"><ele>473.5</ele><time>2026-04-10T11:16:07.351Z</time></trkpt><trkpt lat="43.1494345" lon="12.3242279"><ele>472.25</ele><time>2026-04-10T11:16:09.344Z</time></trkpt><trkpt lat="43.1494219" lon="12.3240612"><ele>471.0</ele><time>2026-04-10T11:16:11.329Z</time></trkpt><trkpt lat="43.1494136" lon="12.3238934"><ele>469.4</ele><time>2026-04-10T11:16:13.361Z</time></trkpt><trkpt lat="43.1494151" lon="12.3237967"><ele>467.8</ele><time>2026-04-10T11:16:14.365Z</time></trkpt><trkpt lat="43.149462" lon="12.3236571"><ele>466.19999999999993</ele><time>2026-04-10T11:16:16.298Z</time></trkpt><trkpt lat="43.149524" lon="12.3235534"><ele>464.59999999999997</ele><time>2026-04-10T11:16:18.347Z</time></trkpt><trkpt lat="43.1495322" lon="12.3234059"><ele>463.0</ele><time>2026-04-10T11:16:20.357Z</time></trkpt><trkpt lat="43.1495281" lon="12.3232352"><ele>463.00000000000006</ele><time>2026-04-10T11:16:22.331Z</time></trkpt><trkpt lat="43.1495446" lon="12.3231511"><ele>463.0</ele><time>2026-04-10T11:16:23.331Z</time></trkpt><trkpt lat="43.1495897" lon="12.3230524"><ele>463.0</ele><time>2026-04-10T11:16:24.345Z</time></trkpt><trkpt lat="43.1496373" lon="12.3229602"><ele>463.0</ele><time>2026-04-10T11:16:25.364Z</time></trkpt><trkpt lat="43.1496828" lon="12.3228588"><ele>463.00000000000006</ele><time>2026-04-10T11:16:26.341Z</time></trkpt><trkpt lat="43.1497292" lon="12.3227525"><ele>463.0</ele><time>2026-04-10T11:16:27.361Z</time></trkpt><trkpt lat="43.1497654" lon="12.3226318"><ele>462.00000000000006</ele><time>2026-04-10T11:16:28.362Z</time></trkpt><trkpt lat="43.1497856" lon="12.3224952"><ele>461.0</ele><time>2026-04-10T11:16:29.371Z</time></trkpt><trkpt lat="43.1497885" lon="12.3223849"><ele>460.0</ele><time>2026-04-10T11:16:30.388Z</time></trkpt><trkpt lat="43.1497916" lon="12.3222877"><ele>459.0</ele><time>2026-04-10T11:16:31.353Z</time></trkpt><trkpt lat="43.1497658" lon="12.3221337"><ele>458.00000000000006</ele><time>2026-04-10T11:16:33.352Z</time></trkpt><trkpt lat="43.1497286" lon="12.3220538"><ele>457.0</ele><time>2026-04-10T11:16:34.355Z</time></trkpt><trkpt lat="43.1496734" lon="12.3219272"><ele>456.20000000000005</ele><time>2026-04-10T11:16:36.376Z</time></trkpt><trkpt lat="43.1496232" lon="12.3218134"><ele>455.40000000000003</ele><time>2026-04-10T11:16:38.365Z</time></trkpt><trkpt lat="43.1495782" lon="12.3217217"><ele>454.59999999999997</ele><time>2026-04-10T11:16:40.368Z</time></trkpt><trkpt lat="43.1494808" lon="12.3216679"><ele>453.79999999999995</ele><time>2026-04-10T11:16:42.344Z</time></trkpt><trkpt lat="43.1493577" lon="12.3217031"><ele>453.0</ele><time>2026-04-10T11:16:44.35Z</time></trkpt><trkpt lat="43.1492881" lon="12.3217451"><ele>453.0</ele><time>2026-04-10T11:16:45.348Z</time></trkpt><trkpt lat="43.149212" lon="12.3218029"><ele>452.99999999999994</ele><time>2026-04-10T11:16:46.283Z</time></trkpt><trkpt lat="43.1491327" lon="12.3218743"><ele>452.99999999999994</ele><time>2026-04-10T11:16:47.317Z</time></trkpt><trkpt lat="43.1490532" lon="12.3219689"><ele>453.0</ele><time>2026-04-10T11:16:48.326Z</time></trkpt><trkpt lat="43.1489675" lon="12.3220728"><ele>453.0</ele><time>2026-04-10T11:16:49.292Z</time></trkpt><trkpt lat="43.1488782" lon="12.3221831"><ele>453.2</ele><time>2026-04-10T11:16:50.351Z</time></trkpt><trkpt lat="43.1487908" lon="12.3223057"><ele>453.4</ele><time>2026-04-10T11:16:51.284Z</time></trkpt><trkpt lat="43.1487121" lon="12.3224181"><ele>453.59999999999997</ele><time>2026-04-10T11:16:52.313Z</time></trkpt><trkpt lat="43.1486419" lon="12.322505"><ele>453.79999999999995</ele><time>2026-04-10T11:16:53.338Z</time></trkpt><trkpt lat="43.148574" lon="12.322564"><ele>454.0</ele><time>2026-04-10T11:16:54.33Z</time></trkpt><trkpt lat="43.1485069" lon="12.3226114"><ele>454.0</ele><time>2026-04-10T11:16:55.337Z</time></trkpt><trkpt lat="43.148422" lon="12.3226101"><ele>454.0</ele><time>2026-04-10T11:16:56.293Z</time></trkpt><trkpt lat="43.1483363" lon="12.3225592"><ele>454.0</ele><time>2026-04-10T11:16:57.338Z</time></trkpt><trkpt lat="43.1482347" lon="12.3224726"><ele>454.0</ele><time>2026-04-10T11:16:58.346Z</time></trkpt><trkpt lat="43.1481452" lon="12.3223719"><ele>454.0</ele><time>2026-04-10T11:16:59.324Z</time></trkpt><trkpt lat="43.1480431" lon="12.322289"><ele>453.79999999999995</ele><time>2026-04-10T11:17:00.346Z</time></trkpt><trkpt lat="43.1479552" lon="12.3222047"><ele>453.59999999999997</ele><time>2026-04-10T11:17:01.34Z</time></trkpt><trkpt lat="43.1478756" lon="12.3221181"><ele>453.4</ele><time>2026-04-10T11:17:02.354Z</time></trkpt><trkpt lat="43.1478108" lon="12.3220317"><ele>453.2</ele><time>2026-04-10T11:17:03.364Z</time></trkpt><trkpt lat="43.1477321" lon="12.3219615"><ele>453.0</ele><time>2026-04-10T11:17:04.355Z</time></trkpt><trkpt lat="43.1476442" lon="12.321919"><ele>453.0</ele><time>2026-04-10T11:17:05.35Z</time></trkpt><trkpt lat="43.1475515" lon="12.3218936"><ele>452.99999999999994</ele><time>2026-04-10T11:17:06.305Z</time></trkpt><trkpt lat="43.1474547" lon="12.3219105"><ele>452.99999999999994</ele><time>2026-04-10T11:17:07.343Z</time></trkpt><trkpt lat="43.1473629" lon="12.3219556"><ele>453.0</ele><time>2026-04-10T11:17:08.349Z</time></trkpt><trkpt lat="43.1472673" lon="12.3220174"><ele>453.0</ele><time>2026-04-10T11:17:09.352Z</time></trkpt><trkpt lat="43.1471717" lon="12.3220926"><ele>453.1666666666667</ele><time>2026-04-10T11:17:10.356Z</time></trkpt><trkpt lat="43.147083" lon="12.3221637"><ele>453.33333333333337</ele><time>2026-04-10T11:17:11.346Z</time></trkpt><trkpt lat="43.1470023" lon="12.322225"><ele>453.5</ele><time>2026-04-10T11:17:12.357Z</time></trkpt><trkpt lat="43.1469285" lon="12.3222747"><ele>453.6666666666667</ele><time>2026-04-10T11:17:13.297Z</time></trkpt><trkpt lat="43.1468489" lon="12.3222963"><ele>453.83333333333337</ele><time>2026-04-10T11:17:14.378Z</time></trkpt><trkpt lat="43.1467734" lon="12.3223072"><ele>454.0</ele><time>2026-04-10T11:17:15.35Z</time></trkpt><trkpt lat="43.1467083" lon="12.3223004"><ele>454.6</ele><time>2026-04-10T11:17:16.348Z</time></trkpt><trkpt lat="43.1465999" lon="12.3223627"><ele>455.2</ele><time>2026-04-10T11:17:18.333Z</time></trkpt><trkpt lat="43.1465476" lon="12.3224261"><ele>455.80000000000007</ele><time>2026-04-10T11:17:19.346Z</time></trkpt><trkpt lat="43.1465024" lon="12.322541"><ele>456.40000000000003</ele><time>2026-04-10T11:17:20.343Z</time></trkpt><trkpt lat="43.146467" lon="12.3226881"><ele>457.0</ele><time>2026-04-10T11:17:21.341Z</time></trkpt><trkpt lat="43.1464341" lon="12.3228433"><ele>457.25</ele><time>2026-04-10T11:17:22.359Z</time></trkpt><trkpt lat="43.1463935" lon="12.323006"><ele>457.5</ele><time>2026-04-10T11:17:23.332Z</time></trkpt><trkpt lat="43.146338" lon="12.3231635"><ele>457.75</ele><time>2026-04-10T11:17:24.376Z</time></trkpt><trkpt lat="43.1462707" lon="12.3233058"><ele>458.0</ele><time>2026-04-10T11:17:25.362Z</time></trkpt><trkpt lat="43.1461772" lon="12.323442"><ele>458.0</ele><time>2026-04-10T11:17:26.35Z</time></trkpt><trkpt lat="43.1460777" lon="12.3235782"><ele>458.0</ele><time>2026-04-10T11:17:27.349Z</time></trkpt><trkpt lat="43.1459736" lon="12.3237223"><ele>458.0</ele><time>2026-04-10T11:17:28.281Z</time></trkpt><trkpt lat="43.1458734" lon="12.3238598"><ele>458.0</ele><time>2026-04-10T11:17:29.346Z</time></trkpt><trkpt lat="43.1457918" lon="12.3239832"><ele>458.59999999999997</ele><time>2026-04-10T11:17:30.356Z</time></trkpt><trkpt lat="43.1457193" lon="12.3240945"><ele>459.19999999999993</ele><time>2026-04-10T11:17:31.341Z</time></trkpt><trkpt lat="43.1456449" lon="12.32418"><ele>459.8</ele><time>2026-04-10T11:17:32.332Z</time></trkpt><trkpt lat="43.1455619" lon="12.3242412"><ele>460.4</ele><time>2026-04-10T11:17:33.382Z</time></trkpt><trkpt lat="43.1454631" lon="12.3242952"><ele>461.0</ele><time>2026-04-10T11:17:34.351Z</time></trkpt><trkpt lat="43.1453583" lon="12.3243309"><ele>461.0</ele><time>2026-04-10T11:17:35.338Z</time></trkpt><trkpt lat="43.1452412" lon="12.3243511"><ele>461.0</ele><time>2026-04-10T11:17:36.367Z</time></trkpt><trkpt lat="43.1451254" lon="12.3243686"><ele>461.0</ele><time>2026-04-10T11:17:37.336Z</time></trkpt><trkpt lat="43.1450163" lon="12.3243823"><ele>461.0</ele><time>2026-04-10T11:17:38.362Z</time></trkpt><trkpt lat="43.1448938" lon="12.3244146"><ele>463.4</ele><time>2026-04-10T11:17:39.357Z</time></trkpt><trkpt lat="43.1447812" lon="12.3244507"><ele>465.8</ele><time>2026-04-10T11:17:40.346Z</time></trkpt><trkpt lat="43.1446746" lon="12.3244936"><ele>468.19999999999993</ele><time>2026-04-10T11:17:41.358Z</time></trkpt><trkpt lat="43.1445778" lon="12.3245538"><ele>470.59999999999997</ele><time>2026-04-10T11:17:42.349Z</time></trkpt><trkpt lat="43.1444884" lon="12.3246151"><ele>473.0</ele><time>2026-04-10T11:17:43.348Z</time></trkpt><trkpt lat="43.1444062" lon="12.3247018"><ele>473.57142857142856</ele><time>2026-04-10T11:17:44.365Z</time></trkpt><trkpt lat="43.144351" lon="12.3247933"><ele>474.1428571428571</ele><time>2026-04-10T11:17:45.379Z</time></trkpt><trkpt lat="43.144312" lon="12.3248763"><ele>474.71428571428567</ele><time>2026-04-10T11:17:46.354Z</time></trkpt><trkpt lat="43.1442347" lon="12.3249168"><ele>475.2857142857143</ele><time>2026-04-10T11:17:49.345Z</time></trkpt><trkpt lat="43.1441729" lon="12.3248663"><ele>475.8571428571428</ele><time>2026-04-10T11:17:50.367Z</time></trkpt><trkpt lat="43.1441214" lon="12.3248024"><ele>476.4285714285714</ele><time>2026-04-10T11:17:51.331Z</time></trkpt><trkpt lat="43.1440717" lon="12.3247431"><ele>477.0</ele><time>2026-04-10T11:17:52.302Z</time></trkpt><trkpt lat="43.1440026" lon="12.3246721"><ele>479.8</ele><time>2026-04-10T11:17:54.348Z</time></trkpt><trkpt lat="43.1438961" lon="12.32467"><ele>482.6</ele><time>2026-04-10T11:17:56.353Z</time></trkpt><trkpt lat="43.1438307" lon="12.3246835"><ele>485.40000000000003</ele><time>2026-04-10T11:17:57.342Z</time></trkpt><trkpt lat="43.1437135" lon="12.3247564"><ele>488.20000000000005</ele><time>2026-04-10T11:17:59.354Z</time></trkpt><trkpt lat="43.1436377" lon="12.3248124"><ele>491.0</ele><time>2026-04-10T11:18:00.357Z</time></trkpt><trkpt lat="43.1435741" lon="12.3248625"><ele>491.0</ele><time>2026-04-10T11:18:01.378Z</time></trkpt><trkpt lat="43.1435219" lon="12.3249149"><ele>490.99999999999994</ele><time>2026-04-10T11:18:02.348Z</time></trkpt><trkpt lat="43.1434742" lon="12.3249754"><ele>491.0</ele><time>2026-04-10T11:18:03.343Z</time></trkpt><trkpt lat="43.1434256" lon="12.3250462"><ele>491.0</ele><time>2026-04-10T11:18:04.359Z</time></trkpt><trkpt lat="43.1433814" lon="12.3251159"><ele>490.99999999999994</ele><time>2026-04-10T11:18:05.354Z</time></trkpt><trkpt lat="43.1433153" lon="12.3251802"><ele>491.0</ele><time>2026-04-10T11:18:06.321Z</time></trkpt><trkpt lat="43.1432487" lon="12.3252349"><ele>491.0</ele><time>2026-04-10T11:18:07.339Z</time></trkpt><trkpt lat="43.1431706" lon="12.3252661"><ele>493.4</ele><time>2026-04-10T11:18:08.347Z</time></trkpt><trkpt lat="43.1430888" lon="12.3252935"><ele>495.8</ele><time>2026-04-10T11:18:09.342Z</time></trkpt><trkpt lat="43.1430215" lon="12.3253248"><ele>498.19999999999993</ele><time>2026-04-10T11:18:10.338Z</time></trkpt><trkpt lat="43.1429564" lon="12.3253418"><ele>500.59999999999997</ele><time>2026-04-10T11:18:11.345Z</time></trkpt><trkpt lat="43.142846" lon="12.3253248"><ele>503.0</ele><time>2026-04-10T11:18:13.355Z</time></trkpt><trkpt lat="43.142728" lon="12.3253084"><ele>503.0</ele><time>2026-04-10T11:18:15.336Z</time></trkpt><trkpt lat="43.1426366" lon="12.3253053"><ele>502.99999999999994</ele><time>2026-04-10T11:18:17.345Z</time></trkpt><trkpt lat="43.1425059" lon="12.3252902"><ele>502.99999999999994</ele><time>2026-04-10T11:18:19.334Z</time></trkpt><trkpt lat="43.1423817" lon="12.3252692"><ele>503.0</ele><time>2026-04-10T11:18:21.362Z</time></trkpt><trkpt lat="43.142304" lon="12.3252683"><ele>503.0</ele><time>2026-04-10T11:18:22.345Z</time></trkpt><trkpt lat="43.1421765" lon="12.3252503"><ele>503.8333333333333</ele><time>2026-04-10T11:18:24.345Z</time></trkpt><trkpt lat="43.1420988" lon="12.3252487"><ele>504.66666666666663</ele><time>2026-04-10T11:18:25.339Z</time></trkpt><trkpt lat="43.1420217" lon="12.3252361"><ele>505.5</ele><time>2026-04-10T11:18:26.331Z</time></trkpt><trkpt lat="43.1419603" lon="12.3251881"><ele>506.33333333333337</ele><time>2026-04-10T11:18:27.312Z</time></trkpt><trkpt lat="43.1418604" lon="12.3250898"><ele>507.1666666666667</ele><time>2026-04-10T11:18:29.352Z</time></trkpt><trkpt lat="43.1418209" lon="12.32497"><ele>508.0</ele><time>2026-04-10T11:18:31.33Z</time></trkpt><trkpt lat="43.1417715" lon="12.324898"><ele>508.0</ele><time>2026-04-10T11:18:33.338Z</time></trkpt><trkpt lat="43.1416898" lon="12.3248308"><ele>507.99999999999994</ele><time>2026-04-10T11:18:35.358Z</time></trkpt><trkpt lat="43.1415902" lon="12.3247857"><ele>507.99999999999994</ele><time>2026-04-10T11:18:37.351Z</time></trkpt><trkpt lat="43.1415113" lon="12.3246815"><ele>508.0</ele><time>2026-04-10T11:18:39.347Z</time></trkpt><trkpt lat="43.141452" lon="12.3245462"><ele>508.0</ele><time>2026-04-10T11:18:41.323Z</time></trkpt><trkpt lat="43.1413928" lon="12.3244275"><ele>513.6</ele><time>2026-04-10T11:18:43.349Z</time></trkpt><trkpt lat="43.141339" lon="12.3243044"><ele>519.1999999999999</ele><time>2026-04-10T11:18:45.333Z</time></trkpt><trkpt lat="43.1412617" lon="12.3241857"><ele>524.8</ele><time>2026-04-10T11:18:47.35Z</time></trkpt><trkpt lat="43.1411654" lon="12.3241721"><ele>530.4</ele><time>2026-04-10T11:18:49.359Z</time></trkpt><trkpt lat="43.1411139" lon="12.3242845"><ele>536.0</ele><time>2026-04-10T11:18:52.362Z</time></trkpt><trkpt lat="43.1411054" lon="12.324411"><ele>536.0</ele><time>2026-04-10T11:18:54.345Z</time></trkpt><trkpt lat="43.1410333" lon="12.3245647"><ele>536.0</ele><time>2026-04-10T11:18:56.344Z</time></trkpt><trkpt lat="43.1409483" lon="12.3246897"><ele>536.0</ele><time>2026-04-10T11:18:58.328Z</time></trkpt><trkpt lat="43.1408984" lon="12.3247563"><ele>536.0</ele><time>2026-04-10T11:18:59.377Z</time></trkpt><trkpt lat="43.1407979" lon="12.3248754"><ele>534.3333333333333</ele><time>2026-04-10T11:19:01.363Z</time></trkpt><trkpt lat="43.1407341" lon="12.324943"><ele>532.6666666666666</ele><time>2026-04-10T11:19:02.347Z</time></trkpt><trkpt lat="43.1406665" lon="12.3250159"><ele>531.0</ele><time>2026-04-10T11:19:03.367Z</time></trkpt><trkpt lat="43.140606" lon="12.3250881"><ele>529.3333333333334</ele><time>2026-04-10T11:19:04.328Z</time></trkpt><trkpt lat="43.1405416" lon="12.3251809"><ele>527.6666666666667</ele><time>2026-04-10T11:19:05.339Z</time></trkpt><trkpt lat="43.1404781" lon="12.3252628"><ele>526.0</ele><time>2026-04-10T11:19:06.367Z</time></trkpt><trkpt lat="43.1404064" lon="12.3253391"><ele>527.4</ele><time>2026-04-10T11:19:07.345Z</time></trkpt><trkpt lat="43.1403221" lon="12.3254136"><ele>528.8</ele><time>2026-04-10T11:19:08.293Z</time></trkpt><trkpt lat="43.140229" lon="12.3254766"><ele>530.1999999999999</ele><time>2026-04-10T11:19:09.348Z</time></trkpt><trkpt lat="43.1401265" lon="12.3255241"><ele>531.6</ele><time>2026-04-10T11:19:10.315Z</time></trkpt><trkpt lat="43.1400273" lon="12.325555"><ele>533.0</ele><time>2026-04-10T11:19:11.355Z</time></trkpt><trkpt lat="43.1399321" lon="12.3255867"><ele>535.1999999999999</ele><time>2026-04-10T11:19:12.333Z</time></trkpt><trkpt lat="43.1398402" lon="12.325618"><ele>537.4</ele><time>2026-04-10T11:19:13.346Z</time></trkpt><trkpt lat="43.1397678" lon="12.3256527"><ele>539.5999999999999</ele><time>2026-04-10T11:19:14.346Z</time></trkpt><trkpt lat="43.1396991" lon="12.3257101"><ele>541.8</ele><time>2026-04-10T11:19:16.323Z</time></trkpt><trkpt lat="43.1396251" lon="12.3257414"><ele>544.0</ele><time>2026-04-10T11:19:18.314Z</time></trkpt><trkpt lat="43.1395023" lon="12.3257655"><ele>544.0</ele><time>2026-04-10T11:19:20.341Z</time></trkpt><trkpt lat="43.13942" lon="12.3258088"><ele>544.0</ele><time>2026-04-10T11:19:22.342Z</time></trkpt><trkpt lat="43.1393379" lon="12.3258615"><ele>544.0</ele><time>2026-04-10T11:19:25.342Z</time></trkpt><trkpt lat="43.1392154" lon="12.325909"><ele>544.0</ele><time>2026-04-10T11:19:27.35Z</time></trkpt><trkpt lat="43.1391482" lon="12.3259241"><ele>544.0</ele><time>2026-04-10T11:19:28.338Z</time></trkpt><trkpt lat="43.1390791" lon="12.3259505"><ele>544.0</ele><time>2026-04-10T11:19:29.345Z</time></trkpt><trkpt lat="43.1390156" lon="12.3259781"><ele>546.8571428571428</ele><time>2026-04-10T11:19:30.351Z</time></trkpt><trkpt lat="43.1389462" lon="12.3260167"><ele>549.7142857142857</ele><time>2026-04-10T11:19:31.373Z</time></trkpt><trkpt lat="43.1388812" lon="12.3260634"><ele>552.5714285714286</ele><time>2026-04-10T11:19:32.338Z</time></trkpt><trkpt lat="43.1388174" lon="12.3261141"><ele>555.4285714285713</ele><time>2026-04-10T11:19:33.321Z</time></trkpt><trkpt lat="43.1387609" lon="12.3261686"><ele>558.2857142857142</ele><time>2026-04-10T11:19:34.356Z</time></trkpt><trkpt lat="43.1387039" lon="12.3262292"><ele>561.1428571428571</ele><time>2026-04-10T11:19:35.367Z</time></trkpt><trkpt lat="43.1386547" lon="12.3262831"><ele>564.0</ele><time>2026-04-10T11:19:36.346Z</time></trkpt><trkpt lat="43.1385469" lon="12.3263883"><ele>563.4</ele><time>2026-04-10T11:19:38.342Z</time></trkpt><trkpt lat="43.1384184" lon="12.3264339"><ele>562.8</ele><time>2026-04-10T11:19:40.337Z</time></trkpt><trkpt lat="43.1383502" lon="12.3264597"><ele>562.2</ele><time>2026-04-10T11:19:41.364Z</time></trkpt><trkpt lat="43.1382876" lon="12.3264901"><ele>561.6</ele><time>2026-04-10T11:19:42.328Z</time></trkpt><trkpt lat="43.1381509" lon="12.3265291"><ele>561.0</ele><time>2026-04-10T11:19:44.34Z</time></trkpt><trkpt lat="43.1380738" lon="12.3265213"><ele>561.0</ele><time>2026-04-10T11:19:45.339Z</time></trkpt><trkpt lat="43.137991" lon="12.3265023"><ele>561.0</ele><time>2026-04-10T11:19:46.347Z</time></trkpt><trkpt lat="43.1379201" lon="12.3264792"><ele>561.0</ele><time>2026-04-10T11:19:47.342Z</time></trkpt><trkpt lat="43.1378527" lon="12.3264786"><ele>561.0</ele><time>2026-04-10T11:19:48.329Z</time></trkpt><trkpt lat="43.1377803" lon="12.3264941"><ele>561.0</ele><time>2026-04-10T11:19:49.296Z</time></trkpt><trkpt lat="43.1377031" lon="12.3265206"><ele>561.0</ele><time>2026-04-10T11:19:50.277Z</time></trkpt><trkpt lat="43.1376266" lon="12.3265576"><ele>561.0</ele><time>2026-04-10T11:19:51.324Z</time></trkpt><trkpt lat="43.1375535" lon="12.3266032"><ele>561.0</ele><time>2026-04-10T11:19:52.314Z</time></trkpt><trkpt lat="43.137486" lon="12.3266497"><ele>561.0</ele><time>2026-04-10T11:19:53.337Z</time></trkpt><trkpt lat="43.1374034" lon="12.3267536"><ele>561.0</ele><time>2026-04-10T11:19:55.339Z</time></trkpt><trkpt lat="43.1373505" lon="12.3269244"><ele>561.0</ele><time>2026-04-10T11:19:57.321Z</time></trkpt><trkpt lat="43.1373211" lon="12.3270234"><ele>562.6</ele><time>2026-04-10T11:19:58.325Z</time></trkpt><trkpt lat="43.1372969" lon="12.3272149"><ele>564.2</ele><time>2026-04-10T11:20:00.346Z</time></trkpt><trkpt lat="43.1372858" lon="12.3273341"><ele>565.8</ele><time>2026-04-10T11:20:01.357Z</time></trkpt><trkpt lat="43.1372809" lon="12.3274388"><ele>567.4</ele><time>2026-04-10T11:20:02.332Z</time></trkpt><trkpt lat="43.1372847" lon="12.3275533"><ele>569.0</ele><time>2026-04-10T11:20:03.326Z</time></trkpt><trkpt lat="43.1372867" lon="12.3276506"><ele>569.0</ele><time>2026-04-10T11:20:04.273Z</time></trkpt><trkpt lat="43.1372879" lon="12.3277402"><ele>569.0</ele><time>2026-04-10T11:20:05.325Z</time></trkpt><trkpt lat="43.1372897" lon="12.3278392"><ele>569.0</ele><time>2026-04-10T11:20:06.335Z</time></trkpt><trkpt lat="43.1372457" lon="12.3280178"><ele>569.0</ele><time>2026-04-10T11:20:08.291Z</time></trkpt><trkpt lat="43.1371663" lon="12.3281366"><ele>569.0</ele><time>2026-04-10T11:20:10.288Z</time></trkpt><trkpt lat="43.1370923" lon="12.3282556"><ele>569.0</ele><time>2026-04-10T11:20:12.338Z</time></trkpt><trkpt lat="43.137022" lon="12.3282818"><ele>569.0</ele><time>2026-04-10T11:20:13.336Z</time></trkpt><trkpt lat="43.136951" lon="12.3282018"><ele>569.0</ele><time>2026-04-10T11:20:16.29Z</time></trkpt><trkpt lat="43.1369747" lon="12.3280858"><ele>569.0</ele><time>2026-04-10T11:20:18.309Z</time></trkpt><trkpt lat="43.1369775" lon="12.3279663"><ele>569.0</ele><time>2026-04-10T11:20:20.299Z</time></trkpt><trkpt lat="43.1369584" lon="12.3277874"><ele>569.0</ele><time>2026-04-10T11:20:22.338Z</time></trkpt><trkpt lat="43.1369116" lon="12.3276972"><ele>569.0</ele><time>2026-04-10T11:20:23.321Z</time></trkpt><trkpt lat="43.1368484" lon="12.3276159"><ele>569.0</ele><time>2026-04-10T11:20:24.329Z</time></trkpt><trkpt lat="43.1367765" lon="12.3275418"><ele>569.0</ele><time>2026-04-10T11:20:25.334Z</time></trkpt><trkpt lat="43.1367054" lon="12.3274639"><ele>569.0</ele><time>2026-04-10T11:20:26.343Z</time></trkpt><trkpt lat="43.136637" lon="12.3273881"><ele>569.0</ele><time>2026-04-10T11:20:27.349Z</time></trkpt><trkpt lat="43.1365644" lon="12.3272906"><ele>569.0</ele><time>2026-04-10T11:20:28.312Z</time></trkpt><trkpt lat="43.1365054" lon="12.327184"><ele>569.0</ele><time>2026-04-10T11:20:29.312Z</time></trkpt><trkpt lat="43.1364465" lon="12.32708"><ele>569.0</ele><time>2026-04-10T11:20:30.354Z</time></trkpt><trkpt lat="43.1363786" lon="12.3269695"><ele>569.0</ele><time>2026-04-10T11:20:31.34Z</time></trkpt><trkpt lat="43.1363177" lon="12.326862"><ele>569.0</ele><time>2026-04-10T11:20:32.335Z</time></trkpt><trkpt lat="43.1362529" lon="12.3267493"><ele>569.0</ele><time>2026-04-10T11:20:33.336Z</time></trkpt><trkpt lat="43.1362022" lon="12.3266472"><ele>569.0</ele><time>2026-04-10T11:20:34.361Z</time></trkpt><trkpt lat="43.1361677" lon="12.3265447"><ele>569.0</ele><time>2026-04-10T11:20:35.338Z</time></trkpt><trkpt lat="43.1361389" lon="12.326439"><ele>569.0</ele><time>2026-04-10T11:20:36.357Z</time></trkpt><trkpt lat="43.1361248" lon="12.3263229"><ele>569.0</ele><time>2026-04-10T11:20:37.343Z</time></trkpt><trkpt lat="43.136107" lon="12.3262109"><ele>569.0</ele><time>2026-04-10T11:20:38.333Z</time></trkpt><trkpt lat="43.1360843" lon="12.3260895"><ele>571.4</ele><time>2026-04-10T11:20:39.348Z</time></trkpt><trkpt lat="43.1360485" lon="12.3259635"><ele>573.8</ele><time>2026-04-10T11:20:40.336Z</time></trkpt><trkpt lat="43.1360076" lon="12.3258409"><ele>576.2</ele><time>2026-04-10T11:20:41.286Z</time></trkpt><trkpt lat="43.1359827" lon="12.3257293"><ele>578.6</ele><time>2026-04-10T11:20:42.332Z</time></trkpt><trkpt lat="43.1359751" lon="12.3256096"><ele>581.0</ele><time>2026-04-10T11:20:43.331Z</time></trkpt><trkpt lat="43.13597" lon="12.3254973"><ele>582.1666666666666</ele><time>2026-04-10T11:20:44.316Z</time></trkpt><trkpt lat="43.1359671" lon="12.3253789"><ele>583.3333333333333</ele><time>2026-04-10T11:20:45.318Z</time></trkpt><trkpt lat="43.1359628" lon="12.3252699"><ele>584.5</ele><time>2026-04-10T11:20:46.358Z</time></trkpt><trkpt lat="43.1359522" lon="12.325153"><ele>585.6666666666666</ele><time>2026-04-10T11:20:47.3Z</time></trkpt><trkpt lat="43.1359592" lon="12.3250322"><ele>586.8333333333334</ele><time>2026-04-10T11:20:48.327Z</time></trkpt><trkpt lat="43.1359571" lon="12.324885"><ele>588.0</ele><time>2026-04-10T11:20:49.341Z</time></trkpt><trkpt lat="43.1359428" lon="12.3247337"><ele>587.75</ele><time>2026-04-10T11:20:50.345Z</time></trkpt><trkpt lat="43.1359168" lon="12.324599"><ele>587.5</ele><time>2026-04-10T11:20:51.345Z</time></trkpt><trkpt lat="43.1358677" lon="12.3244577"><ele>587.25</ele><time>2026-04-10T11:20:52.348Z</time></trkpt><trkpt lat="43.135786" lon="12.3243064"><ele>587.0</ele><time>2026-04-10T11:20:53.338Z</time></trkpt><trkpt lat="43.1357013" lon="12.3241794"><ele>587.0</ele><time>2026-04-10T11:20:54.307Z</time></trkpt><trkpt lat="43.1356259" lon="12.3240488"><ele>587.0</ele><time>2026-04-10T11:20:55.332Z</time></trkpt><trkpt lat="43.1355458" lon="12.3239156"><ele>587.0</ele><time>2026-04-10T11:20:56.33Z</time></trkpt><trkpt lat="43.1354694" lon="12.3237846"><ele>587.0</ele><time>2026-04-10T11:20:57.326Z</time></trkpt><trkpt lat="43.1353919" lon="12.3236698"><ele>588.4</ele><time>2026-04-10T11:20:58.325Z</time></trkpt><trkpt lat="43.13531" lon="12.3235643"><ele>589.8000000000001</ele><time>2026-04-10T11:20:59.304Z</time></trkpt><trkpt lat="43.1352322" lon="12.3234773"><ele>591.2</ele><time>2026-04-10T11:21:00.345Z</time></trkpt><trkpt lat="43.1351509" lon="12.3234008"><ele>592.6</ele><time>2026-04-10T11:21:01.335Z</time></trkpt><trkpt lat="43.1350508" lon="12.3233274"><ele>594.0</ele><time>2026-04-10T11:21:02.337Z</time></trkpt><trkpt lat="43.1349448" lon="12.3232497"><ele>594.8</ele><time>2026-04-10T11:21:03.329Z</time></trkpt><trkpt lat="43.1348374" lon="12.3231782"><ele>595.5999999999999</ele><time>2026-04-10T11:21:04.34Z</time></trkpt><trkpt lat="43.1347377" lon="12.3231113"><ele>596.4</ele><time>2026-04-10T11:21:05.359Z</time></trkpt><trkpt lat="43.1346446" lon="12.3230393"><ele>597.1999999999999</ele><time>2026-04-10T11:21:06.352Z</time></trkpt><trkpt lat="43.1345543" lon="12.3229681"><ele>598.0</ele><time>2026-04-10T11:21:07.301Z</time></trkpt><trkpt lat="43.1344642" lon="12.3229013"><ele>598.0</ele><time>2026-04-10T11:21:08.357Z</time></trkpt><trkpt lat="43.1343684" lon="12.3228345"><ele>598.0</ele><time>2026-04-10T11:21:09.309Z</time></trkpt><trkpt lat="43.1342676" lon="12.3228001"><ele>598.0</ele><time>2026-04-10T11:21:10.34Z</time></trkpt><trkpt lat="43.134158" lon="12.322772"><ele>598.0</ele><time>2026-04-10T11:21:11.313Z</time></trkpt><trkpt lat="43.1340622" lon="12.3227346"><ele>598.0</ele><time>2026-04-10T11:21:12.346Z</time></trkpt><trkpt lat="43.1339656" lon="12.3227121"><ele>601.8</ele><time>2026-04-10T11:21:13.368Z</time></trkpt><trkpt lat="43.133888" lon="12.3226527"><ele>605.5999999999999</ele><time>2026-04-10T11:21:14.364Z</time></trkpt><trkpt lat="43.1338202" lon="12.3225669"><ele>609.4000000000001</ele><time>2026-04-10T11:21:15.346Z</time></trkpt><trkpt lat="43.1337591" lon="12.3224643"><ele>613.2</ele><time>2026-04-10T11:21:16.376Z</time></trkpt><trkpt lat="43.1337016" lon="12.3223472"><ele>617.0</ele><time>2026-04-10T11:21:17.327Z</time></trkpt><trkpt lat="43.1336507" lon="12.3222119"><ele>617.2</ele><time>2026-04-10T11:21:18.339Z</time></trkpt><trkpt lat="43.1335954" lon="12.3220824"><ele>617.4000000000001</ele><time>2026-04-10T11:21:19.356Z</time></trkpt><trkpt lat="43.1335411" lon="12.321954"><ele>617.5999999999999</ele><time>2026-04-10T11:21:20.344Z</time></trkpt><trkpt lat="43.133479" lon="12.3218306"><ele>617.8</ele><time>2026-04-10T11:21:21.351Z</time></trkpt><trkpt lat="43.1334105" lon="12.3217153"><ele>618.0</ele><time>2026-04-10T11:21:22.367Z</time></trkpt><trkpt lat="43.1333368" lon="12.3215973"><ele>618.0</ele><time>2026-04-10T11:21:23.345Z</time></trkpt><trkpt lat="43.1332593" lon="12.3214977"><ele>618.0</ele><time>2026-04-10T11:21:24.366Z</time></trkpt><trkpt lat="43.1331945" lon="12.3214039"><ele>618.0</ele><time>2026-04-10T11:21:25.349Z</time></trkpt><trkpt lat="43.1331336" lon="12.3213019"><ele>618.0</ele><time>2026-04-10T11:21:26.351Z</time></trkpt><trkpt lat="43.1330868" lon="12.3212086"><ele>618.0</ele><time>2026-04-10T11:21:27.351Z</time></trkpt><trkpt lat="43.133044" lon="12.3211145"><ele>621.8</ele><time>2026-04-10T11:21:28.339Z</time></trkpt><trkpt lat="43.1330105" lon="12.3210117"><ele>625.5999999999999</ele><time>2026-04-10T11:21:29.3Z</time></trkpt><trkpt lat="43.13299" lon="12.3208958"><ele>629.4000000000001</ele><time>2026-04-10T11:21:30.352Z</time></trkpt><trkpt lat="43.1329814" lon="12.32078"><ele>633.2</ele><time>2026-04-10T11:21:31.355Z</time></trkpt><trkpt lat="43.1330017" lon="12.3206518"><ele>637.0</ele><time>2026-04-10T11:21:32.351Z</time></trkpt><trkpt lat="43.1330565" lon="12.3205189"><ele>637.0</ele><time>2026-04-10T11:21:33.348Z</time></trkpt><trkpt lat="43.1331332" lon="12.3204062"><ele>637.0</ele><time>2026-04-10T11:21:34.321Z</time></trkpt><trkpt lat="43.1331998" lon="12.3203001"><ele>637.0</ele><time>2026-04-10T11:21:35.336Z</time></trkpt><trkpt lat="43.1332694" lon="12.3201922"><ele>637.0</ele><time>2026-04-10T11:21:36.329Z</time></trkpt><trkpt lat="43.1333305" lon="12.3201079"><ele>637.0</ele><time>2026-04-10T11:21:37.34Z</time></trkpt><trkpt lat="43.1333881" lon="12.3200453"><ele>634.8000000000001</ele><time>2026-04-10T11:21:38.336Z</time></trkpt><trkpt lat="43.1334548" lon="12.3199126"><ele>632.6</ele><time>2026-04-10T11:21:40.331Z</time></trkpt><trkpt lat="43.1334809" lon="12.3197841"><ele>630.4000000000001</ele><time>2026-04-10T11:21:42.314Z</time></trkpt><trkpt lat="43.1334976" lon="12.3196285"><ele>628.2</ele><time>2026-04-10T11:21:44.323Z</time></trkpt><trkpt lat="43.1334744" lon="12.3195288"><ele>626.0</ele><time>2026-04-10T11:21:45.346Z</time></trkpt><trkpt lat="43.1334251" lon="12.3194071"><ele>624.8</ele><time>2026-04-10T11:21:46.332Z</time></trkpt><trkpt lat="43.1333642" lon="12.3192712"><ele>623.6</ele><time>2026-04-10T11:21:47.35Z</time></trkpt><trkpt lat="43.1333098" lon="12.3191268"><ele>622.4</ele><time>2026-04-10T11:21:48.326Z</time></trkpt><trkpt lat="43.1332558" lon="12.3189968"><ele>621.2</ele><time>2026-04-10T11:21:49.365Z</time></trkpt><trkpt lat="43.133214" lon="12.3188755"><ele>620.0</ele><time>2026-04-10T11:21:50.332Z</time></trkpt><trkpt lat="43.1331787" lon="12.3187678"><ele>619.8333333333333</ele><time>2026-04-10T11:21:51.342Z</time></trkpt><trkpt lat="43.133149" lon="12.3186559"><ele>619.6666666666666</ele><time>2026-04-10T11:21:52.317Z</time></trkpt><trkpt lat="43.1331082" lon="12.3185468"><ele>619.5</ele><time>2026-04-10T11:21:53.352Z</time></trkpt><trkpt lat="43.1330762" lon="12.3184381"><ele>619.3333333333334</ele><time>2026-04-10T11:21:54.341Z</time></trkpt><trkpt lat="43.1330505" lon="12.3183341"><ele>619.1666666666667</ele><time>2026-04-10T11:21:55.339Z</time></trkpt><trkpt lat="43.1330179" lon="12.3182267"><ele>619.0</ele><time>2026-04-10T11:21:56.334Z</time></trkpt><trkpt lat="43.1329887" lon="12.3181241"><ele>616.5</ele><time>2026-04-10T11:21:57.336Z</time></trkpt><trkpt lat="43.1329692" lon="12.3180145"><ele>614.0</ele><time>2026-04-10T11:21:58.319Z</time></trkpt><trkpt lat="43.1329601" lon="12.3179005"><ele>611.5</ele><time>2026-04-10T11:21:59.306Z</time></trkpt><trkpt lat="43.1329753" lon="12.3177861"><ele>609.0</ele><time>2026-04-10T11:22:00.347Z</time></trkpt><trkpt lat="43.1329999" lon="12.3176599"><ele>606.5</ele><time>2026-04-10T11:22:01.336Z</time></trkpt><trkpt lat="43.132992" lon="12.3175551"><ele>604.0</ele><time>2026-04-10T11:22:02.341Z</time></trkpt><trkpt lat="43.1329778" lon="12.317464"><ele>604.0</ele><time>2026-04-10T11:22:03.33Z</time></trkpt><trkpt lat="43.1329282" lon="12.3173897"><ele>604.0</ele><time>2026-04-10T11:22:04.343Z</time></trkpt><trkpt lat="43.1328518" lon="12.3173197"><ele>604.0</ele><time>2026-04-10T11:22:05.335Z</time></trkpt><trkpt lat="43.1327485" lon="12.3172547"><ele>604.0</ele><time>2026-04-10T11:22:06.352Z</time></trkpt><trkpt lat="43.1326481" lon="12.3171869"><ele>604.0</ele><time>2026-04-10T11:22:07.315Z</time></trkpt><trkpt lat="43.1325548" lon="12.317117"><ele>604.4</ele><time>2026-04-10T11:22:08.36Z</time></trkpt><trkpt lat="43.1324554" lon="12.317042"><ele>604.8</ele><time>2026-04-10T11:22:09.347Z</time></trkpt><trkpt lat="43.1323541" lon="12.3169773"><ele>605.2</ele><time>2026-04-10T11:22:10.316Z</time></trkpt><trkpt lat="43.1322552" lon="12.3169103"><ele>605.6</ele><time>2026-04-10T11:22:11.358Z</time></trkpt><trkpt lat="43.1321673" lon="12.3168514"><ele>606.0</ele><time>2026-04-10T11:22:12.353Z</time></trkpt><trkpt lat="43.1320835" lon="12.3167907"><ele>605.0</ele><time>2026-04-10T11:22:13.331Z</time></trkpt><trkpt lat="43.1320044" lon="12.3167279"><ele>604.0</ele><time>2026-04-10T11:22:14.343Z</time></trkpt><trkpt lat="43.1319366" lon="12.3166464"><ele>603.0</ele><time>2026-04-10T11:22:15.35Z</time></trkpt><trkpt lat="43.131881" lon="12.3165562"><ele>602.0</ele><time>2026-04-10T11:22:16.316Z</time></trkpt><trkpt lat="43.1318351" lon="12.3164388"><ele>601.0</ele><time>2026-04-10T11:22:17.285Z</time></trkpt><trkpt lat="43.1317809" lon="12.3163128"><ele>601.0</ele><time>2026-04-10T11:22:18.299Z</time></trkpt><trkpt lat="43.1317184" lon="12.3161929"><ele>601.0</ele><time>2026-04-10T11:22:19.316Z</time></trkpt><trkpt lat="43.1316418" lon="12.3160809"><ele>601.0</ele><time>2026-04-10T11:22:20.339Z</time></trkpt><trkpt lat="43.1315619" lon="12.3159815"><ele>601.0</ele><time>2026-04-10T11:22:21.32Z</time></trkpt><trkpt lat="43.1315013" lon="12.3158834"><ele>601.0</ele><time>2026-04-10T11:22:22.339Z</time></trkpt><trkpt lat="43.1314447" lon="12.3158031"><ele>599.8333333333334</ele><time>2026-04-10T11:22:23.34Z</time></trkpt><trkpt lat="43.1313803" lon="12.3157256"><ele>598.6666666666667</ele><time>2026-04-10T11:22:24.321Z</time></trkpt><trkpt lat="43.1313148" lon="12.3156734"><ele>597.5</ele><time>2026-04-10T11:22:25.342Z</time></trkpt><trkpt lat="43.1312357" lon="12.3156489"><ele>596.3333333333334</ele><time>2026-04-10T11:22:26.316Z</time></trkpt><trkpt lat="43.131164" lon="12.3156609"><ele>595.1666666666666</ele><time>2026-04-10T11:22:27.305Z</time></trkpt><trkpt lat="43.1310842" lon="12.3157048"><ele>594.0</ele><time>2026-04-10T11:22:28.329Z</time></trkpt><trkpt lat="43.1309987" lon="12.3157341"><ele>594.0</ele><time>2026-04-10T11:22:29.349Z</time></trkpt><trkpt lat="43.1309158" lon="12.3157575"><ele>594.0</ele><time>2026-04-10T11:22:30.347Z</time></trkpt><trkpt lat="43.1308312" lon="12.3157619"><ele>594.0</ele><time>2026-04-10T11:22:31.37Z</time></trkpt><trkpt lat="43.1307473" lon="12.3157641"><ele>594.0</ele><time>2026-04-10T11:22:32.363Z</time></trkpt><trkpt lat="43.130663" lon="12.3157564"><ele>594.0</ele><time>2026-04-10T11:22:33.327Z</time></trkpt><trkpt lat="43.1305733" lon="12.3157423"><ele>594.0</ele><time>2026-04-10T11:22:34.366Z</time></trkpt><trkpt lat="43.1304882" lon="12.3157366"><ele>593.0</ele><time>2026-04-10T11:22:35.344Z</time></trkpt><trkpt lat="43.1304022" lon="12.3157338"><ele>592.0</ele><time>2026-04-10T11:22:36.364Z</time></trkpt><trkpt lat="43.1303162" lon="12.3157285"><ele>591.0</ele><time>2026-04-10T11:22:37.363Z</time></trkpt><trkpt lat="43.1302384" lon="12.315715"><ele>590.0</ele><time>2026-04-10T11:22:38.306Z</time></trkpt><trkpt lat="43.1301576" lon="12.3156999"><ele>589.0</ele><time>2026-04-10T11:22:39.348Z</time></trkpt><trkpt lat="43.1300807" lon="12.3157055"><ele>588.0</ele><time>2026-04-10T11:22:40.354Z</time></trkpt><trkpt lat="43.1300016" lon="12.3157209"><ele>588.0</ele><time>2026-04-10T11:22:41.353Z</time></trkpt><trkpt lat="43.1299219" lon="12.3157432"><ele>588.0</ele><time>2026-04-10T11:22:42.345Z</time></trkpt><trkpt lat="43.1298434" lon="12.3157649"><ele>588.0</ele><time>2026-04-10T11:22:43.348Z</time></trkpt><trkpt lat="43.1297632" lon="12.3157757"><ele>588.0</ele><time>2026-04-10T11:22:44.359Z</time></trkpt><trkpt lat="43.1296923" lon="12.3157529"><ele>588.0</ele><time>2026-04-10T11:22:45.348Z</time></trkpt><trkpt lat="43.1296193" lon="12.3157209"><ele>588.0</ele><time>2026-04-10T11:22:46.348Z</time></trkpt><trkpt lat="43.1295589" lon="12.3156711"><ele>587.0</ele><time>2026-04-10T11:22:47.355Z</time></trkpt><trkpt lat="43.1294994" lon="12.3156278"><ele>586.0</ele><time>2026-04-10T11:22:48.369Z</time></trkpt><trkpt lat="43.1294214" lon="12.315621"><ele>585.0</ele><time>2026-04-10T11:22:49.363Z</time></trkpt><trkpt lat="43.1293403" lon="12.3156213"><ele>584.0</ele><time>2026-04-10T11:22:50.349Z</time></trkpt><trkpt lat="43.1292523" lon="12.3156457"><ele>583.0</ele><time>2026-04-10T11:22:51.342Z</time></trkpt><trkpt lat="43.1291685" lon="12.3156908"><ele>582.0</ele><time>2026-04-10T11:22:52.346Z</time></trkpt><trkpt lat="43.1290807" lon="12.315729"><ele>580.2</ele><time>2026-04-10T11:22:53.341Z</time></trkpt><trkpt lat="43.1289932" lon="12.3157771"><ele>578.4000000000001</ele><time>2026-04-10T11:22:54.36Z</time></trkpt><trkpt lat="43.1289025" lon="12.3158205"><ele>576.5999999999999</ele><time>2026-04-10T11:22:55.342Z</time></trkpt><trkpt lat="43.128817" lon="12.3158528"><ele>574.8</ele><time>2026-04-10T11:22:56.305Z</time></trkpt><trkpt lat="43.1287236" lon="12.3158805"><ele>573.0</ele><time>2026-04-10T11:22:57.368Z</time></trkpt><trkpt lat="43.1286352" lon="12.3158963"><ele>573.0</ele><time>2026-04-10T11:22:58.319Z</time></trkpt><trkpt lat="43.128549" lon="12.3159184"><ele>573.0</ele><time>2026-04-10T11:22:59.357Z</time></trkpt><trkpt lat="43.1284706" lon="12.3159366"><ele>573.0</ele><time>2026-04-10T11:23:00.34Z</time></trkpt><trkpt lat="43.1283983" lon="12.3159548"><ele>573.0</ele><time>2026-04-10T11:23:01.349Z</time></trkpt><trkpt lat="43.1283382" lon="12.315993"><ele>573.0</ele><time>2026-04-10T11:23:02.339Z</time></trkpt><trkpt lat="43.1282836" lon="12.3160372"><ele>573.0</ele><time>2026-04-10T11:23:03.338Z</time></trkpt><trkpt lat="43.1282284" lon="12.3160949"><ele>573.0</ele><time>2026-04-10T11:23:04.35Z</time></trkpt><trkpt lat="43.1281788" lon="12.3161622"><ele>573.0</ele><time>2026-04-10T11:23:05.36Z</time></trkpt><trkpt lat="43.1281284" lon="12.3162277"><ele>573.0</ele><time>2026-04-10T11:23:06.335Z</time></trkpt><trkpt lat="43.1280796" lon="12.3162945"><ele>573.0</ele><time>2026-04-10T11:23:07.349Z</time></trkpt><trkpt lat="43.1279925" lon="12.3163933"><ele>573.0</ele><time>2026-04-10T11:23:09.335Z</time></trkpt><trkpt lat="43.1279067" lon="12.3164845"><ele>573.0</ele><time>2026-04-10T11:23:11.337Z</time></trkpt><trkpt lat="43.1278363" lon="12.3165759"><ele>573.0</ele><time>2026-04-10T11:23:13.341Z</time></trkpt><trkpt lat="43.1277554" lon="12.3166705"><ele>573.0</ele><time>2026-04-10T11:23:15.33Z</time></trkpt><trkpt lat="43.1296923" lon="12.3157529"><ele>574.5</ele><time>2026-04-10T11:22:45.348Z</time></trkpt><trkpt lat="43.1296193" lon="12.3157209"><ele>576.0</ele><time>2026-04-10T11:22:46.348Z</time></trkpt><trkpt lat="43.1295589" lon="12.3156711"><ele>577.5</ele><time>2026-04-10T11:22:47.355Z</time></trkpt><trkpt lat="43.1294994" lon="12.3156278"><ele>579.0</ele><time>2026-04-10T11:22:48.369Z</time></trkpt><trkpt lat="43.1294214" lon="12.315621"><ele>580.5</ele><time>2026-04-10T11:22:49.363Z</time></trkpt><trkpt lat="43.1293403" lon="12.3156213"><ele>582.0</ele><time>2026-04-10T11:22:50.349Z</time></trkpt><trkpt lat="43.1292523" lon="12.3156457"><ele>582.0</ele><time>2026-04-10T11:22:51.342Z</time></trkpt><trkpt lat="43.1291685" lon="12.3156908"><ele>582.0</ele><time>2026-04-10T11:22:52.346Z</time></trkpt><trkpt lat="43.1290807" lon="12.315729"><ele>582.0</ele><time>2026-04-10T11:22:53.341Z</time></trkpt><trkpt lat="43.1289932" lon="12.3157771"><ele>582.0</ele><time>2026-04-10T11:22:54.36Z</time></trkpt><trkpt lat="43.1289025" lon="12.3158205"><ele>582.0</ele><time>2026-04-10T11:22:55.342Z</time></trkpt><trkpt lat="43.128817" lon="12.3158528"><ele>580.5</ele><time>2026-04-10T11:22:56.305Z</time></trkpt><trkpt lat="43.1287236" lon="12.3158805"><ele>579.0</ele><time>2026-04-10T11:22:57.368Z</time></trkpt><trkpt lat="43.1286352" lon="12.3158963"><ele>577.5</ele><time>2026-04-10T11:22:58.319Z</time></trkpt><trkpt lat="43.128549" lon="12.3159184"><ele>576.0</ele><time>2026-04-10T11:22:59.357Z</time></trkpt><trkpt lat="43.1284706" lon="12.3159366"><ele>574.5</ele><time>2026-04-10T11:23:00.34Z</time></trkpt><trkpt lat="43.1283983" lon="12.3159548"><ele>573.0</ele><time>2026-04-10T11:23:01.349Z</time></trkpt><trkpt lat="43.1283382" lon="12.315993"><ele>573.0</ele><time>2026-04-10T11:23:02.339Z</time></trkpt><trkpt lat="43.1282836" lon="12.3160372"><ele>573.0</ele><time>2026-04-10T11:23:03.338Z</time></trkpt><trkpt lat="43.1282284" lon="12.3160949"><ele>573.0</ele><time>2026-04-10T11:23:04.35Z</time></trkpt><trkpt lat="43.1281788" lon="12.3161622"><ele>573.0</ele><time>2026-04-10T11:23:05.36Z</time></trkpt><trkpt lat="43.1281284" lon="12.3162277"><ele>573.0</ele><time>2026-04-10T11:23:06.335Z</time></trkpt><trkpt lat="43.1280796" lon="12.3162945"><ele>573.0</ele><time>2026-04-10T11:23:07.349Z</time></trkpt><trkpt lat="43.1279925" lon="12.3163933"><ele>573.0</ele><time>2026-04-10T11:23:09.335Z</time></trkpt><trkpt lat="43.1279067" lon="12.3164845"><ele>573.0</ele><time>2026-04-10T11:23:11.337Z</time></trkpt><trkpt lat="43.1278363" lon="12.3165759"><ele>573.0</ele><time>2026-04-10T11:23:13.341Z</time></trkpt><trkpt lat="43.1277554" lon="12.3166705"><ele>573.0</ele><time>2026-04-10T11:23:15.33Z</time></trkpt><trkpt lat="43.127684" lon="12.3167617"><ele>573.0</ele><time>2026-04-10T11:23:17.335Z</time></trkpt><trkpt lat="43.1276435" lon="12.3168853"><ele>573.0</ele><time>2026-04-10T11:23:19.334Z</time></trkpt><trkpt lat="43.1276022" lon="12.3169737"><ele>573.0</ele><time>2026-04-10T11:23:21.349Z</time></trkpt><trkpt lat="43.1275096" lon="12.3170532"><ele>573.0</ele><time>2026-04-10T11:23:23.324Z</time></trkpt><trkpt lat="43.127427" lon="12.3171828"><ele>573.0</ele><time>2026-04-10T11:23:25.326Z</time></trkpt><trkpt lat="43.1273903" lon="12.3172618"><ele>573.0</ele><time>2026-04-10T11:23:26.338Z</time></trkpt><trkpt lat="43.1273242" lon="12.3174076"><ele>573.1666666666666</ele><time>2026-04-10T11:23:28.291Z</time></trkpt><trkpt lat="43.1272372" lon="12.3175448"><ele>573.3333333333334</ele><time>2026-04-10T11:23:30.33Z</time></trkpt><trkpt lat="43.1271992" lon="12.3176212"><ele>573.5</ele><time>2026-04-10T11:23:31.322Z</time></trkpt><trkpt lat="43.1271607" lon="12.3177015"><ele>573.6666666666667</ele><time>2026-04-10T11:23:32.327Z</time></trkpt><trkpt lat="43.1271198" lon="12.3177779"><ele>573.8333333333334</ele><time>2026-04-10T11:23:33.315Z</time></trkpt><trkpt lat="43.1270729" lon="12.3178537"><ele>574.0</ele><time>2026-04-10T11:23:34.341Z</time></trkpt><trkpt lat="43.1270287" lon="12.3179254"><ele>574.0</ele><time>2026-04-10T11:23:35.337Z</time></trkpt><trkpt lat="43.1269849" lon="12.3179887"><ele>574.0</ele><time>2026-04-10T11:23:36.346Z</time></trkpt><trkpt lat="43.1269453" lon="12.318058"><ele>574.0</ele><time>2026-04-10T11:23:37.282Z</time></trkpt><trkpt lat="43.1268803" lon="12.3182081"><ele>574.0</ele><time>2026-04-10T11:23:39.338Z</time></trkpt><trkpt lat="43.1268455" lon="12.3182891"><ele>574.0</ele><time>2026-04-10T11:23:40.323Z</time></trkpt><trkpt lat="43.1267951" lon="12.3183878"><ele>574.0</ele><time>2026-04-10T11:23:42.294Z</time></trkpt><trkpt lat="43.1267862" lon="12.3184845"><ele>573.4</ele><time>2026-04-10T11:23:44.335Z</time></trkpt><trkpt lat="43.1267619" lon="12.3186502"><ele>572.8</ele><time>2026-04-10T11:23:46.319Z</time></trkpt><trkpt lat="43.126689" lon="12.3187828"><ele>572.2</ele><time>2026-04-10T11:23:48.336Z</time></trkpt><trkpt lat="43.1266302" lon="12.3188357"><ele>571.6</ele><time>2026-04-10T11:23:49.327Z</time></trkpt><trkpt lat="43.1265303" lon="12.3188886"><ele>571.0</ele><time>2026-04-10T11:23:51.342Z</time></trkpt><trkpt lat="43.1264593" lon="12.3189447"><ele>566.6</ele><time>2026-04-10T11:23:52.338Z</time></trkpt><trkpt lat="43.1264016" lon="12.3190313"><ele>562.2</ele><time>2026-04-10T11:23:53.32Z</time></trkpt><trkpt lat="43.1263391" lon="12.3191191"><ele>557.8</ele><time>2026-04-10T11:23:54.327Z</time></trkpt><trkpt lat="43.1262756" lon="12.3192353"><ele>553.4</ele><time>2026-04-10T11:23:55.345Z</time></trkpt><trkpt lat="43.1262087" lon="12.3193676"><ele>549.0</ele><time>2026-04-10T11:23:56.322Z</time></trkpt><trkpt lat="43.1261532" lon="12.3194563"><ele>549.0</ele><time>2026-04-10T11:23:57.312Z</time></trkpt><trkpt lat="43.1260917" lon="12.319534"><ele>549.0</ele><time>2026-04-10T11:23:58.341Z</time></trkpt><trkpt lat="43.1260319" lon="12.3196096"><ele>549.0</ele><time>2026-04-10T11:23:59.308Z</time></trkpt><trkpt lat="43.125973" lon="12.3196729"><ele>549.0</ele><time>2026-04-10T11:24:00.322Z</time></trkpt><trkpt lat="43.1259145" lon="12.3197396"><ele>549.0</ele><time>2026-04-10T11:24:01.305Z</time></trkpt><trkpt lat="43.1258531" lon="12.3198023"><ele>549.0</ele><time>2026-04-10T11:24:02.32Z</time></trkpt><trkpt lat="43.1257894" lon="12.3198902"><ele>547.3333333333334</ele><time>2026-04-10T11:24:03.315Z</time></trkpt><trkpt lat="43.1257314" lon="12.3199766"><ele>545.6666666666666</ele><time>2026-04-10T11:24:04.334Z</time></trkpt><trkpt lat="43.1256725" lon="12.3200595"><ele>544.0</ele><time>2026-04-10T11:24:05.333Z</time></trkpt><trkpt lat="43.1256156" lon="12.3201221"><ele>542.3333333333333</ele><time>2026-04-10T11:24:06.31Z</time></trkpt><trkpt lat="43.1255572" lon="12.3201803"><ele>540.6666666666666</ele><time>2026-04-10T11:24:07.322Z</time></trkpt><trkpt lat="43.1254985" lon="12.320239"><ele>539.0</ele><time>2026-04-10T11:24:08.332Z</time></trkpt><trkpt lat="43.1254454" lon="12.3203032"><ele>537.0</ele><time>2026-04-10T11:24:09.334Z</time></trkpt><trkpt lat="43.1253864" lon="12.3203594"><ele>535.0</ele><time>2026-04-10T11:24:10.334Z</time></trkpt><trkpt lat="43.1253248" lon="12.3204223"><ele>533.0</ele><time>2026-04-10T11:24:11.341Z</time></trkpt><trkpt lat="43.1252595" lon="12.3204922"><ele>531.0</ele><time>2026-04-10T11:24:12.323Z</time></trkpt><trkpt lat="43.1251967" lon="12.3205613"><ele>529.0</ele><time>2026-04-10T11:24:13.35Z</time></trkpt><trkpt lat="43.1251508" lon="12.3206394"><ele>527.0</ele><time>2026-04-10T11:24:14.329Z</time></trkpt><trkpt lat="43.1250986" lon="12.3207274"><ele>525.6666666666666</ele><time>2026-04-10T11:24:15.332Z</time></trkpt><trkpt lat="43.1250439" lon="12.3208138"><ele>524.3333333333333</ele><time>2026-04-10T11:24:16.333Z</time></trkpt><trkpt lat="43.1249973" lon="12.320899"><ele>523.0</ele><time>2026-04-10T11:24:17.33Z</time></trkpt><trkpt lat="43.1249557" lon="12.320987"><ele>521.6666666666666</ele><time>2026-04-10T11:24:18.33Z</time></trkpt><trkpt lat="43.124915" lon="12.3210744"><ele>520.3333333333334</ele><time>2026-04-10T11:24:19.331Z</time></trkpt><trkpt lat="43.1248794" lon="12.3211556"><ele>519.0</ele><time>2026-04-10T11:24:20.332Z</time></trkpt><trkpt lat="43.1248436" lon="12.3212382"><ele>517.5</ele><time>2026-04-10T11:24:21.336Z</time></trkpt><trkpt lat="43.1247786" lon="12.3213816"><ele>516.0</ele><time>2026-04-10T11:24:23.325Z</time></trkpt><trkpt lat="43.1247446" lon="12.3214901"><ele>514.5</ele><time>2026-04-10T11:24:25.326Z</time></trkpt><trkpt lat="43.1246751" lon="12.3215216"><ele>513.0</ele><time>2026-04-10T11:24:28.339Z</time></trkpt><trkpt lat="43.1246122" lon="12.3214794"><ele>511.5</ele><time>2026-04-10T11:24:29.285Z</time></trkpt><trkpt lat="43.1245435" lon="12.3214392"><ele>510.0</ele><time>2026-04-10T11:24:30.322Z</time></trkpt><trkpt lat="43.1244786" lon="12.321419"><ele>510.0</ele><time>2026-04-10T11:24:31.322Z</time></trkpt><trkpt lat="43.1243971" lon="12.321449"><ele>510.0</ele><time>2026-04-10T11:24:32.355Z</time></trkpt><trkpt lat="43.1243276" lon="12.3214898"><ele>510.0</ele><time>2026-04-10T11:24:33.339Z</time></trkpt><trkpt lat="43.1242601" lon="12.3215379"><ele>510.0</ele><time>2026-04-10T11:24:34.34Z</time></trkpt><trkpt lat="43.1241975" lon="12.3215875"><ele>510.0</ele><time>2026-04-10T11:24:35.323Z</time></trkpt><trkpt lat="43.1241296" lon="12.3216427"><ele>510.0</ele><time>2026-04-10T11:24:36.326Z</time></trkpt><trkpt lat="43.1240583" lon="12.3217069"><ele>506.5</ele><time>2026-04-10T11:24:37.329Z</time></trkpt><trkpt lat="43.1239855" lon="12.3217773"><ele>503.0</ele><time>2026-04-10T11:24:38.323Z</time></trkpt><trkpt lat="43.1239119" lon="12.3218538"><ele>499.5</ele><time>2026-04-10T11:24:39.342Z</time></trkpt><trkpt lat="43.1238495" lon="12.3219394"><ele>496.0</ele><time>2026-04-10T11:24:40.33Z</time></trkpt><trkpt lat="43.1237849" lon="12.3220079"><ele>492.5</ele><time>2026-04-10T11:24:41.352Z</time></trkpt><trkpt lat="43.1237213" lon="12.3220699"><ele>489.0</ele><time>2026-04-10T11:24:42.3Z</time></trkpt><trkpt lat="43.1236519" lon="12.3221349"><ele>489.0</ele><time>2026-04-10T11:24:43.332Z</time></trkpt><trkpt lat="43.1235733" lon="12.3221918"><ele>489.0</ele><time>2026-04-10T11:24:44.342Z</time></trkpt><trkpt lat="43.1234857" lon="12.3222518"><ele>489.0</ele><time>2026-04-10T11:24:45.289Z</time></trkpt><trkpt lat="43.1234028" lon="12.3223188"><ele>489.0</ele><time>2026-04-10T11:24:46.345Z</time></trkpt><trkpt lat="43.1233136" lon="12.3223833"><ele>489.0</ele><time>2026-04-10T11:24:47.329Z</time></trkpt><trkpt lat="43.1232314" lon="12.3224428"><ele>489.4</ele><time>2026-04-10T11:24:48.31Z</time></trkpt><trkpt lat="43.123158" lon="12.3225006"><ele>489.79999999999995</ele><time>2026-04-10T11:24:49.333Z</time></trkpt><trkpt lat="43.1230944" lon="12.3225512"><ele>490.20000000000005</ele><time>2026-04-10T11:24:50.347Z</time></trkpt><trkpt lat="43.1230355" lon="12.3225999"><ele>490.6</ele><time>2026-04-10T11:24:51.357Z</time></trkpt><trkpt lat="43.1229582" lon="12.3227334"><ele>491.0</ele><time>2026-04-10T11:24:53.35Z</time></trkpt><trkpt lat="43.1228927" lon="12.3228564"><ele>491.0</ele><time>2026-04-10T11:24:55.306Z</time></trkpt><trkpt lat="43.1228652" lon="12.323014"><ele>491.0</ele><time>2026-04-10T11:24:57.346Z</time></trkpt><trkpt lat="43.1228261" lon="12.3231659"><ele>491.0</ele><time>2026-04-10T11:24:59.337Z</time></trkpt><trkpt lat="43.122789" lon="12.3232475"><ele>491.0</ele><time>2026-04-10T11:25:00.329Z</time></trkpt><trkpt lat="43.1227542" lon="12.3233261"><ele>491.0</ele><time>2026-04-10T11:25:01.333Z</time></trkpt><trkpt lat="43.1226999" lon="12.323461"><ele>491.25</ele><time>2026-04-10T11:25:03.287Z</time></trkpt><trkpt lat="43.1226398" lon="12.3235956"><ele>491.5</ele><time>2026-04-10T11:25:05.334Z</time></trkpt><trkpt lat="43.1225539" lon="12.3237143"><ele>491.75</ele><time>2026-04-10T11:25:07.33Z</time></trkpt><trkpt lat="43.122481" lon="12.3238447"><ele>492.0</ele><time>2026-04-10T11:25:09.336Z</time></trkpt><trkpt lat="43.1223984" lon="12.3239151"><ele>489.0</ele><time>2026-04-10T11:25:11.35Z</time></trkpt><trkpt lat="43.1223138" lon="12.3239811"><ele>486.00000000000006</ele><time>2026-04-10T11:25:13.35Z</time></trkpt><trkpt lat="43.1222302" lon="12.3240973"><ele>483.00000000000006</ele><time>2026-04-10T11:25:15.347Z</time></trkpt><trkpt lat="43.122185" lon="12.3241577"><ele>480.0</ele><time>2026-04-10T11:25:16.335Z</time></trkpt><trkpt lat="43.1221028" lon="12.3242602"><ele>477.0</ele><time>2026-04-10T11:25:18.336Z</time></trkpt><trkpt lat="43.1220384" lon="12.3244195"><ele>477.0</ele><time>2026-04-10T11:25:20.335Z</time></trkpt><trkpt lat="43.1220014" lon="12.3245728"><ele>477.00000000000006</ele><time>2026-04-10T11:25:22.332Z</time></trkpt><trkpt lat="43.1219734" lon="12.324733"><ele>477.00000000000006</ele><time>2026-04-10T11:25:24.333Z</time></trkpt><trkpt lat="43.121966" lon="12.3248207"><ele>477.0</ele><time>2026-04-10T11:25:25.333Z</time></trkpt><trkpt lat="43.1219649" lon="12.3249971"><ele>477.0</ele><time>2026-04-10T11:25:27.349Z</time></trkpt><trkpt lat="43.1219694" lon="12.3250839"><ele>474.3333333333333</ele><time>2026-04-10T11:25:28.322Z</time></trkpt><trkpt lat="43.1219951" lon="12.325232"><ele>471.66666666666663</ele><time>2026-04-10T11:25:30.311Z</time></trkpt><trkpt lat="43.1220295" lon="12.3253055"><ele>469.0</ele><time>2026-04-10T11:25:31.345Z</time></trkpt><trkpt lat="43.1220806" lon="12.3253805"><ele>466.3333333333333</ele><time>2026-04-10T11:25:32.332Z</time></trkpt><trkpt lat="43.1221241" lon="12.3254496"><ele>463.66666666666663</ele><time>2026-04-10T11:25:33.35Z</time></trkpt><trkpt lat="43.1221801" lon="12.3255066"><ele>461.0</ele><time>2026-04-10T11:25:34.276Z</time></trkpt><trkpt lat="43.1222314" lon="12.3255662"><ele>459.6</ele><time>2026-04-10T11:25:35.334Z</time></trkpt><trkpt lat="43.1223312" lon="12.325653"><ele>458.20000000000005</ele><time>2026-04-10T11:25:37.352Z</time></trkpt><trkpt lat="43.1223834" lon="12.3257064"><ele>456.79999999999995</ele><time>2026-04-10T11:25:38.344Z</time></trkpt><trkpt lat="43.1224835" lon="12.3257792"><ele>455.4</ele><time>2026-04-10T11:25:40.347Z</time></trkpt><trkpt lat="43.1224163" lon="12.3258325"><ele>454.0</ele><time>2026-04-10T11:25:44.327Z</time></trkpt><trkpt lat="43.1223237" lon="12.3258921"><ele>454.00000000000006</ele><time>2026-04-10T11:25:47.317Z</time></trkpt><trkpt lat="43.1222664" lon="12.3259375"><ele>454.0</ele><time>2026-04-10T11:25:48.341Z</time></trkpt><trkpt lat="43.1221953" lon="12.3259964"><ele>454.0</ele><time>2026-04-10T11:25:49.276Z</time></trkpt><trkpt lat="43.122125" lon="12.3260442"><ele>454.0</ele><time>2026-04-10T11:25:50.321Z</time></trkpt><trkpt lat="43.1220417" lon="12.3260852"><ele>454.00000000000006</ele><time>2026-04-10T11:25:51.338Z</time></trkpt><trkpt lat="43.1219727" lon="12.3261208"><ele>454.0</ele><time>2026-04-10T11:25:52.304Z</time></trkpt><trkpt lat="43.1219024" lon="12.3261588"><ele>454.0</ele><time>2026-04-10T11:25:53.318Z</time></trkpt><trkpt lat="43.1218364" lon="12.3261946"><ele>454.00000000000006</ele><time>2026-04-10T11:25:54.341Z</time></trkpt><trkpt lat="43.1217796" lon="12.3262394"><ele>454.0</ele><time>2026-04-10T11:25:55.328Z</time></trkpt><trkpt lat="43.1217212" lon="12.3262816"><ele>454.0</ele><time>2026-04-10T11:25:56.324Z</time></trkpt><trkpt lat="43.1216604" lon="12.3263428"><ele>454.00000000000006</ele><time>2026-04-10T11:25:57.321Z</time></trkpt><trkpt lat="43.1216099" lon="12.3264097"><ele>454.0</ele><time>2026-04-10T11:25:58.282Z</time></trkpt><trkpt lat="43.1215681" lon="12.3264836"><ele>454.0</ele><time>2026-04-10T11:25:59.279Z</time></trkpt><trkpt lat="43.1215164" lon="12.3266516"><ele>451.00000000000006</ele><time>2026-04-10T11:26:01.334Z</time></trkpt><trkpt lat="43.1214998" lon="12.3267679"><ele>448.0</ele><time>2026-04-10T11:26:02.354Z</time></trkpt><trkpt lat="43.1214904" lon="12.3268734"><ele>445.0</ele><time>2026-04-10T11:26:03.327Z</time></trkpt><trkpt lat="43.1214788" lon="12.3269653"><ele>442.0</ele><time>2026-04-10T11:26:04.295Z</time></trkpt><trkpt lat="43.1214011" lon="12.3270734"><ele>439.00000000000006</ele><time>2026-04-10T11:26:06.342Z</time></trkpt><trkpt lat="43.1213507" lon="12.3271255"><ele>436.0</ele><time>2026-04-10T11:26:07.343Z</time></trkpt><trkpt lat="43.1212482" lon="12.3272258"><ele>438.6666666666667</ele><time>2026-04-10T11:26:09.33Z</time></trkpt><trkpt lat="43.1211885" lon="12.3272743"><ele>441.33333333333337</ele><time>2026-04-10T11:26:10.33Z</time></trkpt><trkpt lat="43.121093" lon="12.3274027"><ele>444.0</ele><time>2026-04-10T11:26:12.334Z</time></trkpt><trkpt lat="43.1210364" lon="12.3274844"><ele>446.66666666666663</ele><time>2026-04-10T11:26:13.348Z</time></trkpt><trkpt lat="43.1209784" lon="12.3275654"><ele>449.3333333333333</ele><time>2026-04-10T11:26:14.35Z</time></trkpt><trkpt lat="43.1209322" lon="12.3276403"><ele>452.0</ele><time>2026-04-10T11:26:15.358Z</time></trkpt><trkpt lat="43.1208786" lon="12.3276868"><ele>451.99999999999994</ele><time>2026-04-10T11:26:16.328Z</time></trkpt><trkpt lat="43.1208227" lon="12.3277286"><ele>452.0</ele><time>2026-04-10T11:26:17.321Z</time></trkpt><trkpt lat="43.1207561" lon="12.327769"><ele>452.0</ele><time>2026-04-10T11:26:18.331Z</time></trkpt><trkpt lat="43.1206835" lon="12.3278045"><ele>452.0</ele><time>2026-04-10T11:26:19.326Z</time></trkpt><trkpt lat="43.1205685" lon="12.3278609"><ele>451.99999999999994</ele><time>2026-04-10T11:26:21.307Z</time></trkpt><trkpt lat="43.1205095" lon="12.3279356"><ele>452.0</ele><time>2026-04-10T11:26:22.331Z</time></trkpt><trkpt lat="43.1204529" lon="12.3280146"><ele>452.49999999999994</ele><time>2026-04-10T11:26:23.337Z</time></trkpt><trkpt lat="43.120394" lon="12.3280623"><ele>453.0</ele><time>2026-04-10T11:26:24.345Z</time></trkpt><trkpt lat="43.1203147" lon="12.3280951"><ele>453.5</ele><time>2026-04-10T11:26:25.322Z</time></trkpt><trkpt lat="43.1202452" lon="12.3281526"><ele>454.0</ele><time>2026-04-10T11:26:26.333Z</time></trkpt><trkpt lat="43.1201866" lon="12.3282305"><ele>454.49999999999994</ele><time>2026-04-10T11:26:27.323Z</time></trkpt><trkpt lat="43.1201199" lon="12.3283184"><ele>455.0</ele><time>2026-04-10T11:26:28.345Z</time></trkpt><trkpt lat="43.120057" lon="12.3284128"><ele>455.0</ele><time>2026-04-10T11:26:29.346Z</time></trkpt><trkpt lat="43.1200283" lon="12.3285088"><ele>455.0</ele><time>2026-04-10T11:26:30.322Z</time></trkpt><trkpt lat="43.120038" lon="12.3285981"><ele>455.0</ele><time>2026-04-10T11:26:31.335Z</time></trkpt><trkpt lat="43.1200908" lon="12.3287078"><ele>455.0</ele><time>2026-04-10T11:26:33.34Z</time></trkpt><trkpt lat="43.1201199" lon="12.3287905"><ele>455.0</ele><time>2026-04-10T11:26:35.321Z</time></trkpt><trkpt lat="43.1200837" lon="12.3288692"><ele>455.0</ele><time>2026-04-10T11:26:37.334Z</time></trkpt><trkpt lat="43.1200418" lon="12.3289363"><ele>455.0</ele><time>2026-04-10T11:26:38.343Z</time></trkpt><trkpt lat="43.1199348" lon="12.3289842"><ele>453.49999999999994</ele><time>2026-04-10T11:26:40.339Z</time></trkpt><trkpt lat="43.1198548" lon="12.3289741"><ele>452.0</ele><time>2026-04-10T11:26:41.289Z</time></trkpt><trkpt lat="43.1197665" lon="12.3289657"><ele>450.5</ele><time>2026-04-10T11:26:42.326Z</time></trkpt><trkpt lat="43.119696" lon="12.328971"><ele>449.0</ele><time>2026-04-10T11:26:43.345Z</time></trkpt><trkpt lat="43.1196308" lon="12.3289995"><ele>447.49999999999994</ele><time>2026-04-10T11:26:44.299Z</time></trkpt><trkpt lat="43.1195712" lon="12.3290275"><ele>446.0</ele><time>2026-04-10T11:26:45.322Z</time></trkpt><trkpt lat="43.1194681" lon="12.3290878"><ele>446.0</ele><time>2026-04-10T11:26:47.335Z</time></trkpt><trkpt lat="43.1193774" lon="12.3291769"><ele>446.0</ele><time>2026-04-10T11:26:49.333Z</time></trkpt><trkpt lat="43.1192953" lon="12.3292549"><ele>446.0</ele><time>2026-04-10T11:26:51.305Z</time></trkpt><trkpt lat="43.1192287" lon="12.3293606"><ele>446.0</ele><time>2026-04-10T11:26:53.305Z</time></trkpt><trkpt lat="43.119187" lon="12.329476"><ele>446.0</ele><time>2026-04-10T11:26:55.349Z</time></trkpt><trkpt lat="43.1191109" lon="12.3295895"><ele>443.3333333333333</ele><time>2026-04-10T11:26:57.3Z</time></trkpt><trkpt lat="43.1190542" lon="12.3296284"><ele>440.66666666666663</ele><time>2026-04-10T11:26:58.331Z</time></trkpt><trkpt lat="43.1189595" lon="12.3296542"><ele>438.0</ele><time>2026-04-10T11:27:00.34Z</time></trkpt><trkpt lat="43.1188892" lon="12.329675"><ele>435.33333333333337</ele><time>2026-04-10T11:27:02.321Z</time></trkpt><trkpt lat="43.118816" lon="12.3297014"><ele>432.6666666666667</ele><time>2026-04-10T11:27:05.33Z</time></trkpt><trkpt lat="43.1188069" lon="12.3297948"><ele>430.0</ele><time>2026-04-10T11:27:09.315Z</time></trkpt><trkpt lat="43.1187868" lon="12.3296877"><ele>430.0</ele><time>2026-04-10T11:27:15.326Z</time></trkpt><trkpt lat="43.1188859" lon="12.3296325"><ele>430.0</ele><time>2026-04-10T11:27:18.343Z</time></trkpt><trkpt lat="43.1189826" lon="12.3296194"><ele>430.0</ele><time>2026-04-10T11:27:20.306Z</time></trkpt><trkpt lat="43.1190793" lon="12.3296048"><ele>430.0</ele><time>2026-04-10T11:27:22.336Z</time></trkpt><trkpt lat="43.1191759" lon="12.3295222"><ele>430.0</ele><time>2026-04-10T11:27:24.324Z</time></trkpt><trkpt lat="43.1192223" lon="12.3293926"><ele>433.2</ele><time>2026-04-10T11:27:26.328Z</time></trkpt><trkpt lat="43.1192762" lon="12.3292815"><ele>436.4</ele><time>2026-04-10T11:27:28.335Z</time></trkpt><trkpt lat="43.1193631" lon="12.3291757"><ele>439.6</ele><time>2026-04-10T11:27:30.337Z</time></trkpt><trkpt lat="43.1194804" lon="12.329082"><ele>442.8</ele><time>2026-04-10T11:27:32.307Z</time></trkpt><trkpt lat="43.1195545" lon="12.3290354"><ele>446.0</ele><time>2026-04-10T11:27:33.326Z</time></trkpt><trkpt lat="43.1196328" lon="12.329003"><ele>446.0</ele><time>2026-04-10T11:27:34.343Z</time></trkpt><trkpt lat="43.1197385" lon="12.3289855"><ele>446.0</ele><time>2026-04-10T11:27:35.331Z</time></trkpt><trkpt lat="43.1198525" lon="12.3289852"><ele>446.0</ele><time>2026-04-10T11:27:36.341Z</time></trkpt><trkpt lat="43.1199452" lon="12.328998"><ele>446.0</ele><time>2026-04-10T11:27:37.323Z</time></trkpt><trkpt lat="43.1200134" lon="12.329004"><ele>446.0</ele><time>2026-04-10T11:27:38.336Z</time></trkpt><trkpt lat="43.1201001" lon="12.3289187"><ele>447.49999999999994</ele><time>2026-04-10T11:27:40.347Z</time></trkpt><trkpt lat="43.1201372" lon="12.32882"><ele>449.0</ele><time>2026-04-10T11:27:42.327Z</time></trkpt><trkpt lat="43.1200807" lon="12.3287198"><ele>450.5</ele><time>2026-04-10T11:27:44.35Z</time></trkpt><trkpt lat="43.1200173" lon="12.3286011"><ele>452.0</ele><time>2026-04-10T11:27:46.328Z</time></trkpt><trkpt lat="43.1200299" lon="12.3284637"><ele>453.49999999999994</ele><time>2026-04-10T11:27:48.338Z</time></trkpt><trkpt lat="43.1200758" lon="12.3283991"><ele>455.0</ele><time>2026-04-10T11:27:49.301Z</time></trkpt><trkpt lat="43.1201361" lon="12.3283435"><ele>454.99999999999994</ele><time>2026-04-10T11:27:50.335Z</time></trkpt><trkpt lat="43.120247" lon="12.3282469"><ele>455.0</ele><time>2026-04-10T11:27:52.332Z</time></trkpt><trkpt lat="43.1203098" lon="12.328205"><ele>455.0</ele><time>2026-04-10T11:27:53.291Z</time></trkpt><trkpt lat="43.1203728" lon="12.3281599"><ele>455.0</ele><time>2026-04-10T11:27:54.324Z</time></trkpt><trkpt lat="43.1204298" lon="12.328119"><ele>454.99999999999994</ele><time>2026-04-10T11:27:55.329Z</time></trkpt><trkpt lat="43.1205224" lon="12.3280538"><ele>455.0</ele><time>2026-04-10T11:27:57.33Z</time></trkpt><trkpt lat="43.1206181" lon="12.3279548"><ele>454.49999999999994</ele><time>2026-04-10T11:27:59.33Z</time></trkpt><trkpt lat="43.1207341" lon="12.3278712"><ele>454.0</ele><time>2026-04-10T11:28:01.304Z</time></trkpt><trkpt lat="43.1207924" lon="12.3278318"><ele>453.5</ele><time>2026-04-10T11:28:02.327Z</time></trkpt><trkpt lat="43.1208485" lon="12.3277848"><ele>453.0</ele><time>2026-04-10T11:28:03.327Z</time></trkpt><trkpt lat="43.1209038" lon="12.3277257"><ele>452.49999999999994</ele><time>2026-04-10T11:28:04.32Z</time></trkpt><trkpt lat="43.1209503" lon="12.3276655"><ele>452.0</ele><time>2026-04-10T11:28:05.331Z</time></trkpt><trkpt lat="43.1210037" lon="12.3275962"><ele>452.0</ele><time>2026-04-10T11:28:25.298Z</time></trkpt><trkpt lat="43.1209793" lon="12.3275128"><ele>452.0</ele><time>2026-04-10T11:29:43.264Z</time></trkpt><trkpt lat="43.1210134" lon="12.3275901"><ele>452.0</ele><time>2026-04-10T11:32:02.334Z</time></trkpt><trkpt lat="43.1209865" lon="12.3275058"><ele>452.0</ele><time>2026-04-10T11:32:34.338Z</time></trkpt><trkpt lat="43.121055" lon="12.3274532"><ele>452.0</ele><time>2026-04-10T11:36:46.299Z</time></trkpt><trkpt lat="43.1211129" lon="12.3273818"><ele>452.0</ele><time>2026-04-10T11:36:48.326Z</time></trkpt><trkpt lat="43.121175" lon="12.3273312"><ele>452.0</ele><time>2026-04-10T11:36:50.32Z</time></trkpt><trkpt lat="43.1212614" lon="12.3272545"><ele>448.8</ele><time>2026-04-10T11:36:52.325Z</time></trkpt><trkpt lat="43.1213361" lon="12.3272087"><ele>445.6</ele><time>2026-04-10T11:36:54.347Z</time></trkpt><trkpt lat="43.1214212" lon="12.3270885"><ele>442.40000000000003</ele><time>2026-04-10T11:36:56.349Z</time></trkpt><trkpt lat="43.1214752" lon="12.3269956"><ele>439.20000000000005</ele><time>2026-04-10T11:36:58.341Z</time></trkpt><trkpt lat="43.1214977" lon="12.3268705"><ele>436.0</ele><time>2026-04-10T11:37:00.31Z</time></trkpt><trkpt lat="43.1215029" lon="12.3267523"><ele>436.0</ele><time>2026-04-10T11:37:02.317Z</time></trkpt><trkpt lat="43.1215292" lon="12.3266395"><ele>436.0</ele><time>2026-04-10T11:37:04.329Z</time></trkpt><trkpt lat="43.1215945" lon="12.326505"><ele>436.0</ele><time>2026-04-10T11:37:06.344Z</time></trkpt><trkpt lat="43.1216631" lon="12.3263725"><ele>436.0</ele><time>2026-04-10T11:37:08.328Z</time></trkpt><trkpt lat="43.1217445" lon="12.3262789"><ele>436.0</ele><time>2026-04-10T11:37:10.352Z</time></trkpt><trkpt lat="43.1218579" lon="12.3262113"><ele>439.00000000000006</ele><time>2026-04-10T11:37:12.324Z</time></trkpt><trkpt lat="43.1219282" lon="12.3261603"><ele>442.0</ele><time>2026-04-10T11:37:13.325Z</time></trkpt><trkpt lat="43.1220012" lon="12.3261251"><ele>445.0</ele><time>2026-04-10T11:37:14.324Z</time></trkpt><trkpt lat="43.1220774" lon="12.3260806"><ele>448.0</ele><time>2026-04-10T11:37:15.335Z</time></trkpt><trkpt lat="43.1221376" lon="12.3260482"><ele>451.00000000000006</ele><time>2026-04-10T11:37:16.351Z</time></trkpt><trkpt lat="43.1221915" lon="12.3260023"><ele>454.0</ele><time>2026-04-10T11:37:17.327Z</time></trkpt><trkpt lat="43.1222873" lon="12.3259526"><ele>454.0</ele><time>2026-04-10T11:37:19.304Z</time></trkpt><trkpt lat="43.1223803" lon="12.3258588"><ele>454.0</ele><time>2026-04-10T11:37:21.342Z</time></trkpt><trkpt lat="43.1224687" lon="12.325845"><ele>454.0</ele><time>2026-04-10T11:37:23.35Z</time></trkpt><trkpt lat="43.1225619" lon="12.3258032"><ele>454.0</ele><time>2026-04-10T11:37:25.338Z</time></trkpt><trkpt lat="43.1225041" lon="12.3256975"><ele>454.0</ele><time>2026-04-10T11:37:29.318Z</time></trkpt><trkpt lat="43.1223986" lon="12.3256449"><ele>454.0</ele><time>2026-04-10T11:37:31.326Z</time></trkpt><trkpt lat="43.1222864" lon="12.3255895"><ele>454.0</ele><time>2026-04-10T11:37:33.304Z</time></trkpt><trkpt lat="43.1221918" lon="12.3254809"><ele>454.0</ele><time>2026-04-10T11:37:35.331Z</time></trkpt><trkpt lat="43.1221458" lon="12.3254103"><ele>454.0</ele><time>2026-04-10T11:37:36.333Z</time></trkpt><trkpt lat="43.1220973" lon="12.3253362"><ele>454.0</ele><time>2026-04-10T11:37:37.333Z</time></trkpt><trkpt lat="43.1220178" lon="12.3252057"><ele>455.4</ele><time>2026-04-10T11:37:39.317Z</time></trkpt><trkpt lat="43.1219859" lon="12.3250783"><ele>456.79999999999995</ele><time>2026-04-10T11:37:41.338Z</time></trkpt><trkpt lat="43.1219805" lon="12.3249386"><ele>458.20000000000005</ele><time>2026-04-10T11:37:43.339Z</time></trkpt><trkpt lat="43.1219721" lon="12.3248031"><ele>459.6</ele><time>2026-04-10T11:37:45.292Z</time></trkpt><trkpt lat="43.121992" lon="12.324651"><ele>461.0</ele><time>2026-04-10T11:37:47.339Z</time></trkpt><trkpt lat="43.1220219" lon="12.324501"><ele>465.0</ele><time>2026-04-10T11:37:49.31Z</time></trkpt><trkpt lat="43.1220571" lon="12.3243704"><ele>469.0</ele><time>2026-04-10T11:37:51.322Z</time></trkpt><trkpt lat="43.1221517" lon="12.3242687"><ele>473.0</ele><time>2026-04-10T11:37:53.309Z</time></trkpt><trkpt lat="43.122252" lon="12.3241784"><ele>477.0</ele><time>2026-04-10T11:37:55.334Z</time></trkpt><trkpt lat="43.1223314" lon="12.3240545"><ele>480.0</ele><time>2026-04-10T11:37:57.292Z</time></trkpt><trkpt lat="43.1224045" lon="12.3239514"><ele>483.00000000000006</ele><time>2026-04-10T11:37:59.331Z</time></trkpt><trkpt lat="43.1224837" lon="12.3238598"><ele>486.00000000000006</ele><time>2026-04-10T11:38:01.351Z</time></trkpt><trkpt lat="43.1225666" lon="12.3237573"><ele>489.0</ele><time>2026-04-10T11:38:03.32Z</time></trkpt><trkpt lat="43.1226282" lon="12.3236419"><ele>492.0</ele><time>2026-04-10T11:38:05.337Z</time></trkpt><trkpt lat="43.1227046" lon="12.3235317"><ele>491.8</ele><time>2026-04-10T11:38:07.316Z</time></trkpt><trkpt lat="43.1227728" lon="12.3234058"><ele>491.6</ele><time>2026-04-10T11:38:09.312Z</time></trkpt><trkpt lat="43.1228536" lon="12.3232646"><ele>491.40000000000003</ele><time>2026-04-10T11:38:11.33Z</time></trkpt><trkpt lat="43.1228907" lon="12.3231912"><ele>491.20000000000005</ele><time>2026-04-10T11:38:12.29Z</time></trkpt><trkpt lat="43.1229411" lon="12.3230459"><ele>491.0</ele><time>2026-04-10T11:38:14.327Z</time></trkpt><trkpt lat="43.1230012" lon="12.3228946"><ele>490.99999999999994</ele><time>2026-04-10T11:38:16.342Z</time></trkpt><trkpt lat="43.12304" lon="12.3228097"><ele>491.0</ele><time>2026-04-10T11:38:17.336Z</time></trkpt><trkpt lat="43.1230827" lon="12.3227275"><ele>491.0</ele><time>2026-04-10T11:38:18.354Z</time></trkpt><trkpt lat="43.1231703" lon="12.3226071"><ele>491.0</ele><time>2026-04-10T11:38:20.3Z</time></trkpt><trkpt lat="43.1232346" lon="12.3225515"><ele>490.99999999999994</ele><time>2026-04-10T11:38:21.316Z</time></trkpt><trkpt lat="43.1233064" lon="12.3225182"><ele>491.0</ele><time>2026-04-10T11:38:22.357Z</time></trkpt><trkpt lat="43.1233833" lon="12.3224716"><ele>490.66666666666663</ele><time>2026-04-10T11:38:23.344Z</time></trkpt><trkpt lat="43.1234659" lon="12.3224156"><ele>490.3333333333333</ele><time>2026-04-10T11:38:24.331Z</time></trkpt><trkpt lat="43.1235513" lon="12.3223775"><ele>490.0</ele><time>2026-04-10T11:38:25.323Z</time></trkpt><trkpt lat="43.1236304" lon="12.3223341"><ele>489.66666666666663</ele><time>2026-04-10T11:38:26.325Z</time></trkpt><trkpt lat="43.1237019" lon="12.322273"><ele>489.3333333333333</ele><time>2026-04-10T11:38:27.336Z</time></trkpt><trkpt lat="43.1237699" lon="12.3222124"><ele>489.0</ele><time>2026-04-10T11:38:28.336Z</time></trkpt><trkpt lat="43.12383" lon="12.3221436"><ele>489.0</ele><time>2026-04-10T11:38:29.315Z</time></trkpt><trkpt lat="43.1238958" lon="12.322068"><ele>489.0</ele><time>2026-04-10T11:38:30.347Z</time></trkpt><trkpt lat="43.123966" lon="12.3219937"><ele>489.0</ele><time>2026-04-10T11:38:31.332Z</time></trkpt><trkpt lat="43.1240445" lon="12.321896"><ele>489.0</ele><time>2026-04-10T11:38:32.33Z</time></trkpt><trkpt lat="43.1241351" lon="12.3218071"><ele>489.0</ele><time>2026-04-10T11:38:33.337Z</time></trkpt><trkpt lat="43.1242063" lon="12.321736"><ele>492.5</ele><time>2026-04-10T11:38:34.326Z</time></trkpt><trkpt lat="43.1242756" lon="12.3216604"><ele>496.0</ele><time>2026-04-10T11:38:35.336Z</time></trkpt><trkpt lat="43.1243369" lon="12.3215987"><ele>499.5</ele><time>2026-04-10T11:38:36.34Z</time></trkpt><trkpt lat="43.124404" lon="12.3215567"><ele>503.0</ele><time>2026-04-10T11:38:37.341Z</time></trkpt><trkpt lat="43.1244636" lon="12.3215232"><ele>506.5</ele><time>2026-04-10T11:38:38.359Z</time></trkpt><trkpt lat="43.1245276" lon="12.3215013"><ele>510.0</ele><time>2026-04-10T11:38:39.329Z</time></trkpt><trkpt lat="43.124651" lon="12.3215336"><ele>510.0</ele><time>2026-04-10T11:38:41.329Z</time></trkpt><trkpt lat="43.1247137" lon="12.3215455"><ele>510.0</ele><time>2026-04-10T11:38:42.34Z</time></trkpt><trkpt lat="43.12478" lon="12.3214661"><ele>510.0</ele><time>2026-04-10T11:38:45.352Z</time></trkpt><trkpt lat="43.1248275" lon="12.3213292"><ele>510.0</ele><time>2026-04-10T11:38:47.33Z</time></trkpt><trkpt lat="43.1248616" lon="12.3212516"><ele>510.0</ele><time>2026-04-10T11:38:48.283Z</time></trkpt><trkpt lat="43.1248945" lon="12.3211591"><ele>510.0</ele><time>2026-04-10T11:38:49.308Z</time></trkpt><trkpt lat="43.1249353" lon="12.3210714"><ele>511.28571428571433</ele><time>2026-04-10T11:38:50.331Z</time></trkpt><trkpt lat="43.1249639" lon="12.3209893"><ele>512.5714285714287</ele><time>2026-04-10T11:38:51.287Z</time></trkpt><trkpt lat="43.1250023" lon="12.3209162"><ele>513.8571428571429</ele><time>2026-04-10T11:38:52.299Z</time></trkpt><trkpt lat="43.1250395" lon="12.3208386"><ele>515.1428571428571</ele><time>2026-04-10T11:38:53.328Z</time></trkpt><trkpt lat="43.1250743" lon="12.3207616"><ele>516.4285714285713</ele><time>2026-04-10T11:38:54.296Z</time></trkpt><trkpt lat="43.1251225" lon="12.3206811"><ele>517.7142857142857</ele><time>2026-04-10T11:38:55.298Z</time></trkpt><trkpt lat="43.1251778" lon="12.3206013"><ele>519.0</ele><time>2026-04-10T11:38:56.273Z</time></trkpt><trkpt lat="43.1252383" lon="12.320528"><ele>520.3333333333334</ele><time>2026-04-10T11:38:57.311Z</time></trkpt><trkpt lat="43.1253061" lon="12.3204697"><ele>521.6666666666666</ele><time>2026-04-10T11:38:58.353Z</time></trkpt><trkpt lat="43.1253707" lon="12.3204009"><ele>523.0</ele><time>2026-04-10T11:38:59.308Z</time></trkpt><trkpt lat="43.1254326" lon="12.3203229"><ele>524.3333333333333</ele><time>2026-04-10T11:39:00.319Z</time></trkpt><trkpt lat="43.1255037" lon="12.3202592"><ele>525.6666666666666</ele><time>2026-04-10T11:39:01.289Z</time></trkpt><trkpt lat="43.12558" lon="12.3201985"><ele>527.0</ele><time>2026-04-10T11:39:02.347Z</time></trkpt><trkpt lat="43.1256495" lon="12.3201212"><ele>527.0</ele><time>2026-04-10T11:39:03.338Z</time></trkpt><trkpt lat="43.1257225" lon="12.3200459"><ele>527.0</ele><time>2026-04-10T11:39:04.336Z</time></trkpt><trkpt lat="43.1257955" lon="12.3199606"><ele>527.0</ele><time>2026-04-10T11:39:05.313Z</time></trkpt><trkpt lat="43.1258729" lon="12.3198835"><ele>527.0</ele><time>2026-04-10T11:39:06.334Z</time></trkpt><trkpt lat="43.1259538" lon="12.3197986"><ele>527.0</ele><time>2026-04-10T11:39:07.311Z</time></trkpt><trkpt lat="43.1260158" lon="12.3197232"><ele>530.6666666666666</ele><time>2026-04-10T11:39:08.336Z</time></trkpt><trkpt lat="43.126076" lon="12.319655"><ele>534.3333333333333</ele><time>2026-04-10T11:39:09.316Z</time></trkpt><trkpt lat="43.1261362" lon="12.3195862"><ele>538.0</ele><time>2026-04-10T11:39:10.352Z</time></trkpt><trkpt lat="43.126185" lon="12.3195129"><ele>541.6666666666666</ele><time>2026-04-10T11:39:11.33Z</time></trkpt><trkpt lat="43.1262402" lon="12.3194409"><ele>545.3333333333334</ele><time>2026-04-10T11:39:12.329Z</time></trkpt><trkpt lat="43.1262857" lon="12.3193565"><ele>549.0</ele><time>2026-04-10T11:39:13.318Z</time></trkpt><trkpt lat="43.126334" lon="12.3192752"><ele>549.0</ele><time>2026-04-10T11:39:14.316Z</time></trkpt><trkpt lat="43.1263862" lon="12.3191955"><ele>549.0</ele><time>2026-04-10T11:39:15.334Z</time></trkpt><trkpt lat="43.1264457" lon="12.3191045"><ele>549.0</ele><time>2026-04-10T11:39:16.337Z</time></trkpt><trkpt lat="43.1265046" lon="12.3190272"><ele>549.0</ele><time>2026-04-10T11:39:17.315Z</time></trkpt><trkpt lat="43.1265703" lon="12.3189719"><ele>549.0</ele><time>2026-04-10T11:39:18.309Z</time></trkpt><trkpt lat="43.1266684" lon="12.3188826"><ele>549.0</ele><time>2026-04-10T11:39:20.304Z</time></trkpt><trkpt lat="43.1267253" lon="12.3187202"><ele>550.5</ele><time>2026-04-10T11:39:22.29Z</time></trkpt><trkpt lat="43.1267438" lon="12.3186251"><ele>552.0</ele><time>2026-04-10T11:39:23.317Z</time></trkpt><trkpt lat="43.1267634" lon="12.3184975"><ele>553.5</ele><time>2026-04-10T11:39:25.316Z</time></trkpt><trkpt lat="43.1267924" lon="12.3183456"><ele>555.0</ele><time>2026-04-10T11:39:27.351Z</time></trkpt><trkpt lat="43.1268057" lon="12.3182599"><ele>556.5</ele><time>2026-04-10T11:39:28.329Z</time></trkpt><trkpt lat="43.1268392" lon="12.3181855"><ele>558.0</ele><time>2026-04-10T11:39:29.299Z</time></trkpt><trkpt lat="43.1268725" lon="12.3180948"><ele>560.6666666666666</ele><time>2026-04-10T11:39:30.339Z</time></trkpt><trkpt lat="43.1269154" lon="12.3179971"><ele>563.3333333333334</ele><time>2026-04-10T11:39:31.325Z</time></trkpt><trkpt lat="43.1269625" lon="12.3179231"><ele>566.0</ele><time>2026-04-10T11:39:32.316Z</time></trkpt><trkpt lat="43.1270229" lon="12.3178509"><ele>568.6666666666667</ele><time>2026-04-10T11:39:33.326Z</time></trkpt><trkpt lat="43.1270809" lon="12.3177783"><ele>571.3333333333334</ele><time>2026-04-10T11:39:34.313Z</time></trkpt><trkpt lat="43.1271378" lon="12.3176938"><ele>574.0</ele><time>2026-04-10T11:39:35.345Z</time></trkpt><trkpt lat="43.1271852" lon="12.3176204"><ele>574.0</ele><time>2026-04-10T11:39:36.33Z</time></trkpt><trkpt lat="43.1272349" lon="12.3175411"><ele>574.0</ele><time>2026-04-10T11:39:37.326Z</time></trkpt><trkpt lat="43.1272729" lon="12.3174572"><ele>574.0</ele><time>2026-04-10T11:39:38.335Z</time></trkpt><trkpt lat="43.1273104" lon="12.3173711"><ele>574.0</ele><time>2026-04-10T11:39:39.319Z</time></trkpt><trkpt lat="43.1273564" lon="12.3172971"><ele>574.0</ele><time>2026-04-10T11:39:40.336Z</time></trkpt><trkpt lat="43.1274054" lon="12.3172153"><ele>574.0</ele><time>2026-04-10T11:39:41.34Z</time></trkpt><trkpt lat="43.12745" lon="12.3171392"><ele>574.0</ele><time>2026-04-10T11:39:42.321Z</time></trkpt><trkpt lat="43.1274917" lon="12.3170734"><ele>573.8</ele><time>2026-04-10T11:39:43.316Z</time></trkpt><trkpt lat="43.1275884" lon="12.3170112"><ele>573.5999999999999</ele><time>2026-04-10T11:39:45.331Z</time></trkpt><trkpt lat="43.1276378" lon="12.3169174"><ele>573.4</ele><time>2026-04-10T11:39:47.338Z</time></trkpt><trkpt lat="43.1276799" lon="12.3168221"><ele>573.1999999999999</ele><time>2026-04-10T11:39:49.32Z</time></trkpt><trkpt lat="43.1277705" lon="12.3166815"><ele>573.0</ele><time>2026-04-10T11:39:51.33Z</time></trkpt><trkpt lat="43.1278249" lon="12.3166163"><ele>573.0</ele><time>2026-04-10T11:39:52.328Z</time></trkpt><trkpt lat="43.1278744" lon="12.3165516"><ele>573.0</ele><time>2026-04-10T11:39:53.289Z</time></trkpt><trkpt lat="43.1279292" lon="12.3164911"><ele>573.0</ele><time>2026-04-10T11:39:54.337Z</time></trkpt><trkpt lat="43.1279855" lon="12.3164295"><ele>573.0</ele><time>2026-04-10T11:39:55.329Z</time></trkpt><trkpt lat="43.1280432" lon="12.3163629"><ele>573.0</ele><time>2026-04-10T11:39:56.343Z</time></trkpt><trkpt lat="43.1281071" lon="12.3162958"><ele>573.0</ele><time>2026-04-10T11:39:57.342Z</time></trkpt><trkpt lat="43.128195" lon="12.3162159"><ele>573.0</ele><time>2026-04-10T11:39:58.32Z</time></trkpt><trkpt lat="43.1282758" lon="12.3161407"><ele>573.0</ele><time>2026-04-10T11:39:59.341Z</time></trkpt><trkpt lat="43.1283518" lon="12.316078"><ele>573.0</ele><time>2026-04-10T11:40:00.37Z</time></trkpt><trkpt lat="43.1284288" lon="12.3160185"><ele>573.0</ele><time>2026-04-10T11:40:01.358Z</time></trkpt><trkpt lat="43.1285213" lon="12.3159803"><ele>573.0</ele><time>2026-04-10T11:40:02.347Z</time></trkpt><trkpt lat="43.1286283" lon="12.3159545"><ele>573.0</ele><time>2026-04-10T11:40:03.328Z</time></trkpt><trkpt lat="43.1287276" lon="12.315928"><ele>573.0</ele><time>2026-04-10T11:40:04.33Z</time></trkpt><trkpt lat="43.1288308" lon="12.3158966"><ele>573.0</ele><time>2026-04-10T11:40:05.34Z</time></trkpt><trkpt lat="43.1289264" lon="12.3158535"><ele>573.0</ele><time>2026-04-10T11:40:06.342Z</time></trkpt><trkpt lat="43.1290234" lon="12.3158018"><ele>573.0</ele><time>2026-04-10T11:40:07.349Z</time></trkpt><trkpt lat="43.1291206" lon="12.3157364"><ele>574.5</ele><time>2026-04-10T11:40:08.338Z</time></trkpt><trkpt lat="43.1292112" lon="12.315681"><ele>576.0</ele><time>2026-04-10T11:40:09.324Z</time></trkpt><trkpt lat="43.129299" lon="12.3156548"><ele>577.5</ele><time>2026-04-10T11:40:10.348Z</time></trkpt><trkpt lat="43.129389" lon="12.3156422"><ele>579.0</ele><time>2026-04-10T11:40:11.335Z</time></trkpt><trkpt lat="43.1294711" lon="12.3156483"><ele>580.5</ele><time>2026-04-10T11:40:12.334Z</time></trkpt><trkpt lat="43.129544" lon="12.315667"><ele>582.0</ele><time>2026-04-10T11:40:13.323Z</time></trkpt><trkpt lat="43.1296072" lon="12.3157077"><ele>582.0</ele><time>2026-04-10T11:40:14.306Z</time></trkpt><trkpt lat="43.1296724" lon="12.3157547"><ele>582.0</ele><time>2026-04-10T11:40:15.332Z</time></trkpt><trkpt lat="43.1297348" lon="12.3157876"><ele>582.0</ele><time>2026-04-10T11:40:16.33Z</time></trkpt><trkpt lat="43.1297988" lon="12.3158042"><ele>582.0</ele><time>2026-04-10T11:40:17.364Z</time></trkpt><trkpt lat="43.1298795" lon="12.3157813"><ele>582.0</ele><time>2026-04-10T11:40:18.343Z</time></trkpt><trkpt lat="43.1299654" lon="12.3157508"><ele>582.0</ele><time>2026-04-10T11:40:19.347Z</time></trkpt><trkpt lat="43.1300497" lon="12.3157167"><ele>583.2</ele><time>2026-04-10T11:40:20.342Z</time></trkpt><trkpt lat="43.130137" lon="12.3157066"><ele>584.4000000000001</ele><time>2026-04-10T11:40:21.347Z</time></trkpt><trkpt lat="43.130233" lon="12.3157129"><ele>585.5999999999999</ele><time>2026-04-10T11:40:22.334Z</time></trkpt><trkpt lat="43.1303285" lon="12.3157193"><ele>586.8</ele><time>2026-04-10T11:40:23.335Z</time></trkpt><trkpt lat="43.1304204" lon="12.3157282"><ele>588.0</ele><time>2026-04-10T11:40:24.344Z</time></trkpt><trkpt lat="43.1305163" lon="12.3157492"><ele>588.0</ele><time>2026-04-10T11:40:25.358Z</time></trkpt><trkpt lat="43.130619" lon="12.3157703"><ele>588.0</ele><time>2026-04-10T11:40:26.337Z</time></trkpt><trkpt lat="43.1307174" lon="12.3157929"><ele>588.0</ele><time>2026-04-10T11:40:27.327Z</time></trkpt><trkpt lat="43.1308112" lon="12.3158079"><ele>588.0</ele><time>2026-04-10T11:40:28.332Z</time></trkpt><trkpt lat="43.1309028" lon="12.3158145"><ele>588.0</ele><time>2026-04-10T11:40:29.348Z</time></trkpt><trkpt lat="43.13099" lon="12.3158035"><ele>589.0</ele><time>2026-04-10T11:40:30.354Z</time></trkpt><trkpt lat="43.1310811" lon="12.3157767"><ele>590.0</ele><time>2026-04-10T11:40:31.344Z</time></trkpt><trkpt lat="43.1311652" lon="12.3157552"><ele>591.0</ele><time>2026-04-10T11:40:32.342Z</time></trkpt><trkpt lat="43.1312369" lon="12.3157427"><ele>592.0</ele><time>2026-04-10T11:40:33.343Z</time></trkpt><trkpt lat="43.1313159" lon="12.3157469"><ele>593.0</ele><time>2026-04-10T11:40:34.348Z</time></trkpt><trkpt lat="43.1313896" lon="12.3157879"><ele>594.0</ele><time>2026-04-10T11:40:35.352Z</time></trkpt><trkpt lat="43.1314554" lon="12.3158597"><ele>594.0</ele><time>2026-04-10T11:40:36.312Z</time></trkpt><trkpt lat="43.1315205" lon="12.3159465"><ele>594.0</ele><time>2026-04-10T11:40:37.343Z</time></trkpt><trkpt lat="43.1315942" lon="12.3160561"><ele>594.0</ele><time>2026-04-10T11:40:38.302Z</time></trkpt><trkpt lat="43.1316637" lon="12.3161733"><ele>594.0</ele><time>2026-04-10T11:40:39.358Z</time></trkpt><trkpt lat="43.1317288" lon="12.316291"><ele>594.0</ele><time>2026-04-10T11:40:40.355Z</time></trkpt><trkpt lat="43.1317843" lon="12.3164094"><ele>593.8333333333334</ele><time>2026-04-10T11:40:41.342Z</time></trkpt><trkpt lat="43.1318339" lon="12.3165157"><ele>593.6666666666666</ele><time>2026-04-10T11:40:42.333Z</time></trkpt><trkpt lat="43.1318838" lon="12.3166117"><ele>593.5</ele><time>2026-04-10T11:40:43.331Z</time></trkpt><trkpt lat="43.1319357" lon="12.3166904"><ele>593.3333333333333</ele><time>2026-04-10T11:40:44.331Z</time></trkpt><trkpt lat="43.1320013" lon="12.3167775"><ele>593.1666666666666</ele><time>2026-04-10T11:40:45.336Z</time></trkpt><trkpt lat="43.1320894" lon="12.3168467"><ele>593.0</ele><time>2026-04-10T11:40:46.344Z</time></trkpt><trkpt lat="43.1321882" lon="12.3169116"><ele>593.0</ele><time>2026-04-10T11:40:47.343Z</time></trkpt><trkpt lat="43.1322971" lon="12.3169888"><ele>593.0</ele><time>2026-04-10T11:40:48.303Z</time></trkpt><trkpt lat="43.1324037" lon="12.3170677"><ele>593.0</ele><time>2026-04-10T11:40:49.282Z</time></trkpt><trkpt lat="43.1325123" lon="12.3171469"><ele>593.0</ele><time>2026-04-10T11:40:50.314Z</time></trkpt><trkpt lat="43.1326237" lon="12.3172255"><ele>594.8333333333333</ele><time>2026-04-10T11:40:51.34Z</time></trkpt><trkpt lat="43.1327284" lon="12.3172983"><ele>596.6666666666666</ele><time>2026-04-10T11:40:52.338Z</time></trkpt><trkpt lat="43.1328188" lon="12.3173624"><ele>598.5</ele><time>2026-04-10T11:40:53.332Z</time></trkpt><trkpt lat="43.1329" lon="12.3174191"><ele>600.3333333333334</ele><time>2026-04-10T11:40:54.339Z</time></trkpt><trkpt lat="43.1329615" lon="12.3174691"><ele>602.1666666666667</ele><time>2026-04-10T11:40:55.334Z</time></trkpt><trkpt lat="43.1329915" lon="12.3175485"><ele>604.0</ele><time>2026-04-10T11:40:56.329Z</time></trkpt><trkpt lat="43.1330065" lon="12.3177182"><ele>604.0</ele><time>2026-04-10T11:40:58.31Z</time></trkpt><trkpt lat="43.1329922" lon="12.3178166"><ele>604.0</ele><time>2026-04-10T11:40:59.333Z</time></trkpt><trkpt lat="43.1329762" lon="12.3179159"><ele>604.0</ele><time>2026-04-10T11:41:00.329Z</time></trkpt><trkpt lat="43.1329683" lon="12.3180141"><ele>604.0</ele><time>2026-04-10T11:41:01.305Z</time></trkpt><trkpt lat="43.1329726" lon="12.3181223"><ele>604.0</ele><time>2026-04-10T11:41:02.341Z</time></trkpt><trkpt lat="43.132991" lon="12.3182325"><ele>604.0</ele><time>2026-04-10T11:41:03.342Z</time></trkpt><trkpt lat="43.1330102" lon="12.318338"><ele>606.5</ele><time>2026-04-10T11:41:04.317Z</time></trkpt><trkpt lat="43.1330227" lon="12.3184388"><ele>609.0</ele><time>2026-04-10T11:41:05.349Z</time></trkpt><trkpt lat="43.1330431" lon="12.3185521"><ele>611.5</ele><time>2026-04-10T11:41:06.338Z</time></trkpt><trkpt lat="43.1330714" lon="12.3186606"><ele>614.0</ele><time>2026-04-10T11:41:07.332Z</time></trkpt><trkpt lat="43.1331075" lon="12.318773"><ele>616.5</ele><time>2026-04-10T11:41:08.351Z</time></trkpt><trkpt lat="43.1331433" lon="12.3188882"><ele>619.0</ele><time>2026-04-10T11:41:09.351Z</time></trkpt><trkpt lat="43.1331787" lon="12.3190066"><ele>619.1666666666667</ele><time>2026-04-10T11:41:10.283Z</time></trkpt><trkpt lat="43.1332113" lon="12.3191252"><ele>619.3333333333334</ele><time>2026-04-10T11:41:11.357Z</time></trkpt><trkpt lat="43.1332571" lon="12.3192447"><ele>619.5</ele><time>2026-04-10T11:41:12.32Z</time></trkpt><trkpt lat="43.1332979" lon="12.3193474"><ele>619.6666666666666</ele><time>2026-04-10T11:41:13.309Z</time></trkpt><trkpt lat="43.1333342" lon="12.3194332"><ele>619.8333333333333</ele><time>2026-04-10T11:41:14.327Z</time></trkpt><trkpt lat="43.1333673" lon="12.3195127"><ele>620.0</ele><time>2026-04-10T11:41:15.325Z</time></trkpt><trkpt lat="43.1333932" lon="12.3195959"><ele>620.0</ele><time>2026-04-10T11:41:16.337Z</time></trkpt><trkpt lat="43.1334138" lon="12.3196797"><ele>620.0</ele><time>2026-04-10T11:41:17.342Z</time></trkpt><trkpt lat="43.1334256" lon="12.3198094"><ele>620.0</ele><time>2026-04-10T11:41:19.331Z</time></trkpt><trkpt lat="43.1334135" lon="12.3199349"><ele>620.0</ele><time>2026-04-10T11:41:22.3Z</time></trkpt><trkpt lat="43.1333769" lon="12.3200866"><ele>620.0</ele><time>2026-04-10T11:41:24.348Z</time></trkpt><trkpt lat="43.1333027" lon="12.3202095"><ele>620.8571428571429</ele><time>2026-04-10T11:41:26.351Z</time></trkpt><trkpt lat="43.1332501" lon="12.3202688"><ele>621.7142857142857</ele><time>2026-04-10T11:41:27.329Z</time></trkpt><trkpt lat="43.1332001" lon="12.3203363"><ele>622.5714285714286</ele><time>2026-04-10T11:41:28.34Z</time></trkpt><trkpt lat="43.1331511" lon="12.3204088"><ele>623.4285714285714</ele><time>2026-04-10T11:41:29.331Z</time></trkpt><trkpt lat="43.1331042" lon="12.3204984"><ele>624.2857142857143</ele><time>2026-04-10T11:41:30.319Z</time></trkpt><trkpt lat="43.1330676" lon="12.3205938"><ele>625.1428571428571</ele><time>2026-04-10T11:41:31.34Z</time></trkpt><trkpt lat="43.1330388" lon="12.3206898"><ele>626.0</ele><time>2026-04-10T11:41:32.359Z</time></trkpt><trkpt lat="43.133025" lon="12.3207941"><ele>627.3333333333333</ele><time>2026-04-10T11:41:33.359Z</time></trkpt><trkpt lat="43.1330105" lon="12.3209055"><ele>628.6666666666666</ele><time>2026-04-10T11:41:34.32Z</time></trkpt><trkpt lat="43.1330008" lon="12.3210272"><ele>630.0</ele><time>2026-04-10T11:41:35.346Z</time></trkpt><trkpt lat="43.1330132" lon="12.321148"><ele>631.3333333333334</ele><time>2026-04-10T11:41:36.333Z</time></trkpt><trkpt lat="43.1330488" lon="12.321265"><ele>632.6666666666667</ele><time>2026-04-10T11:41:37.334Z</time></trkpt><trkpt lat="43.1330954" lon="12.321361"><ele>634.0</ele><time>2026-04-10T11:41:38.308Z</time></trkpt><trkpt lat="43.1331519" lon="12.3214373"><ele>634.0</ele><time>2026-04-10T11:41:39.328Z</time></trkpt><trkpt lat="43.1332101" lon="12.3215196"><ele>634.0</ele><time>2026-04-10T11:41:40.326Z</time></trkpt><trkpt lat="43.1332672" lon="12.3215888"><ele>634.0</ele><time>2026-04-10T11:41:41.334Z</time></trkpt><trkpt lat="43.1333525" lon="12.3217227"><ele>634.0</ele><time>2026-04-10T11:41:43.328Z</time></trkpt><trkpt lat="43.1334007" lon="12.3217989"><ele>634.0</ele><time>2026-04-10T11:41:44.334Z</time></trkpt><trkpt lat="43.1334486" lon="12.3218826"><ele>634.0</ele><time>2026-04-10T11:41:45.353Z</time></trkpt><trkpt lat="43.1334932" lon="12.3219717"><ele>631.3333333333334</ele><time>2026-04-10T11:41:46.337Z</time></trkpt><trkpt lat="43.1335421" lon="12.322068"><ele>628.6666666666667</ele><time>2026-04-10T11:41:47.348Z</time></trkpt><trkpt lat="43.1335862" lon="12.3221711"><ele>626.0</ele><time>2026-04-10T11:41:48.343Z</time></trkpt><trkpt lat="43.1336286" lon="12.3222756"><ele>623.3333333333334</ele><time>2026-04-10T11:41:49.34Z</time></trkpt><trkpt lat="43.1336766" lon="12.3223835"><ele>620.6666666666666</ele><time>2026-04-10T11:41:50.351Z</time></trkpt><trkpt lat="43.1337212" lon="12.3225007"><ele>618.0</ele><time>2026-04-10T11:41:51.376Z</time></trkpt><trkpt lat="43.1337822" lon="12.3226031"><ele>617.8</ele><time>2026-04-10T11:41:52.355Z</time></trkpt><trkpt lat="43.1338563" lon="12.3226849"><ele>617.5999999999999</ele><time>2026-04-10T11:41:53.343Z</time></trkpt><trkpt lat="43.1339352" lon="12.3227591"><ele>617.4000000000001</ele><time>2026-04-10T11:41:54.347Z</time></trkpt><trkpt lat="43.1340269" lon="12.3228111"><ele>617.2</ele><time>2026-04-10T11:41:55.334Z</time></trkpt><trkpt lat="43.13413" lon="12.3228511"><ele>617.0</ele><time>2026-04-10T11:41:56.349Z</time></trkpt><trkpt lat="43.1342289" lon="12.3228726"><ele>614.0</ele><time>2026-04-10T11:41:57.332Z</time></trkpt><trkpt lat="43.1343155" lon="12.3229014"><ele>611.0</ele><time>2026-04-10T11:41:58.335Z</time></trkpt><trkpt lat="43.1343965" lon="12.3229484"><ele>608.0</ele><time>2026-04-10T11:41:59.354Z</time></trkpt><trkpt lat="43.1344728" lon="12.3229996"><ele>605.0</ele><time>2026-04-10T11:42:00.343Z</time></trkpt><trkpt lat="43.1345483" lon="12.3230527"><ele>602.0</ele><time>2026-04-10T11:42:01.35Z</time></trkpt><trkpt lat="43.1346148" lon="12.3230999"><ele>599.0</ele><time>2026-04-10T11:42:02.343Z</time></trkpt><trkpt lat="43.1346745" lon="12.3231492"><ele>599.0</ele><time>2026-04-10T11:42:03.37Z</time></trkpt><trkpt lat="43.1347361" lon="12.3231906"><ele>599.0</ele><time>2026-04-10T11:42:04.359Z</time></trkpt><trkpt lat="43.134854" lon="12.3232199"><ele>599.0</ele><time>2026-04-10T11:42:06.34Z</time></trkpt><trkpt lat="43.1349188" lon="12.3232025"><ele>599.0</ele><time>2026-04-10T11:42:07.34Z</time></trkpt><trkpt lat="43.1349991" lon="12.3231743"><ele>599.0</ele><time>2026-04-10T11:42:08.34Z</time></trkpt><trkpt lat="43.1350889" lon="12.3231258"><ele>599.0</ele><time>2026-04-10T11:42:09.361Z</time></trkpt><trkpt lat="43.1351829" lon="12.3230663"><ele>597.6</ele><time>2026-04-10T11:42:10.357Z</time></trkpt><trkpt lat="43.135278" lon="12.3230214"><ele>596.2</ele><time>2026-04-10T11:42:11.348Z</time></trkpt><trkpt lat="43.1353763" lon="12.3229745"><ele>594.8000000000001</ele><time>2026-04-10T11:42:12.346Z</time></trkpt><trkpt lat="43.1354856" lon="12.3229208"><ele>593.4</ele><time>2026-04-10T11:42:13.345Z</time></trkpt><trkpt lat="43.1355922" lon="12.3228715"><ele>592.0</ele><time>2026-04-10T11:42:14.33Z</time></trkpt><trkpt lat="43.1356767" lon="12.3228237"><ele>592.6</ele><time>2026-04-10T11:42:15.343Z</time></trkpt><trkpt lat="43.1357491" lon="12.3227727"><ele>593.2</ele><time>2026-04-10T11:42:16.28Z</time></trkpt><trkpt lat="43.1358177" lon="12.3227391"><ele>593.8</ele><time>2026-04-10T11:42:17.358Z</time></trkpt><trkpt lat="43.135922" lon="12.3227291"><ele>594.4</ele><time>2026-04-10T11:42:19.336Z</time></trkpt><trkpt lat="43.1359632" lon="12.3228083"><ele>595.0</ele><time>2026-04-10T11:42:20.341Z</time></trkpt><trkpt lat="43.1360157" lon="12.3229597"><ele>595.0</ele><time>2026-04-10T11:42:22.361Z</time></trkpt><trkpt lat="43.1360926" lon="12.3230343"><ele>595.0</ele><time>2026-04-10T11:42:24.371Z</time></trkpt><trkpt lat="43.1361675" lon="12.3230389"><ele>595.0</ele><time>2026-04-10T11:42:25.312Z</time></trkpt><trkpt lat="43.1362409" lon="12.3230315"><ele>595.0</ele><time>2026-04-10T11:42:26.34Z</time></trkpt><trkpt lat="43.1363142" lon="12.3229979"><ele>595.0</ele><time>2026-04-10T11:42:27.295Z</time></trkpt><trkpt lat="43.1363864" lon="12.3229775"><ele>595.0</ele><time>2026-04-10T11:42:28.332Z</time></trkpt><trkpt lat="43.136457" lon="12.3229671"><ele>595.0</ele><time>2026-04-10T11:42:29.347Z</time></trkpt><trkpt lat="43.1365235" lon="12.3229503"><ele>595.0</ele><time>2026-04-10T11:42:30.341Z</time></trkpt><trkpt lat="43.1365919" lon="12.3229415"><ele>595.0</ele><time>2026-04-10T11:42:31.313Z</time></trkpt><trkpt lat="43.1366591" lon="12.3229316"><ele>595.0</ele><time>2026-04-10T11:42:32.346Z</time></trkpt><trkpt lat="43.1367829" lon="12.3229199"><ele>595.0</ele><time>2026-04-10T11:42:34.339Z</time></trkpt><trkpt lat="43.1368473" lon="12.3228821"><ele>595.0</ele><time>2026-04-10T11:42:35.349Z</time></trkpt><trkpt lat="43.1369051" lon="12.3228249"><ele>594.8333333333334</ele><time>2026-04-10T11:42:36.35Z</time></trkpt><trkpt lat="43.13696" lon="12.3227621"><ele>594.6666666666667</ele><time>2026-04-10T11:42:37.35Z</time></trkpt><trkpt lat="43.1370147" lon="12.3226891"><ele>594.5</ele><time>2026-04-10T11:42:38.351Z</time></trkpt><trkpt lat="43.1371015" lon="12.322613"><ele>594.3333333333334</ele><time>2026-04-10T11:42:40.363Z</time></trkpt><trkpt lat="43.13718" lon="12.3226077"><ele>594.1666666666666</ele><time>2026-04-10T11:42:42.329Z</time></trkpt><trkpt lat="43.1372518" lon="12.3225661"><ele>594.0</ele><time>2026-04-10T11:42:44.333Z</time></trkpt><trkpt lat="43.1373049" lon="12.3225152"><ele>594.0</ele><time>2026-04-10T11:42:45.35Z</time></trkpt><trkpt lat="43.1373601" lon="12.3224687"><ele>594.0</ele><time>2026-04-10T11:42:46.339Z</time></trkpt><trkpt lat="43.1374228" lon="12.3223942"><ele>594.0</ele><time>2026-04-10T11:42:47.34Z</time></trkpt><trkpt lat="43.1374987" lon="12.3223022"><ele>594.0</ele><time>2026-04-10T11:42:48.311Z</time></trkpt><trkpt lat="43.1375692" lon="12.322226"><ele>594.0</ele><time>2026-04-10T11:42:49.331Z</time></trkpt><trkpt lat="43.1376374" lon="12.3221767"><ele>594.0</ele><time>2026-04-10T11:42:50.348Z</time></trkpt><trkpt lat="43.1377276" lon="12.3221455"><ele>591.0</ele><time>2026-04-10T11:42:51.338Z</time></trkpt><trkpt lat="43.1378272" lon="12.3221189"><ele>588.0</ele><time>2026-04-10T11:42:52.341Z</time></trkpt><trkpt lat="43.1379287" lon="12.3220964"><ele>585.0</ele><time>2026-04-10T11:42:53.356Z</time></trkpt><trkpt lat="43.1380326" lon="12.3220789"><ele>582.0</ele><time>2026-04-10T11:42:54.344Z</time></trkpt><trkpt lat="43.1381488" lon="12.3220695"><ele>579.0</ele><time>2026-04-10T11:42:55.342Z</time></trkpt><trkpt lat="43.1382576" lon="12.3220499"><ele>579.0</ele><time>2026-04-10T11:42:56.36Z</time></trkpt><trkpt lat="43.1383659" lon="12.322031"><ele>579.0</ele><time>2026-04-10T11:42:57.341Z</time></trkpt><trkpt lat="43.1384627" lon="12.3220263"><ele>579.0</ele><time>2026-04-10T11:42:58.359Z</time></trkpt><trkpt lat="43.1385417" lon="12.3220183"><ele>579.0</ele><time>2026-04-10T11:42:59.318Z</time></trkpt><trkpt lat="43.1386121" lon="12.3220037"><ele>579.0</ele><time>2026-04-10T11:43:00.345Z</time></trkpt><trkpt lat="43.1387228" lon="12.3219804"><ele>579.0</ele><time>2026-04-10T11:43:02.358Z</time></trkpt><trkpt lat="43.138787" lon="12.3219524"><ele>579.0</ele><time>2026-04-10T11:43:03.36Z</time></trkpt><trkpt lat="43.1388563" lon="12.3219048"><ele>579.0</ele><time>2026-04-10T11:43:04.357Z</time></trkpt><trkpt lat="43.13893" lon="12.3218575"><ele>579.0</ele><time>2026-04-10T11:43:05.351Z</time></trkpt><trkpt lat="43.1390129" lon="12.3218127"><ele>579.0</ele><time>2026-04-10T11:43:06.359Z</time></trkpt><trkpt lat="43.1390949" lon="12.3217693"><ele>579.0</ele><time>2026-04-10T11:43:07.345Z</time></trkpt><trkpt lat="43.139161" lon="12.3217285"><ele>579.2</ele><time>2026-04-10T11:43:08.368Z</time></trkpt><trkpt lat="43.1392191" lon="12.3216912"><ele>579.4</ele><time>2026-04-10T11:43:09.358Z</time></trkpt><trkpt lat="43.139323" lon="12.3216267"><ele>579.6</ele><time>2026-04-10T11:43:11.339Z</time></trkpt><trkpt lat="43.1394121" lon="12.3215534"><ele>579.8</ele><time>2026-04-10T11:43:13.355Z</time></trkpt><trkpt lat="43.1394958" lon="12.3214759"><ele>580.0</ele><time>2026-04-10T11:43:15.355Z</time></trkpt><trkpt lat="43.1395712" lon="12.3214011"><ele>578.3333333333334</ele><time>2026-04-10T11:43:17.346Z</time></trkpt><trkpt lat="43.1396366" lon="12.3213329"><ele>576.6666666666667</ele><time>2026-04-10T11:43:19.358Z</time></trkpt><trkpt lat="43.139691" lon="12.3212718"><ele>575.0</ele><time>2026-04-10T11:43:22.34Z</time></trkpt><trkpt lat="43.1397083" lon="12.3211807"><ele>573.3333333333334</ele><time>2026-04-10T11:44:30.356Z</time></trkpt><trkpt lat="43.1397554" lon="12.3210723"><ele>571.6666666666666</ele><time>2026-04-10T11:44:33.362Z</time></trkpt><trkpt lat="43.1398174" lon="12.3209961"><ele>570.0</ele><time>2026-04-10T11:44:35.334Z</time></trkpt><trkpt lat="43.1398716" lon="12.3209239"><ele>571.0</ele><time>2026-04-10T11:44:37.338Z</time></trkpt><trkpt lat="43.1399123" lon="12.3208238"><ele>572.0</ele><time>2026-04-10T11:44:39.325Z</time></trkpt><trkpt lat="43.1400202" lon="12.3206802"><ele>573.0</ele><time>2026-04-10T11:44:41.358Z</time></trkpt><trkpt lat="43.140113" lon="12.3205598"><ele>574.0</ele><time>2026-04-10T11:44:43.356Z</time></trkpt><trkpt lat="43.1401742" lon="12.3204502"><ele>574.0</ele><time>2026-04-10T11:44:45.345Z</time></trkpt><trkpt lat="43.1402229" lon="12.3203175"><ele>574.0</ele><time>2026-04-10T11:44:47.337Z</time></trkpt><trkpt lat="43.1402243" lon="12.3202065"><ele>574.0</ele><time>2026-04-10T11:44:51.341Z</time></trkpt><trkpt lat="43.1402045" lon="12.3201105"><ele>574.0</ele><time>2026-04-10T11:44:53.349Z</time></trkpt><trkpt lat="43.1401988" lon="12.320014"><ele>574.0</ele><time>2026-04-10T11:44:55.33Z</time></trkpt><trkpt lat="43.1402146" lon="12.3199201"><ele>574.0</ele><time>2026-04-10T11:44:57.354Z</time></trkpt><trkpt lat="43.1402463" lon="12.3198339"><ele>574.0</ele><time>2026-04-10T11:44:59.356Z</time></trkpt><trkpt lat="43.1402661" lon="12.3197508"><ele>574.0</ele><time>2026-04-10T11:45:02.359Z</time></trkpt><trkpt lat="43.1402878" lon="12.3196593"><ele>574.0</ele><time>2026-04-10T11:45:06.355Z</time></trkpt><trkpt lat="43.1402635" lon="12.3194851"><ele>574.0</ele><time>2026-04-10T11:45:45.337Z</time></trkpt><trkpt lat="43.1403164" lon="12.3193832"><ele>574.0</ele><time>2026-04-10T11:46:04.337Z</time></trkpt><trkpt lat="43.1403707" lon="12.3192728"><ele>573.2</ele><time>2026-04-10T11:46:07.358Z</time></trkpt><trkpt lat="43.1404121" lon="12.3191697"><ele>572.4</ele><time>2026-04-10T11:46:09.3Z</time></trkpt><trkpt lat="43.140448" lon="12.3190423"><ele>571.6</ele><time>2026-04-10T11:46:11.36Z</time></trkpt><trkpt lat="43.1404796" lon="12.3189133"><ele>570.8</ele><time>2026-04-10T11:46:13.353Z</time></trkpt><trkpt lat="43.1405224" lon="12.3187673"><ele>570.0</ele><time>2026-04-10T11:46:15.342Z</time></trkpt><trkpt lat="43.1405626" lon="12.3186212"><ele>566.8</ele><time>2026-04-10T11:46:17.353Z</time></trkpt><trkpt lat="43.1405963" lon="12.3184868"><ele>563.6</ele><time>2026-04-10T11:46:19.343Z</time></trkpt><trkpt lat="43.1406464" lon="12.3183699"><ele>560.4</ele><time>2026-04-10T11:46:21.35Z</time></trkpt><trkpt lat="43.1406934" lon="12.3182767"><ele>557.2</ele><time>2026-04-10T11:46:23.321Z</time></trkpt><trkpt lat="43.1407732" lon="12.3182173"><ele>554.0</ele><time>2026-04-10T11:46:25.345Z</time></trkpt><trkpt lat="43.1408586" lon="12.3181489"><ele>551.0</ele><time>2026-04-10T11:46:27.335Z</time></trkpt><trkpt lat="43.140952" lon="12.3180607"><ele>548.0</ele><time>2026-04-10T11:46:29.349Z</time></trkpt><trkpt lat="43.1410287" lon="12.3179627"><ele>545.0</ele><time>2026-04-10T11:46:31.343Z</time></trkpt><trkpt lat="43.1410963" lon="12.3178697"><ele>542.0</ele><time>2026-04-10T11:46:33.341Z</time></trkpt><trkpt lat="43.1411539" lon="12.3177928"><ele>539.0</ele><time>2026-04-10T11:46:35.333Z</time></trkpt><trkpt lat="43.1412041" lon="12.3177352"><ele>539.0</ele><time>2026-04-10T11:46:37.359Z</time></trkpt><trkpt lat="43.1412755" lon="12.3177033"><ele>539.0</ele><time>2026-04-10T11:46:40.337Z</time></trkpt><trkpt lat="43.1413579" lon="12.3176766"><ele>539.0</ele><time>2026-04-10T11:46:43.344Z</time></trkpt><trkpt lat="43.1414163" lon="12.317638"><ele>539.0</ele><time>2026-04-10T11:46:45.346Z</time></trkpt><trkpt lat="43.1414735" lon="12.3175957"><ele>539.0</ele><time>2026-04-10T11:46:47.345Z</time></trkpt><trkpt lat="43.1415315" lon="12.3175581"><ele>539.0</ele><time>2026-04-10T11:46:49.362Z</time></trkpt><trkpt lat="43.1416121" lon="12.3174821"><ele>537.8</ele><time>2026-04-10T11:46:52.337Z</time></trkpt><trkpt lat="43.1416757" lon="12.3174094"><ele>536.5999999999999</ele><time>2026-04-10T11:46:54.333Z</time></trkpt><trkpt lat="43.1417541" lon="12.3173127"><ele>535.4</ele><time>2026-04-10T11:46:56.348Z</time></trkpt><trkpt lat="43.1418513" lon="12.3171966"><ele>534.1999999999999</ele><time>2026-04-10T11:46:58.326Z</time></trkpt><trkpt lat="43.1419034" lon="12.3171221"><ele>533.0</ele><time>2026-04-10T11:46:59.342Z</time></trkpt><trkpt lat="43.1419623" lon="12.3170492"><ele>531.5</ele><time>2026-04-10T11:47:00.331Z</time></trkpt><trkpt lat="43.1420272" lon="12.3169848"><ele>530.0</ele><time>2026-04-10T11:47:01.346Z</time></trkpt><trkpt lat="43.1420973" lon="12.3169328"><ele>528.5</ele><time>2026-04-10T11:47:02.35Z</time></trkpt><trkpt lat="43.1421708" lon="12.3168761"><ele>527.0</ele><time>2026-04-10T11:47:03.34Z</time></trkpt><trkpt lat="43.1422318" lon="12.316814"><ele>525.5</ele><time>2026-04-10T11:47:04.344Z</time></trkpt><trkpt lat="43.142288" lon="12.3167537"><ele>524.0</ele><time>2026-04-10T11:47:05.298Z</time></trkpt><trkpt lat="43.1423744" lon="12.3166243"><ele>523.4</ele><time>2026-04-10T11:47:07.33Z</time></trkpt><trkpt lat="43.1424579" lon="12.3165097"><ele>522.8</ele><time>2026-04-10T11:47:09.34Z</time></trkpt><trkpt lat="43.1425015" lon="12.3164461"><ele>522.2</ele><time>2026-04-10T11:47:10.339Z</time></trkpt><trkpt lat="43.142572" lon="12.3163294"><ele>521.6</ele><time>2026-04-10T11:47:12.353Z</time></trkpt><trkpt lat="43.1426175" lon="12.3162656"><ele>521.0</ele><time>2026-04-10T11:47:13.325Z</time></trkpt><trkpt lat="43.1426806" lon="12.3161287"><ele>520.4</ele><time>2026-04-10T11:47:15.341Z</time></trkpt><trkpt lat="43.1427302" lon="12.3159871"><ele>519.8</ele><time>2026-04-10T11:47:17.35Z</time></trkpt><trkpt lat="43.1427856" lon="12.3158679"><ele>519.1999999999999</ele><time>2026-04-10T11:47:19.349Z</time></trkpt><trkpt lat="43.1428348" lon="12.3157476"><ele>518.6</ele><time>2026-04-10T11:47:21.339Z</time></trkpt><trkpt lat="43.142893" lon="12.3156144"><ele>518.0</ele><time>2026-04-10T11:47:23.272Z</time></trkpt><trkpt lat="43.1429304" lon="12.3155365"><ele>518.0</ele><time>2026-04-10T11:47:25.348Z</time></trkpt><trkpt lat="43.1429868" lon="12.3155929"><ele>518.0</ele><time>2026-04-10T11:47:28.336Z</time></trkpt><trkpt lat="43.1430078" lon="12.3157568"><ele>518.0</ele><time>2026-04-10T11:47:30.354Z</time></trkpt><trkpt lat="43.1430241" lon="12.3158588"><ele>518.0</ele><time>2026-04-10T11:47:31.359Z</time></trkpt><trkpt lat="43.143052" lon="12.3159572"><ele>518.0</ele><time>2026-04-10T11:47:32.342Z</time></trkpt><trkpt lat="43.1430868" lon="12.3160419"><ele>518.0</ele><time>2026-04-10T11:47:33.33Z</time></trkpt><trkpt lat="43.1431095" lon="12.3161274"><ele>518.0</ele><time>2026-04-10T11:47:34.356Z</time></trkpt><trkpt lat="43.1431171" lon="12.3162182"><ele>518.0</ele><time>2026-04-10T11:47:35.352Z</time></trkpt><trkpt lat="43.1431277" lon="12.3163735"><ele>518.0</ele><time>2026-04-10T11:47:37.352Z</time></trkpt><trkpt lat="43.1432012" lon="12.3164672"><ele>518.0</ele><time>2026-04-10T11:47:39.346Z</time></trkpt><trkpt lat="43.143266" lon="12.3164935"><ele>518.0</ele><time>2026-04-10T11:47:40.366Z</time></trkpt><trkpt lat="43.1433355" lon="12.3164985"><ele>518.0</ele><time>2026-04-10T11:47:41.347Z</time></trkpt><trkpt lat="43.143411" lon="12.3164957"><ele>515.3333333333333</ele><time>2026-04-10T11:47:42.353Z</time></trkpt><trkpt lat="43.1434994" lon="12.3164922"><ele>512.6666666666666</ele><time>2026-04-10T11:47:43.321Z</time></trkpt><trkpt lat="43.1435899" lon="12.3164915"><ele>510.0</ele><time>2026-04-10T11:47:44.366Z</time></trkpt><trkpt lat="43.1436905" lon="12.3164979"><ele>507.33333333333337</ele><time>2026-04-10T11:47:45.324Z</time></trkpt><trkpt lat="43.1437622" lon="12.3165157"><ele>504.6666666666667</ele><time>2026-04-10T11:47:46.341Z</time></trkpt><trkpt lat="43.1438277" lon="12.3165333"><ele>502.0</ele><time>2026-04-10T11:47:47.363Z</time></trkpt><trkpt lat="43.1439337" lon="12.3165601"><ele>502.0</ele><time>2026-04-10T11:47:49.347Z</time></trkpt><trkpt lat="43.1439936" lon="12.3166704"><ele>502.0</ele><time>2026-04-10T11:47:51.331Z</time></trkpt><trkpt lat="43.1440648" lon="12.3167869"><ele>502.0</ele><time>2026-04-10T11:47:53.288Z</time></trkpt><trkpt lat="43.1441621" lon="12.3168531"><ele>502.0</ele><time>2026-04-10T11:47:55.36Z</time></trkpt><trkpt lat="43.1442914" lon="12.3168253"><ele>500.50000000000006</ele><time>2026-04-10T11:47:57.329Z</time></trkpt><trkpt lat="43.1443621" lon="12.3168094"><ele>499.0</ele><time>2026-04-10T11:47:58.325Z</time></trkpt><trkpt lat="43.1444509" lon="12.316804"><ele>497.5</ele><time>2026-04-10T11:47:59.335Z</time></trkpt><trkpt lat="43.1445353" lon="12.3168381"><ele>496.0</ele><time>2026-04-10T11:48:00.343Z</time></trkpt><trkpt lat="43.1446254" lon="12.316893"><ele>494.50000000000006</ele><time>2026-04-10T11:48:01.331Z</time></trkpt><trkpt lat="43.1447142" lon="12.3169377"><ele>493.0</ele><time>2026-04-10T11:48:02.339Z</time></trkpt><trkpt lat="43.1448115" lon="12.3169523"><ele>492.2</ele><time>2026-04-10T11:48:03.326Z</time></trkpt><trkpt lat="43.1449018" lon="12.3169511"><ele>491.4</ele><time>2026-04-10T11:48:04.333Z</time></trkpt><trkpt lat="43.1449928" lon="12.3169367"><ele>490.59999999999997</ele><time>2026-04-10T11:48:05.373Z</time></trkpt><trkpt lat="43.1450936" lon="12.3169203"><ele>489.79999999999995</ele><time>2026-04-10T11:48:06.327Z</time></trkpt><trkpt lat="43.1451938" lon="12.3169063"><ele>489.0</ele><time>2026-04-10T11:48:07.346Z</time></trkpt><trkpt lat="43.1452971" lon="12.3168884"><ele>489.0</ele><time>2026-04-10T11:48:08.346Z</time></trkpt><trkpt lat="43.1453827" lon="12.3168572"><ele>489.0</ele><time>2026-04-10T11:48:09.352Z</time></trkpt><trkpt lat="43.1454525" lon="12.3168317"><ele>489.0</ele><time>2026-04-10T11:48:10.374Z</time></trkpt><trkpt lat="43.1455476" lon="12.3167807"><ele>489.0</ele><time>2026-04-10T11:48:12.375Z</time></trkpt><trkpt lat="43.1456125" lon="12.3167165"><ele>489.0</ele><time>2026-04-10T11:48:14.347Z</time></trkpt><trkpt lat="43.1456673" lon="12.3166586"><ele>489.0</ele><time>2026-04-10T11:48:17.352Z</time></trkpt><trkpt lat="43.1457029" lon="12.3167386"><ele>489.0</ele><time>2026-04-10T11:49:57.324Z</time></trkpt><trkpt lat="43.1456512" lon="12.3166853"><ele>489.0</ele><time>2026-04-10T11:50:39.36Z</time></trkpt><trkpt lat="43.1456708" lon="12.3165818"><ele>489.0</ele><time>2026-04-10T11:51:12.357Z</time></trkpt><trkpt lat="43.145764" lon="12.3165124"><ele>489.0</ele><time>2026-04-10T11:52:14.336Z</time></trkpt><trkpt lat="43.1458521" lon="12.316443"><ele>489.0</ele><time>2026-04-10T11:52:16.381Z</time></trkpt><trkpt lat="43.1459192" lon="12.316358"><ele>489.0</ele><time>2026-04-10T11:52:18.347Z</time></trkpt><trkpt lat="43.1459912" lon="12.3163024"><ele>488.6666666666667</ele><time>2026-04-10T11:52:20.3Z</time></trkpt><trkpt lat="43.1460681" lon="12.3162675"><ele>488.33333333333337</ele><time>2026-04-10T11:52:22.335Z</time></trkpt><trkpt lat="43.1461298" lon="12.316228"><ele>488.0</ele><time>2026-04-10T11:52:24.343Z</time></trkpt><trkpt lat="43.1461986" lon="12.3161678"><ele>487.6666666666667</ele><time>2026-04-10T11:52:26.331Z</time></trkpt><trkpt lat="43.1462758" lon="12.3161151"><ele>487.33333333333337</ele><time>2026-04-10T11:52:28.301Z</time></trkpt><trkpt lat="43.1463846" lon="12.3160371"><ele>487.0</ele><time>2026-04-10T11:52:30.344Z</time></trkpt><trkpt lat="43.1464898" lon="12.3159599"><ele>486.8</ele><time>2026-04-10T11:52:32.362Z</time></trkpt><trkpt lat="43.146585" lon="12.3158778"><ele>486.6</ele><time>2026-04-10T11:52:34.334Z</time></trkpt><trkpt lat="43.1466634" lon="12.3157899"><ele>486.40000000000003</ele><time>2026-04-10T11:52:36.328Z</time></trkpt><trkpt lat="43.146734" lon="12.3157248"><ele>486.20000000000005</ele><time>2026-04-10T11:52:38.349Z</time></trkpt><trkpt lat="43.1468077" lon="12.3156696"><ele>486.0</ele><time>2026-04-10T11:52:40.346Z</time></trkpt><trkpt lat="43.1468785" lon="12.3156198"><ele>483.4</ele><time>2026-04-10T11:52:42.343Z</time></trkpt><trkpt lat="43.1469632" lon="12.315568"><ele>480.8</ele><time>2026-04-10T11:52:44.322Z</time></trkpt><trkpt lat="43.1470558" lon="12.3154865"><ele>478.19999999999993</ele><time>2026-04-10T11:52:46.333Z</time></trkpt><trkpt lat="43.1471661" lon="12.3154032"><ele>475.59999999999997</ele><time>2026-04-10T11:52:48.328Z</time></trkpt><trkpt lat="43.1472415" lon="12.3153666"><ele>473.0</ele><time>2026-04-10T11:52:49.326Z</time></trkpt><trkpt lat="43.1473076" lon="12.3153364"><ele>472.4</ele><time>2026-04-10T11:52:50.295Z</time></trkpt><trkpt lat="43.1474155" lon="12.3152677"><ele>471.79999999999995</ele><time>2026-04-10T11:52:52.321Z</time></trkpt><trkpt lat="43.1474739" lon="12.3152319"><ele>471.2</ele><time>2026-04-10T11:52:53.307Z</time></trkpt><trkpt lat="43.1475687" lon="12.3151324"><ele>470.6</ele><time>2026-04-10T11:52:55.335Z</time></trkpt><trkpt lat="43.1476578" lon="12.3150385"><ele>470.0</ele><time>2026-04-10T11:52:57.328Z</time></trkpt><trkpt lat="43.1477163" lon="12.3149644"><ele>469.99999999999994</ele><time>2026-04-10T11:52:59.34Z</time></trkpt><trkpt lat="43.147799" lon="12.3149365"><ele>470.0</ele><time>2026-04-10T11:53:02.332Z</time></trkpt><trkpt lat="43.1478808" lon="12.3149192"><ele>470.0</ele><time>2026-04-10T11:53:05.318Z</time></trkpt><trkpt lat="43.147957" lon="12.3149138"><ele>470.0</ele><time>2026-04-10T11:53:07.339Z</time></trkpt><trkpt lat="43.1480352" lon="12.3149242"><ele>469.99999999999994</ele><time>2026-04-10T11:53:09.32Z</time></trkpt><trkpt lat="43.1481076" lon="12.3148738"><ele>470.0</ele><time>2026-04-10T11:53:11.33Z</time></trkpt><trkpt lat="43.1481696" lon="12.3147124"><ele>467.8</ele><time>2026-04-10T11:53:13.298Z</time></trkpt><trkpt lat="43.1481852" lon="12.3145895"><ele>465.6</ele><time>2026-04-10T11:53:14.318Z</time></trkpt><trkpt lat="43.1481927" lon="12.3144553"><ele>463.4</ele><time>2026-04-10T11:53:15.333Z</time></trkpt><trkpt lat="43.1481868" lon="12.3143166"><ele>461.2</ele><time>2026-04-10T11:53:16.322Z</time></trkpt><trkpt lat="43.1481834" lon="12.3141739"><ele>459.0</ele><time>2026-04-10T11:53:17.27Z</time></trkpt><trkpt lat="43.1481798" lon="12.3140225"><ele>457.8333333333333</ele><time>2026-04-10T11:53:18.347Z</time></trkpt><trkpt lat="43.148181" lon="12.3138826"><ele>456.66666666666663</ele><time>2026-04-10T11:53:19.329Z</time></trkpt><trkpt lat="43.1481808" lon="12.3137578"><ele>455.5</ele><time>2026-04-10T11:53:20.277Z</time></trkpt><trkpt lat="43.1481713" lon="12.313649"><ele>454.3333333333333</ele><time>2026-04-10T11:53:21.333Z</time></trkpt><trkpt lat="43.1481397" lon="12.3135456"><ele>453.16666666666663</ele><time>2026-04-10T11:53:22.332Z</time></trkpt><trkpt lat="43.1481144" lon="12.3134656"><ele>452.0</ele><time>2026-04-10T11:53:23.355Z</time></trkpt><trkpt lat="43.1480801" lon="12.3133316"><ele>451.99999999999994</ele><time>2026-04-10T11:53:25.34Z</time></trkpt><trkpt lat="43.1480994" lon="12.3131912"><ele>452.0</ele><time>2026-04-10T11:53:27.34Z</time></trkpt><trkpt lat="43.1481373" lon="12.3131222"><ele>452.0</ele><time>2026-04-10T11:53:28.328Z</time></trkpt><trkpt lat="43.1481863" lon="12.3130595"><ele>452.0</ele><time>2026-04-10T11:53:29.339Z</time></trkpt><trkpt lat="43.1482871" lon="12.3129397"><ele>451.99999999999994</ele><time>2026-04-10T11:53:31.336Z</time></trkpt><trkpt lat="43.1483419" lon="12.3128729"><ele>452.0</ele><time>2026-04-10T11:53:32.311Z</time></trkpt><trkpt lat="43.1483941" lon="12.3128032"><ele>453.20000000000005</ele><time>2026-04-10T11:53:33.349Z</time></trkpt><trkpt lat="43.1484628" lon="12.312675"><ele>454.40000000000003</ele><time>2026-04-10T11:53:35.354Z</time></trkpt><trkpt lat="43.148492" lon="12.3125216"><ele>455.59999999999997</ele><time>2026-04-10T11:53:37.33Z</time></trkpt><trkpt lat="43.1485125" lon="12.31239"><ele>456.79999999999995</ele><time>2026-04-10T11:53:39.316Z</time></trkpt><trkpt lat="43.1485664" lon="12.3122671"><ele>458.0</ele><time>2026-04-10T11:53:41.335Z</time></trkpt><trkpt lat="43.1486113" lon="12.3121643"><ele>455.66666666666663</ele><time>2026-04-10T11:53:43.349Z</time></trkpt><trkpt lat="43.1485862" lon="12.312067"><ele>453.3333333333333</ele><time>2026-04-10T11:53:47.344Z</time></trkpt><trkpt lat="43.1484978" lon="12.3120187"><ele>451.0</ele><time>2026-04-10T11:53:50.309Z</time></trkpt><trkpt lat="43.1484468" lon="12.3119668"><ele>448.66666666666663</ele><time>2026-04-10T11:53:52.344Z</time></trkpt><trkpt lat="43.1484186" lon="12.3118601"><ele>446.3333333333333</ele><time>2026-04-10T11:53:55.348Z</time></trkpt><trkpt lat="43.148501" lon="12.3117738"><ele>444.0</ele><time>2026-04-10T11:53:57.354Z</time></trkpt><trkpt lat="43.1485619" lon="12.311734"><ele>444.0</ele><time>2026-04-10T11:53:58.328Z</time></trkpt><trkpt lat="43.1486422" lon="12.3116884"><ele>444.0</ele><time>2026-04-10T11:53:59.347Z</time></trkpt><trkpt lat="43.1487164" lon="12.3116545"><ele>444.0</ele><time>2026-04-10T11:54:00.322Z</time></trkpt><trkpt lat="43.1487913" lon="12.3116242"><ele>444.0</ele><time>2026-04-10T11:54:01.348Z</time></trkpt><trkpt lat="43.1488588" lon="12.3115914"><ele>444.0</ele><time>2026-04-10T11:54:02.348Z</time></trkpt><trkpt lat="43.1489358" lon="12.3115633"><ele>444.0</ele><time>2026-04-10T11:54:03.341Z</time></trkpt><trkpt lat="43.1490099" lon="12.3115341"><ele>444.4285714285714</ele><time>2026-04-10T11:54:04.338Z</time></trkpt><trkpt lat="43.1490766" lon="12.3115034"><ele>444.8571428571429</ele><time>2026-04-10T11:54:05.357Z</time></trkpt><trkpt lat="43.1491483" lon="12.311474"><ele>445.2857142857143</ele><time>2026-04-10T11:54:06.363Z</time></trkpt><trkpt lat="43.1492179" lon="12.3114571"><ele>445.71428571428567</ele><time>2026-04-10T11:54:07.348Z</time></trkpt><trkpt lat="43.149284" lon="12.3114276"><ele>446.1428571428571</ele><time>2026-04-10T11:54:08.352Z</time></trkpt><trkpt lat="43.1493463" lon="12.3113949"><ele>446.57142857142856</ele><time>2026-04-10T11:54:09.315Z</time></trkpt><trkpt lat="43.1494183" lon="12.3113696"><ele>447.0</ele><time>2026-04-10T11:54:10.325Z</time></trkpt><trkpt lat="43.1494926" lon="12.3113424"><ele>445.1428571428571</ele><time>2026-04-10T11:54:11.356Z</time></trkpt><trkpt lat="43.1495668" lon="12.3113182"><ele>443.2857142857143</ele><time>2026-04-10T11:54:12.341Z</time></trkpt><trkpt lat="43.149638" lon="12.3112967"><ele>441.42857142857144</ele><time>2026-04-10T11:54:13.362Z</time></trkpt><trkpt lat="43.1497087" lon="12.3112677"><ele>439.57142857142856</ele><time>2026-04-10T11:54:14.345Z</time></trkpt><trkpt lat="43.1497816" lon="12.3112478"><ele>437.7142857142857</ele><time>2026-04-10T11:54:15.329Z</time></trkpt><trkpt lat="43.1498524" lon="12.311222"><ele>435.85714285714283</ele><time>2026-04-10T11:54:16.3Z</time></trkpt><trkpt lat="43.1499193" lon="12.3111983"><ele>434.0</ele><time>2026-04-10T11:54:17.322Z</time></trkpt><trkpt lat="43.1499909" lon="12.3111755"><ele>434.0</ele><time>2026-04-10T11:54:18.321Z</time></trkpt><trkpt lat="43.1500979" lon="12.3111782"><ele>434.0</ele><time>2026-04-10T11:54:20.335Z</time></trkpt><trkpt lat="43.1502097" lon="12.3112679"><ele>434.0</ele><time>2026-04-10T11:54:22.34Z</time></trkpt><trkpt lat="43.1502605" lon="12.3114236"><ele>434.0</ele><time>2026-04-10T11:54:24.336Z</time></trkpt><trkpt lat="43.1502879" lon="12.3115964"><ele>434.49999999999994</ele><time>2026-04-10T11:54:26.319Z</time></trkpt><trkpt lat="43.1503026" lon="12.3116895"><ele>435.0</ele><time>2026-04-10T11:54:27.31Z</time></trkpt><trkpt lat="43.1503189" lon="12.3117907"><ele>435.5</ele><time>2026-04-10T11:54:28.342Z</time></trkpt><trkpt lat="43.1503632" lon="12.3118916"><ele>436.0</ele><time>2026-04-10T11:54:29.31Z</time></trkpt><trkpt lat="43.1504259" lon="12.3119877"><ele>436.49999999999994</ele><time>2026-04-10T11:54:30.32Z</time></trkpt><trkpt lat="43.1504932" lon="12.312059"><ele>437.0</ele><time>2026-04-10T11:54:31.314Z</time></trkpt><trkpt lat="43.1505565" lon="12.3121251"><ele>436.99999999999994</ele><time>2026-04-10T11:54:32.352Z</time></trkpt><trkpt lat="43.1506086" lon="12.3121958"><ele>437.0</ele><time>2026-04-10T11:54:33.357Z</time></trkpt><trkpt lat="43.1506594" lon="12.3122678"><ele>437.0</ele><time>2026-04-10T11:54:34.327Z</time></trkpt><trkpt lat="43.1507085" lon="12.31235"><ele>437.0</ele><time>2026-04-10T11:54:35.291Z</time></trkpt><trkpt lat="43.1507542" lon="12.3124362"><ele>436.99999999999994</ele><time>2026-04-10T11:54:36.323Z</time></trkpt><trkpt lat="43.1508079" lon="12.3125218"><ele>437.0</ele><time>2026-04-10T11:54:37.351Z</time></trkpt><trkpt lat="43.1508606" lon="12.3126009"><ele>435.3333333333333</ele><time>2026-04-10T11:54:38.35Z</time></trkpt><trkpt lat="43.1509134" lon="12.3126818"><ele>433.66666666666663</ele><time>2026-04-10T11:54:39.328Z</time></trkpt><trkpt lat="43.1509664" lon="12.3127652"><ele>432.0</ele><time>2026-04-10T11:54:40.309Z</time></trkpt><trkpt lat="43.1510208" lon="12.3128449"><ele>430.33333333333337</ele><time>2026-04-10T11:54:41.349Z</time></trkpt><trkpt lat="43.1510849" lon="12.3129284"><ele>428.6666666666667</ele><time>2026-04-10T11:54:42.334Z</time></trkpt><trkpt lat="43.151154" lon="12.3130104"><ele>427.0</ele><time>2026-04-10T11:54:43.338Z</time></trkpt><trkpt lat="43.151218" lon="12.3130839"><ele>427.00000000000006</ele><time>2026-04-10T11:54:44.338Z</time></trkpt><trkpt lat="43.1512742" lon="12.3131653"><ele>427.0</ele><time>2026-04-10T11:54:45.338Z</time></trkpt><trkpt lat="43.1513328" lon="12.3132474"><ele>427.0</ele><time>2026-04-10T11:54:46.336Z</time></trkpt><trkpt lat="43.1513904" lon="12.3133335"><ele>427.0</ele><time>2026-04-10T11:54:47.344Z</time></trkpt><trkpt lat="43.1514568" lon="12.3134102"><ele>427.00000000000006</ele><time>2026-04-10T11:54:48.341Z</time></trkpt><trkpt lat="43.1515315" lon="12.3134687"><ele>427.0</ele><time>2026-04-10T11:54:49.364Z</time></trkpt><trkpt lat="43.1516067" lon="12.3135267"><ele>424.33333333333337</ele><time>2026-04-10T11:54:50.326Z</time></trkpt><trkpt lat="43.1516754" lon="12.3135872"><ele>421.6666666666667</ele><time>2026-04-10T11:54:51.322Z</time></trkpt><trkpt lat="43.1517338" lon="12.3136527"><ele>419.0</ele><time>2026-04-10T11:54:52.346Z</time></trkpt><trkpt lat="43.1517999" lon="12.3137141"><ele>416.33333333333337</ele><time>2026-04-10T11:54:53.325Z</time></trkpt><trkpt lat="43.1518606" lon="12.3137829"><ele>413.6666666666667</ele><time>2026-04-10T11:54:54.351Z</time></trkpt><trkpt lat="43.1519206" lon="12.3138415"><ele>411.0</ele><time>2026-04-10T11:54:55.348Z</time></trkpt><trkpt lat="43.151983" lon="12.3139106"><ele>411.0</ele><time>2026-04-10T11:54:56.34Z</time></trkpt><trkpt lat="43.1520415" lon="12.3139674"><ele>411.0</ele><time>2026-04-10T11:54:57.33Z</time></trkpt><trkpt lat="43.1520941" lon="12.3140264"><ele>411.0</ele><time>2026-04-10T11:54:58.365Z</time></trkpt><trkpt lat="43.152151" lon="12.3140902"><ele>411.0</ele><time>2026-04-10T11:54:59.336Z</time></trkpt><trkpt lat="43.1522112" lon="12.3141669"><ele>411.0</ele><time>2026-04-10T11:55:00.279Z</time></trkpt><trkpt lat="43.1522692" lon="12.3142511"><ele>411.0</ele><time>2026-04-10T11:55:01.33Z</time></trkpt><trkpt lat="43.1523363" lon="12.3143321"><ele>409.6666666666667</ele><time>2026-04-10T11:55:02.347Z</time></trkpt><trkpt lat="43.152404" lon="12.314406"><ele>408.33333333333337</ele><time>2026-04-10T11:55:03.342Z</time></trkpt><trkpt lat="43.1524654" lon="12.3144585"><ele>407.0</ele><time>2026-04-10T11:55:04.346Z</time></trkpt><trkpt lat="43.1525257" lon="12.3145206"><ele>405.6666666666667</ele><time>2026-04-10T11:55:05.347Z</time></trkpt><trkpt lat="43.1525935" lon="12.3145679"><ele>404.33333333333337</ele><time>2026-04-10T11:55:06.314Z</time></trkpt><trkpt lat="43.1526496" lon="12.3146412"><ele>403.0</ele><time>2026-04-10T11:55:07.329Z</time></trkpt><trkpt lat="43.1527097" lon="12.3147266"><ele>403.83333333333337</ele><time>2026-04-10T11:55:08.335Z</time></trkpt><trkpt lat="43.1527579" lon="12.3148117"><ele>404.6666666666667</ele><time>2026-04-10T11:55:09.344Z</time></trkpt><trkpt lat="43.1528091" lon="12.3148994"><ele>405.5</ele><time>2026-04-10T11:55:10.332Z</time></trkpt><trkpt lat="43.1528551" lon="12.3149763"><ele>406.33333333333337</ele><time>2026-04-10T11:55:11.359Z</time></trkpt><trkpt lat="43.1529017" lon="12.3150417"><ele>407.1666666666667</ele><time>2026-04-10T11:55:12.37Z</time></trkpt><trkpt lat="43.1529395" lon="12.3151241"><ele>408.0</ele><time>2026-04-10T11:55:13.324Z</time></trkpt><trkpt lat="43.1529827" lon="12.3152147"><ele>408.0</ele><time>2026-04-10T11:55:14.336Z</time></trkpt><trkpt lat="43.1530351" lon="12.3152926"><ele>408.0</ele><time>2026-04-10T11:55:15.359Z</time></trkpt><trkpt lat="43.153082" lon="12.3153822"><ele>408.0</ele><time>2026-04-10T11:55:16.347Z</time></trkpt><trkpt lat="43.1531398" lon="12.3154561"><ele>408.0</ele><time>2026-04-10T11:55:17.321Z</time></trkpt><trkpt lat="43.1531993" lon="12.3155103"><ele>408.0</ele><time>2026-04-10T11:55:18.337Z</time></trkpt><trkpt lat="43.153275" lon="12.3155329"><ele>408.0</ele><time>2026-04-10T11:55:19.35Z</time></trkpt><trkpt lat="43.1533708" lon="12.3155518"><ele>406.8333333333333</ele><time>2026-04-10T11:55:20.324Z</time></trkpt><trkpt lat="43.1534634" lon="12.3155666"><ele>405.66666666666663</ele><time>2026-04-10T11:55:21.332Z</time></trkpt><trkpt lat="43.1535481" lon="12.3155853"><ele>404.5</ele><time>2026-04-10T11:55:22.341Z</time></trkpt><trkpt lat="43.1536503" lon="12.3156286"><ele>403.3333333333333</ele><time>2026-04-10T11:55:23.342Z</time></trkpt><trkpt lat="43.1537356" lon="12.3156571"><ele>402.16666666666663</ele><time>2026-04-10T11:55:24.345Z</time></trkpt><trkpt lat="43.1538031" lon="12.315684"><ele>401.0</ele><time>2026-04-10T11:55:25.336Z</time></trkpt><trkpt lat="43.1538727" lon="12.3157271"><ele>400.99999999999994</ele><time>2026-04-10T11:55:26.337Z</time></trkpt><trkpt lat="43.153951" lon="12.3157861"><ele>401.0</ele><time>2026-04-10T11:55:27.335Z</time></trkpt><trkpt lat="43.1540277" lon="12.3158479"><ele>401.0</ele><time>2026-04-10T11:55:28.364Z</time></trkpt><trkpt lat="43.1540927" lon="12.3159229"><ele>401.0</ele><time>2026-04-10T11:55:29.349Z</time></trkpt><trkpt lat="43.1541495" lon="12.3159897"><ele>400.99999999999994</ele><time>2026-04-10T11:55:30.311Z</time></trkpt><trkpt lat="43.1542054" lon="12.3160601"><ele>401.0</ele><time>2026-04-10T11:55:31.324Z</time></trkpt><trkpt lat="43.1542474" lon="12.3161428"><ele>397.6</ele><time>2026-04-10T11:55:32.276Z</time></trkpt><trkpt lat="43.1542923" lon="12.3162161"><ele>394.20000000000005</ele><time>2026-04-10T11:55:33.331Z</time></trkpt><trkpt lat="43.1543454" lon="12.3163632"><ele>390.79999999999995</ele><time>2026-04-10T11:55:35.343Z</time></trkpt><trkpt lat="43.1543842" lon="12.3165158"><ele>387.4</ele><time>2026-04-10T11:55:37.348Z</time></trkpt><trkpt lat="43.1543874" lon="12.3166131"><ele>384.0</ele><time>2026-04-10T11:55:38.34Z</time></trkpt><trkpt lat="43.1543843" lon="12.3167122"><ele>384.0</ele><time>2026-04-10T11:55:39.327Z</time></trkpt><trkpt lat="43.1543928" lon="12.3167989"><ele>384.0</ele><time>2026-04-10T11:55:40.325Z</time></trkpt><trkpt lat="43.1544009" lon="12.3169609"><ele>384.0</ele><time>2026-04-10T11:55:42.346Z</time></trkpt><trkpt lat="43.1544365" lon="12.3170656"><ele>384.0</ele><time>2026-04-10T11:55:44.362Z</time></trkpt><trkpt lat="43.1545114" lon="12.3170335"><ele>384.0</ele><time>2026-04-10T11:55:46.347Z</time></trkpt><trkpt lat="43.1546161" lon="12.3169711"><ele>384.0</ele><time>2026-04-10T11:55:48.313Z</time></trkpt><trkpt lat="43.1547334" lon="12.3168973"><ele>384.0</ele><time>2026-04-10T11:55:50.334Z</time></trkpt><trkpt lat="43.1548023" lon="12.3168449"><ele>384.0</ele><time>2026-04-10T11:55:51.297Z</time></trkpt><trkpt lat="43.1548997" lon="12.3167859"><ele>384.0</ele><time>2026-04-10T11:55:52.353Z</time></trkpt><trkpt lat="43.1550082" lon="12.3167233"><ele>384.0</ele><time>2026-04-10T11:55:53.342Z</time></trkpt><trkpt lat="43.1551085" lon="12.3166783"><ele>381.8333333333333</ele><time>2026-04-10T11:55:54.348Z</time></trkpt><trkpt lat="43.1552108" lon="12.3166428"><ele>379.6666666666667</ele><time>2026-04-10T11:55:55.327Z</time></trkpt><trkpt lat="43.155308" lon="12.3166182"><ele>377.5</ele><time>2026-04-10T11:55:56.319Z</time></trkpt><trkpt lat="43.1553983" lon="12.3166118"><ele>375.33333333333337</ele><time>2026-04-10T11:55:57.34Z</time></trkpt><trkpt lat="43.1554734" lon="12.3166092"><ele>373.1666666666667</ele><time>2026-04-10T11:55:58.337Z</time></trkpt><trkpt lat="43.1555517" lon="12.3166144"><ele>371.0</ele><time>2026-04-10T11:55:59.336Z</time></trkpt><trkpt lat="43.1556221" lon="12.3166341"><ele>371.0</ele><time>2026-04-10T11:56:00.338Z</time></trkpt><trkpt lat="43.1556873" lon="12.316671"><ele>371.0</ele><time>2026-04-10T11:56:01.34Z</time></trkpt><trkpt lat="43.1557542" lon="12.3167255"><ele>371.0</ele><time>2026-04-10T11:56:02.315Z</time></trkpt><trkpt lat="43.1558112" lon="12.3167838"><ele>371.0</ele><time>2026-04-10T11:56:03.354Z</time></trkpt><trkpt lat="43.1558586" lon="12.3168483"><ele>371.0</ele><time>2026-04-10T11:56:04.331Z</time></trkpt><trkpt lat="43.1559134" lon="12.3169302"><ele>371.0</ele><time>2026-04-10T11:56:05.334Z</time></trkpt><trkpt lat="43.1559629" lon="12.3170127"><ele>371.0</ele><time>2026-04-10T11:56:06.362Z</time></trkpt><trkpt lat="43.1560116" lon="12.3170998"><ele>371.6666666666667</ele><time>2026-04-10T11:56:07.351Z</time></trkpt><trkpt lat="43.1560658" lon="12.3171841"><ele>372.33333333333337</ele><time>2026-04-10T11:56:08.337Z</time></trkpt><trkpt lat="43.1561222" lon="12.3172665"><ele>373.0</ele><time>2026-04-10T11:56:09.33Z</time></trkpt><trkpt lat="43.1561814" lon="12.3173424"><ele>373.6666666666667</ele><time>2026-04-10T11:56:10.339Z</time></trkpt><trkpt lat="43.1562345" lon="12.3174271"><ele>374.3333333333333</ele><time>2026-04-10T11:56:11.338Z</time></trkpt><trkpt lat="43.1562906" lon="12.3175189"><ele>375.0</ele><time>2026-04-10T11:56:12.35Z</time></trkpt><trkpt lat="43.1563446" lon="12.3176137"><ele>375.0</ele><time>2026-04-10T11:56:13.354Z</time></trkpt><trkpt lat="43.1563879" lon="12.3177136"><ele>375.0</ele><time>2026-04-10T11:56:14.355Z</time></trkpt><trkpt lat="43.1564397" lon="12.3178042"><ele>375.0</ele><time>2026-04-10T11:56:15.348Z</time></trkpt><trkpt lat="43.1564965" lon="12.3178986"><ele>375.0</ele><time>2026-04-10T11:56:16.354Z</time></trkpt><trkpt lat="43.1565571" lon="12.3179891"><ele>375.0</ele><time>2026-04-10T11:56:17.348Z</time></trkpt><trkpt lat="43.1566198" lon="12.3180813"><ele>375.0</ele><time>2026-04-10T11:56:18.334Z</time></trkpt><trkpt lat="43.1566836" lon="12.3181653"><ele>371.8333333333333</ele><time>2026-04-10T11:56:19.339Z</time></trkpt><trkpt lat="43.1567384" lon="12.3182528"><ele>368.6666666666667</ele><time>2026-04-10T11:56:20.318Z</time></trkpt><trkpt lat="43.1567841" lon="12.3183383"><ele>365.5</ele><time>2026-04-10T11:56:21.335Z</time></trkpt><trkpt lat="43.1568245" lon="12.3184333"><ele>362.33333333333337</ele><time>2026-04-10T11:56:22.359Z</time></trkpt><trkpt lat="43.1568562" lon="12.3185539"><ele>359.1666666666667</ele><time>2026-04-10T11:56:23.356Z</time></trkpt><trkpt lat="43.1568747" lon="12.3186937"><ele>356.0</ele><time>2026-04-10T11:56:24.351Z</time></trkpt><trkpt lat="43.1568854" lon="12.3188385"><ele>356.33333333333337</ele><time>2026-04-10T11:56:25.34Z</time></trkpt><trkpt lat="43.1569002" lon="12.3189629"><ele>356.6666666666667</ele><time>2026-04-10T11:56:26.342Z</time></trkpt><trkpt lat="43.1569156" lon="12.3190867"><ele>357.0</ele><time>2026-04-10T11:56:27.337Z</time></trkpt><trkpt lat="43.1569247" lon="12.3192107"><ele>357.3333333333333</ele><time>2026-04-10T11:56:28.368Z</time></trkpt><trkpt lat="43.1569394" lon="12.3193259"><ele>357.66666666666663</ele><time>2026-04-10T11:56:29.354Z</time></trkpt><trkpt lat="43.1569548" lon="12.3194362"><ele>358.0</ele><time>2026-04-10T11:56:30.363Z</time></trkpt><trkpt lat="43.156966" lon="12.319546"><ele>358.0</ele><time>2026-04-10T11:56:31.365Z</time></trkpt><trkpt lat="43.1569793" lon="12.3196559"><ele>358.0</ele><time>2026-04-10T11:56:32.323Z</time></trkpt><trkpt lat="43.1569909" lon="12.3197674"><ele>358.0</ele><time>2026-04-10T11:56:33.346Z</time></trkpt><trkpt lat="43.1570059" lon="12.3198852"><ele>358.0</ele><time>2026-04-10T11:56:34.352Z</time></trkpt><trkpt lat="43.157028" lon="12.3199933"><ele>358.0</ele><time>2026-04-10T11:56:35.343Z</time></trkpt><trkpt lat="43.1570494" lon="12.3200887"><ele>358.0</ele><time>2026-04-10T11:56:36.355Z</time></trkpt><trkpt lat="43.1570867" lon="12.3202537"><ele>357.0</ele><time>2026-04-10T11:56:38.348Z</time></trkpt><trkpt lat="43.1570948" lon="12.3203821"><ele>356.0</ele><time>2026-04-10T11:56:40.343Z</time></trkpt><trkpt lat="43.1571814" lon="12.320419"><ele>355.0</ele><time>2026-04-10T11:56:43.341Z</time></trkpt><trkpt lat="43.1572466" lon="12.3203751"><ele>354.0</ele><time>2026-04-10T11:56:44.342Z</time></trkpt><trkpt lat="43.1573113" lon="12.3203025"><ele>353.0</ele><time>2026-04-10T11:56:45.322Z</time></trkpt><trkpt lat="43.15737" lon="12.3202198"><ele>352.0</ele><time>2026-04-10T11:56:46.324Z</time></trkpt><trkpt lat="43.1574216" lon="12.3201361"><ele>346.8</ele><time>2026-04-10T11:56:47.338Z</time></trkpt><trkpt lat="43.1574631" lon="12.3200542"><ele>341.6</ele><time>2026-04-10T11:56:48.334Z</time></trkpt><trkpt lat="43.1574932" lon="12.3199717"><ele>336.40000000000003</ele><time>2026-04-10T11:56:49.343Z</time></trkpt><trkpt lat="43.1575382" lon="12.3198472"><ele>331.20000000000005</ele><time>2026-04-10T11:56:51.336Z</time></trkpt><trkpt lat="43.1576286" lon="12.3198313"><ele>326.0</ele><time>2026-04-10T11:56:53.329Z</time></trkpt><trkpt lat="43.1577002" lon="12.3199859"><ele>326.0</ele><time>2026-04-10T11:56:55.304Z</time></trkpt><trkpt lat="43.1577181" lon="12.3200841"><ele>326.0</ele><time>2026-04-10T11:56:56.34Z</time></trkpt><trkpt lat="43.15772" lon="12.3201823"><ele>326.0</ele><time>2026-04-10T11:56:57.34Z</time></trkpt><trkpt lat="43.1577043" lon="12.3202788"><ele>326.0</ele><time>2026-04-10T11:56:58.348Z</time></trkpt><trkpt lat="43.1576583" lon="12.3203983"><ele>326.0</ele><time>2026-04-10T11:56:59.334Z</time></trkpt><trkpt lat="43.1576039" lon="12.3204895"><ele>326.0</ele><time>2026-04-10T11:57:00.339Z</time></trkpt><trkpt lat="43.1575641" lon="12.3205648"><ele>325.6666666666667</ele><time>2026-04-10T11:57:01.333Z</time></trkpt><trkpt lat="43.1575206" lon="12.3206427"><ele>325.33333333333337</ele><time>2026-04-10T11:57:02.322Z</time></trkpt><trkpt lat="43.1575154" lon="12.3208107"><ele>325.0</ele><time>2026-04-10T11:57:04.347Z</time></trkpt><trkpt lat="43.1575623" lon="12.3208818"><ele>324.6666666666667</ele><time>2026-04-10T11:57:05.354Z</time></trkpt><trkpt lat="43.1576413" lon="12.3209429"><ele>324.3333333333333</ele><time>2026-04-10T11:57:06.34Z</time></trkpt><trkpt lat="43.1577188" lon="12.3209803"><ele>324.0</ele><time>2026-04-10T11:57:07.283Z</time></trkpt><trkpt lat="43.1578146" lon="12.3210138"><ele>324.0</ele><time>2026-04-10T11:57:08.31Z</time></trkpt><trkpt lat="43.1579166" lon="12.3210281"><ele>324.0</ele><time>2026-04-10T11:57:09.339Z</time></trkpt><trkpt lat="43.1580076" lon="12.3210512"><ele>324.0</ele><time>2026-04-10T11:57:10.327Z</time></trkpt><trkpt lat="43.1581067" lon="12.3210544"><ele>324.0</ele><time>2026-04-10T11:57:11.343Z</time></trkpt><trkpt lat="43.1582075" lon="12.321053"><ele>324.0</ele><time>2026-04-10T11:57:12.343Z</time></trkpt><trkpt lat="43.1583118" lon="12.3210611"><ele>323.25</ele><time>2026-04-10T11:57:13.346Z</time></trkpt><trkpt lat="43.1584188" lon="12.321099"><ele>322.5</ele><time>2026-04-10T11:57:14.358Z</time></trkpt><trkpt lat="43.1585227" lon="12.3211906"><ele>321.75</ele><time>2026-04-10T11:57:15.352Z</time></trkpt><trkpt lat="43.1586079" lon="12.3213118"><ele>321.0</ele><time>2026-04-10T11:57:16.347Z</time></trkpt><trkpt lat="43.1586853" lon="12.3214448"><ele>321.0</ele><time>2026-04-10T11:57:17.342Z</time></trkpt><trkpt lat="43.1587623" lon="12.3215694"><ele>321.0</ele><time>2026-04-10T11:57:18.363Z</time></trkpt><trkpt lat="43.1588356" lon="12.3217002"><ele>321.0</ele><time>2026-04-10T11:57:19.306Z</time></trkpt><trkpt lat="43.1589008" lon="12.321838"><ele>321.0</ele><time>2026-04-10T11:57:20.343Z</time></trkpt><trkpt lat="43.1589518" lon="12.3219894"><ele>321.0</ele><time>2026-04-10T11:57:21.335Z</time></trkpt><trkpt lat="43.1589889" lon="12.3221464"><ele>321.0</ele><time>2026-04-10T11:57:22.335Z</time></trkpt><trkpt lat="43.1590162" lon="12.3223099"><ele>321.0</ele><time>2026-04-10T11:57:23.305Z</time></trkpt><trkpt lat="43.1590379" lon="12.3224736"><ele>321.0</ele><time>2026-04-10T11:57:24.33Z</time></trkpt><trkpt lat="43.1590626" lon="12.3226436"><ele>314.8</ele><time>2026-04-10T11:57:25.339Z</time></trkpt><trkpt lat="43.1590893" lon="12.3228064"><ele>308.6</ele><time>2026-04-10T11:57:26.338Z</time></trkpt><trkpt lat="43.1591082" lon="12.3229556"><ele>302.4</ele><time>2026-04-10T11:57:27.341Z</time></trkpt><trkpt lat="43.1591135" lon="12.3230934"><ele>296.2</ele><time>2026-04-10T11:57:28.347Z</time></trkpt><trkpt lat="43.1590936" lon="12.3232423"><ele>290.0</ele><time>2026-04-10T11:57:29.34Z</time></trkpt><trkpt lat="43.1590615" lon="12.3233716"><ele>288.4</ele><time>2026-04-10T11:57:30.35Z</time></trkpt><trkpt lat="43.1589946" lon="12.3235083"><ele>286.8</ele><time>2026-04-10T11:57:31.354Z</time></trkpt><trkpt lat="43.1589112" lon="12.3236322"><ele>285.2</ele><time>2026-04-10T11:57:32.335Z</time></trkpt><trkpt lat="43.1588384" lon="12.3237341"><ele>283.6</ele><time>2026-04-10T11:57:33.357Z</time></trkpt><trkpt lat="43.1587845" lon="12.3238473"><ele>282.0</ele><time>2026-04-10T11:57:34.352Z</time></trkpt><trkpt lat="43.1587592" lon="12.3239759"><ele>282.0</ele><time>2026-04-10T11:57:35.348Z</time></trkpt><trkpt lat="43.1587761" lon="12.3241168"><ele>282.0</ele><time>2026-04-10T11:57:36.328Z</time></trkpt><trkpt lat="43.1588209" lon="12.3242492"><ele>282.0</ele><time>2026-04-10T11:57:37.375Z</time></trkpt><trkpt lat="43.1588845" lon="12.3243865"><ele>282.0</ele><time>2026-04-10T11:57:38.337Z</time></trkpt><trkpt lat="43.158958" lon="12.3244998"><ele>282.0</ele><time>2026-04-10T11:57:39.332Z</time></trkpt><trkpt lat="43.1590288" lon="12.3246141"><ele>280.6666666666667</ele><time>2026-04-10T11:57:40.337Z</time></trkpt><trkpt lat="43.1590915" lon="12.3247216"><ele>279.3333333333333</ele><time>2026-04-10T11:57:41.335Z</time></trkpt><trkpt lat="43.1591603" lon="12.3248193"><ele>278.0</ele><time>2026-04-10T11:57:42.342Z</time></trkpt><trkpt lat="43.1592176" lon="12.3249121"><ele>276.66666666666663</ele><time>2026-04-10T11:57:43.331Z</time></trkpt><trkpt lat="43.1592694" lon="12.3249912"><ele>275.3333333333333</ele><time>2026-04-10T11:57:44.346Z</time></trkpt><trkpt lat="43.1593107" lon="12.3250576"><ele>274.0</ele><time>2026-04-10T11:57:45.294Z</time></trkpt><trkpt lat="43.1593826" lon="12.325086"><ele>274.0</ele><time>2026-04-10T11:57:47.344Z</time></trkpt><trkpt lat="43.1594416" lon="12.3249821"><ele>274.0</ele><time>2026-04-10T11:57:50.334Z</time></trkpt><trkpt lat="43.1594784" lon="12.3248991"><ele>274.0</ele><time>2026-04-10T11:57:51.337Z</time></trkpt><trkpt lat="43.1595095" lon="12.3248109"><ele>274.0</ele><time>2026-04-10T11:57:52.323Z</time></trkpt><trkpt lat="43.1595281" lon="12.3246882"><ele>274.0</ele><time>2026-04-10T11:57:53.336Z</time></trkpt><trkpt lat="43.1595441" lon="12.324548"><ele>274.0</ele><time>2026-04-10T11:57:54.323Z</time></trkpt><trkpt lat="43.159563" lon="12.3243892"><ele>274.0</ele><time>2026-04-10T11:57:55.325Z</time></trkpt><trkpt lat="43.1595753" lon="12.3242318"><ele>274.0</ele><time>2026-04-10T11:57:56.344Z</time></trkpt><trkpt lat="43.1595747" lon="12.3240544"><ele>274.0</ele><time>2026-04-10T11:57:57.335Z</time></trkpt><trkpt lat="43.1595717" lon="12.323872"><ele>274.0</ele><time>2026-04-10T11:57:58.337Z</time></trkpt><trkpt lat="43.1595837" lon="12.3236994"><ele>276.0</ele><time>2026-04-10T11:57:59.304Z</time></trkpt><trkpt lat="43.1595933" lon="12.3235262"><ele>278.0</ele><time>2026-04-10T11:58:00.357Z</time></trkpt><trkpt lat="43.1595958" lon="12.3233392"><ele>280.0</ele><time>2026-04-10T11:58:01.343Z</time></trkpt><trkpt lat="43.1595965" lon="12.3231382"><ele>282.0</ele><time>2026-04-10T11:58:02.341Z</time></trkpt><trkpt lat="43.1595891" lon="12.3229316"><ele>284.6666666666667</ele><time>2026-04-10T11:58:03.344Z</time></trkpt><trkpt lat="43.159578" lon="12.3227218"><ele>287.33333333333337</ele><time>2026-04-10T11:58:04.331Z</time></trkpt><trkpt lat="43.1595602" lon="12.3225161"><ele>290.0</ele><time>2026-04-10T11:58:05.338Z</time></trkpt><trkpt lat="43.1595477" lon="12.3223084"><ele>287.33333333333337</ele><time>2026-04-10T11:58:06.347Z</time></trkpt><trkpt lat="43.159538" lon="12.3221071"><ele>284.6666666666667</ele><time>2026-04-10T11:58:07.342Z</time></trkpt><trkpt lat="43.1595171" lon="12.3218964"><ele>282.0</ele><time>2026-04-10T11:58:08.333Z</time></trkpt><trkpt lat="43.1594954" lon="12.3216882"><ele>282.0</ele><time>2026-04-10T11:58:09.311Z</time></trkpt><trkpt lat="43.1594599" lon="12.3214786"><ele>282.0</ele><time>2026-04-10T11:58:10.348Z</time></trkpt><trkpt lat="43.1594204" lon="12.3212729"><ele>282.0</ele><time>2026-04-10T11:58:11.335Z</time></trkpt><trkpt lat="43.1593971" lon="12.3210762"><ele>278.6666666666667</ele><time>2026-04-10T11:58:12.331Z</time></trkpt><trkpt lat="43.1593617" lon="12.3208695"><ele>275.33333333333337</ele><time>2026-04-10T11:58:13.334Z</time></trkpt><trkpt lat="43.1593285" lon="12.3206658"><ele>272.0</ele><time>2026-04-10T11:58:14.301Z</time></trkpt><trkpt lat="43.1592929" lon="12.3204713"><ele>272.25</ele><time>2026-04-10T11:58:15.301Z</time></trkpt><trkpt lat="43.1592689" lon="12.3202871"><ele>272.5</ele><time>2026-04-10T11:58:16.348Z</time></trkpt><trkpt lat="43.1592783" lon="12.3201017"><ele>272.75</ele><time>2026-04-10T11:58:17.343Z</time></trkpt><trkpt lat="43.1593056" lon="12.3199035"><ele>273.0</ele><time>2026-04-10T11:58:18.339Z</time></trkpt><trkpt lat="43.1593547" lon="12.3197176"><ele>273.0</ele><time>2026-04-10T11:58:19.293Z</time></trkpt><trkpt lat="43.1594221" lon="12.3195368"><ele>273.0</ele><time>2026-04-10T11:58:20.342Z</time></trkpt><trkpt lat="43.1594997" lon="12.3193668"><ele>273.0</ele><time>2026-04-10T11:58:21.344Z</time></trkpt><trkpt lat="43.1595951" lon="12.3192144"><ele>273.0</ele><time>2026-04-10T11:58:22.348Z</time></trkpt><trkpt lat="43.1597021" lon="12.319063"><ele>273.0</ele><time>2026-04-10T11:58:23.352Z</time></trkpt><trkpt lat="43.1598216" lon="12.318923"><ele>273.0</ele><time>2026-04-10T11:58:24.347Z</time></trkpt><trkpt lat="43.1599443" lon="12.318791"><ele>273.0</ele><time>2026-04-10T11:58:25.327Z</time></trkpt><trkpt lat="43.1600688" lon="12.3186678"><ele>271.0</ele><time>2026-04-10T11:58:26.343Z</time></trkpt><trkpt lat="43.1601847" lon="12.3185533"><ele>269.0</ele><time>2026-04-10T11:58:27.319Z</time></trkpt><trkpt lat="43.1602984" lon="12.318449"><ele>267.0</ele><time>2026-04-10T11:58:28.356Z</time></trkpt><trkpt lat="43.1603847" lon="12.3183221"><ele>265.0</ele><time>2026-04-10T11:58:29.345Z</time></trkpt><trkpt lat="43.1604636" lon="12.3181633"><ele>264.25</ele><time>2026-04-10T11:58:30.355Z</time></trkpt><trkpt lat="43.1605191" lon="12.3179951"><ele>263.5</ele><time>2026-04-10T11:58:31.353Z</time></trkpt><trkpt lat="43.1605721" lon="12.3178386"><ele>262.75</ele><time>2026-04-10T11:58:32.353Z</time></trkpt><trkpt lat="43.16064" lon="12.3176803"><ele>262.0</ele><time>2026-04-10T11:58:33.344Z</time></trkpt><trkpt lat="43.1607155" lon="12.3175246"><ele>262.0</ele><time>2026-04-10T11:58:34.347Z</time></trkpt><trkpt lat="43.1608011" lon="12.3173786"><ele>262.0</ele><time>2026-04-10T11:58:35.336Z</time></trkpt><trkpt lat="43.1608909" lon="12.317215"><ele>262.0</ele><time>2026-04-10T11:58:36.329Z</time></trkpt><trkpt lat="43.1609814" lon="12.3170486"><ele>262.0</ele><time>2026-04-10T11:58:37.35Z</time></trkpt><trkpt lat="43.1610698" lon="12.3168949"><ele>262.0</ele><time>2026-04-10T11:58:38.325Z</time></trkpt><trkpt lat="43.1611563" lon="12.3167464"><ele>262.0</ele><time>2026-04-10T11:58:39.337Z</time></trkpt><trkpt lat="43.1612305" lon="12.3165953"><ele>262.0</ele><time>2026-04-10T11:58:40.347Z</time></trkpt><trkpt lat="43.1612844" lon="12.3164192"><ele>262.0</ele><time>2026-04-10T11:58:41.346Z</time></trkpt><trkpt lat="43.161313" lon="12.316236"><ele>262.0</ele><time>2026-04-10T11:58:42.336Z</time></trkpt><trkpt lat="43.1613375" lon="12.3160493"><ele>262.0</ele><time>2026-04-10T11:58:43.362Z</time></trkpt><trkpt lat="43.1613611" lon="12.3158513"><ele>262.0</ele><time>2026-04-10T11:58:44.379Z</time></trkpt><trkpt lat="43.1613766" lon="12.3156465"><ele>262.0</ele><time>2026-04-10T11:58:45.327Z</time></trkpt><trkpt lat="43.161393" lon="12.315437"><ele>262.3333333333333</ele><time>2026-04-10T11:58:46.347Z</time></trkpt><trkpt lat="43.1614147" lon="12.3152223"><ele>262.6666666666667</ele><time>2026-04-10T11:58:47.368Z</time></trkpt><trkpt lat="43.1614406" lon="12.3150076"><ele>263.0</ele><time>2026-04-10T11:58:48.32Z</time></trkpt><trkpt lat="43.161481" lon="12.3147921"><ele>263.0</ele><time>2026-04-10T11:58:49.348Z</time></trkpt><trkpt lat="43.1615155" lon="12.3145859"><ele>263.0</ele><time>2026-04-10T11:58:50.356Z</time></trkpt><trkpt lat="43.1615471" lon="12.3143855"><ele>263.0</ele><time>2026-04-10T11:58:51.335Z</time></trkpt><trkpt lat="43.1615763" lon="12.3141966"><ele>263.0</ele><time>2026-04-10T11:58:52.295Z</time></trkpt><trkpt lat="43.1615904" lon="12.3140001"><ele>263.33333333333337</ele><time>2026-04-10T11:58:53.351Z</time></trkpt><trkpt lat="43.1615918" lon="12.3137966"><ele>263.6666666666667</ele><time>2026-04-10T11:58:54.347Z</time></trkpt><trkpt lat="43.1615768" lon="12.3135859"><ele>264.0</ele><time>2026-04-10T11:58:55.356Z</time></trkpt><trkpt lat="43.1615538" lon="12.3133819"><ele>262.0</ele><time>2026-04-10T11:58:56.36Z</time></trkpt><trkpt lat="43.1615264" lon="12.3131809"><ele>260.0</ele><time>2026-04-10T11:58:57.357Z</time></trkpt><trkpt lat="43.1614927" lon="12.3129759"><ele>258.0</ele><time>2026-04-10T11:58:58.344Z</time></trkpt><trkpt lat="43.1614479" lon="12.3127622"><ele>258.0</ele><time>2026-04-10T11:58:59.354Z</time></trkpt><trkpt lat="43.1613975" lon="12.3125449"><ele>258.0</ele><time>2026-04-10T11:59:00.352Z</time></trkpt><trkpt lat="43.1613478" lon="12.3123333"><ele>258.0</ele><time>2026-04-10T11:59:01.351Z</time></trkpt><trkpt lat="43.1613114" lon="12.3121278"><ele>257.75</ele><time>2026-04-10T11:59:02.285Z</time></trkpt><trkpt lat="43.161271" lon="12.3119263"><ele>257.5</ele><time>2026-04-10T11:59:03.353Z</time></trkpt><trkpt lat="43.161229" lon="12.311733"><ele>257.25</ele><time>2026-04-10T11:59:04.342Z</time></trkpt><trkpt lat="43.1611876" lon="12.3115524"><ele>257.0</ele><time>2026-04-10T11:59:05.352Z</time></trkpt><trkpt lat="43.1611368" lon="12.3113724"><ele>257.5</ele><time>2026-04-10T11:59:06.344Z</time></trkpt><trkpt lat="43.1610984" lon="12.3111909"><ele>258.0</ele><time>2026-04-10T11:59:07.355Z</time></trkpt><trkpt lat="43.1610709" lon="12.3110165"><ele>258.5</ele><time>2026-04-10T11:59:08.351Z</time></trkpt><trkpt lat="43.1610644" lon="12.3108423"><ele>259.0</ele><time>2026-04-10T11:59:09.348Z</time></trkpt><trkpt lat="43.161065" lon="12.310682"><ele>259.0</ele><time>2026-04-10T11:59:10.35Z</time></trkpt><trkpt lat="43.1610622" lon="12.3105475"><ele>259.0</ele><time>2026-04-10T11:59:11.33Z</time></trkpt><trkpt lat="43.1610584" lon="12.3104264"><ele>259.0</ele><time>2026-04-10T11:59:12.315Z</time></trkpt><trkpt lat="43.1610663" lon="12.3103188"><ele>259.0</ele><time>2026-04-10T11:59:13.337Z</time></trkpt><trkpt lat="43.1610954" lon="12.3102351"><ele>259.0</ele><time>2026-04-10T11:59:14.336Z</time></trkpt><trkpt lat="43.1612101" lon="12.3101299"><ele>259.0</ele><time>2026-04-10T11:59:16.341Z</time></trkpt><trkpt lat="43.1612867" lon="12.3101167"><ele>259.0</ele><time>2026-04-10T11:59:17.292Z</time></trkpt><trkpt lat="43.1613804" lon="12.3101174"><ele>259.0</ele><time>2026-04-10T11:59:18.31Z</time></trkpt><trkpt lat="43.1614832" lon="12.3100966"><ele>259.0</ele><time>2026-04-10T11:59:19.315Z</time></trkpt><trkpt lat="43.1615891" lon="12.3100645"><ele>259.0</ele><time>2026-04-10T11:59:20.338Z</time></trkpt><trkpt lat="43.1617039" lon="12.3100124"><ele>259.0</ele><time>2026-04-10T11:59:21.36Z</time></trkpt><trkpt lat="43.1618066" lon="12.3099359"><ele>259.0</ele><time>2026-04-10T11:59:22.336Z</time></trkpt><trkpt lat="43.1619057" lon="12.3098314"><ele>259.0</ele><time>2026-04-10T11:59:23.335Z</time></trkpt><trkpt lat="43.1619848" lon="12.3097019"><ele>259.0</ele><time>2026-04-10T11:59:24.328Z</time></trkpt><trkpt lat="43.1620525" lon="12.309547"><ele>259.0</ele><time>2026-04-10T11:59:25.327Z</time></trkpt><trkpt lat="43.162098" lon="12.3093695"><ele>259.0</ele><time>2026-04-10T11:59:26.315Z</time></trkpt><trkpt lat="43.1621324" lon="12.3091762"><ele>259.0</ele><time>2026-04-10T11:59:27.337Z</time></trkpt><trkpt lat="43.1621564" lon="12.3089821"><ele>259.0</ele><time>2026-04-10T11:59:28.332Z</time></trkpt><trkpt lat="43.1621865" lon="12.3087783"><ele>259.25</ele><time>2026-04-10T11:59:29.344Z</time></trkpt><trkpt lat="43.1622153" lon="12.3085759"><ele>259.5</ele><time>2026-04-10T11:59:30.339Z</time></trkpt><trkpt lat="43.1622427" lon="12.3083775"><ele>259.75</ele><time>2026-04-10T11:59:31.361Z</time></trkpt><trkpt lat="43.1622639" lon="12.3081782"><ele>260.0</ele><time>2026-04-10T11:59:32.292Z</time></trkpt><trkpt lat="43.1622698" lon="12.3079834"><ele>259.25</ele><time>2026-04-10T11:59:33.348Z</time></trkpt><trkpt lat="43.1622745" lon="12.3077824"><ele>258.5</ele><time>2026-04-10T11:59:34.345Z</time></trkpt><trkpt lat="43.1622674" lon="12.3075783"><ele>257.75</ele><time>2026-04-10T11:59:35.333Z</time></trkpt><trkpt lat="43.1622507" lon="12.3073835"><ele>257.0</ele><time>2026-04-10T11:59:36.358Z</time></trkpt><trkpt lat="43.1622169" lon="12.3071824"><ele>257.0</ele><time>2026-04-10T11:59:37.329Z</time></trkpt><trkpt lat="43.1621891" lon="12.3069947"><ele>257.0</ele><time>2026-04-10T11:59:38.35Z</time></trkpt><trkpt lat="43.1621567" lon="12.3068027"><ele>257.0</ele><time>2026-04-10T11:59:39.355Z</time></trkpt><trkpt lat="43.1621204" lon="12.3066127"><ele>257.0</ele><time>2026-04-10T11:59:40.355Z</time></trkpt><trkpt lat="43.1620824" lon="12.3064148"><ele>256.6666666666667</ele><time>2026-04-10T11:59:41.361Z</time></trkpt><trkpt lat="43.1620459" lon="12.3062092"><ele>256.3333333333333</ele><time>2026-04-10T11:59:42.316Z</time></trkpt><trkpt lat="43.1620198" lon="12.3059947"><ele>256.0</ele><time>2026-04-10T11:59:43.351Z</time></trkpt><trkpt lat="43.1619935" lon="12.3057709"><ele>257.66666666666663</ele><time>2026-04-10T11:59:44.337Z</time></trkpt><trkpt lat="43.1619625" lon="12.3055429"><ele>259.3333333333333</ele><time>2026-04-10T11:59:45.321Z</time></trkpt><trkpt lat="43.1619304" lon="12.3053114"><ele>261.0</ele><time>2026-04-10T11:59:46.36Z</time></trkpt><trkpt lat="43.1619048" lon="12.3050842"><ele>261.0</ele><time>2026-04-10T11:59:47.347Z</time></trkpt><trkpt lat="43.1618724" lon="12.304851"><ele>261.0</ele><time>2026-04-10T11:59:48.336Z</time></trkpt><trkpt lat="43.1618372" lon="12.3046175"><ele>261.0</ele><time>2026-04-10T11:59:49.346Z</time></trkpt><trkpt lat="43.1618091" lon="12.3043952"><ele>263.3333333333333</ele><time>2026-04-10T11:59:50.323Z</time></trkpt><trkpt lat="43.1617778" lon="12.3041635"><ele>265.66666666666663</ele><time>2026-04-10T11:59:51.334Z</time></trkpt><trkpt lat="43.1617534" lon="12.3039408"><ele>268.0</ele><time>2026-04-10T11:59:52.276Z</time></trkpt><trkpt lat="43.1617292" lon="12.3037191"><ele>269.3333333333333</ele><time>2026-04-10T11:59:53.363Z</time></trkpt><trkpt lat="43.1616994" lon="12.3035025"><ele>270.6666666666667</ele><time>2026-04-10T11:59:54.361Z</time></trkpt><trkpt lat="43.1616788" lon="12.3032847"><ele>272.0</ele><time>2026-04-10T11:59:55.329Z</time></trkpt><trkpt lat="43.1616561" lon="12.3030711"><ele>272.33333333333337</ele><time>2026-04-10T11:59:56.354Z</time></trkpt><trkpt lat="43.1616404" lon="12.302858"><ele>272.6666666666667</ele><time>2026-04-10T11:59:57.351Z</time></trkpt><trkpt lat="43.1616316" lon="12.3026524"><ele>273.0</ele><time>2026-04-10T11:59:58.346Z</time></trkpt><trkpt lat="43.1616308" lon="12.3024469"><ele>273.0</ele><time>2026-04-10T11:59:59.382Z</time></trkpt><trkpt lat="43.1616323" lon="12.3022526"><ele>273.0</ele><time>2026-04-10T12:00:00.366Z</time></trkpt><trkpt lat="43.1616389" lon="12.3020455"><ele>273.0</ele><time>2026-04-10T12:00:01.349Z</time></trkpt><trkpt lat="43.1616536" lon="12.3018446"><ele>273.0</ele><time>2026-04-10T12:00:02.351Z</time></trkpt><trkpt lat="43.1616706" lon="12.3016439"><ele>272.0</ele><time>2026-04-10T12:00:03.342Z</time></trkpt><trkpt lat="43.1616782" lon="12.301462"><ele>271.0</ele><time>2026-04-10T12:00:04.353Z</time></trkpt><trkpt lat="43.1616892" lon="12.3012915"><ele>270.0</ele><time>2026-04-10T12:00:05.343Z</time></trkpt><trkpt lat="43.1617125" lon="12.3011446"><ele>269.0</ele><time>2026-04-10T12:00:06.344Z</time></trkpt><trkpt lat="43.1617494" lon="12.3009848"><ele>268.0</ele><time>2026-04-10T12:00:07.343Z</time></trkpt><trkpt lat="43.1617927" lon="12.3008206"><ele>267.0</ele><time>2026-04-10T12:00:08.354Z</time></trkpt><trkpt lat="43.1618645" lon="12.3006491"><ele>266.0</ele><time>2026-04-10T12:00:09.331Z</time></trkpt><trkpt lat="43.1619588" lon="12.3004882"><ele>265.0</ele><time>2026-04-10T12:00:10.337Z</time></trkpt><trkpt lat="43.1620569" lon="12.3003251"><ele>263.66666666666663</ele><time>2026-04-10T12:00:11.348Z</time></trkpt><trkpt lat="43.1621583" lon="12.3001592"><ele>262.3333333333333</ele><time>2026-04-10T12:00:12.344Z</time></trkpt><trkpt lat="43.1622589" lon="12.2999853"><ele>261.0</ele><time>2026-04-10T12:00:13.34Z</time></trkpt><trkpt lat="43.1623624" lon="12.2998063"><ele>261.3333333333333</ele><time>2026-04-10T12:00:14.349Z</time></trkpt><trkpt lat="43.1624682" lon="12.2996294"><ele>261.66666666666663</ele><time>2026-04-10T12:00:15.338Z</time></trkpt><trkpt lat="43.1625755" lon="12.299461"><ele>262.0</ele><time>2026-04-10T12:00:16.358Z</time></trkpt><trkpt lat="43.1626874" lon="12.2992958"><ele>262.0</ele><time>2026-04-10T12:00:17.354Z</time></trkpt><trkpt lat="43.1627951" lon="12.299131"><ele>262.0</ele><time>2026-04-10T12:00:18.374Z</time></trkpt><trkpt lat="43.1629105" lon="12.2989701"><ele>262.0</ele><time>2026-04-10T12:00:19.346Z</time></trkpt><trkpt lat="43.1630242" lon="12.298828"><ele>261.66666666666663</ele><time>2026-04-10T12:00:20.344Z</time></trkpt><trkpt lat="43.1631474" lon="12.2986876"><ele>261.3333333333333</ele><time>2026-04-10T12:00:21.34Z</time></trkpt><trkpt lat="43.1632769" lon="12.2985535"><ele>261.0</ele><time>2026-04-10T12:00:22.348Z</time></trkpt><trkpt lat="43.1634004" lon="12.2984092"><ele>260.6666666666667</ele><time>2026-04-10T12:00:23.363Z</time></trkpt><trkpt lat="43.1635218" lon="12.2982668"><ele>260.33333333333337</ele><time>2026-04-10T12:00:24.359Z</time></trkpt><trkpt lat="43.1636401" lon="12.2981248"><ele>260.0</ele><time>2026-04-10T12:00:25.336Z</time></trkpt><trkpt lat="43.1637486" lon="12.2979729"><ele>260.0</ele><time>2026-04-10T12:00:26.349Z</time></trkpt><trkpt lat="43.1638684" lon="12.2978166"><ele>260.0</ele><time>2026-04-10T12:00:27.354Z</time></trkpt><trkpt lat="43.1639765" lon="12.2976682"><ele>260.0</ele><time>2026-04-10T12:00:28.346Z</time></trkpt><trkpt lat="43.1640756" lon="12.2975289"><ele>260.0</ele><time>2026-04-10T12:00:29.354Z</time></trkpt><trkpt lat="43.164167" lon="12.297405"><ele>260.0</ele><time>2026-04-10T12:00:30.276Z</time></trkpt><trkpt lat="43.1642657" lon="12.2972833"><ele>260.0</ele><time>2026-04-10T12:00:31.309Z</time></trkpt><trkpt lat="43.1643626" lon="12.2971449"><ele>260.0</ele><time>2026-04-10T12:00:32.344Z</time></trkpt><trkpt lat="43.1644591" lon="12.2970019"><ele>260.0</ele><time>2026-04-10T12:00:33.35Z</time></trkpt><trkpt lat="43.1645495" lon="12.296851"><ele>260.0</ele><time>2026-04-10T12:00:34.349Z</time></trkpt><trkpt lat="43.1646435" lon="12.2966859"><ele>260.0</ele><time>2026-04-10T12:00:35.366Z</time></trkpt><trkpt lat="43.1647356" lon="12.2965151"><ele>259.6666666666667</ele><time>2026-04-10T12:00:36.323Z</time></trkpt><trkpt lat="43.164818" lon="12.2963468"><ele>259.3333333333333</ele><time>2026-04-10T12:00:37.343Z</time></trkpt><trkpt lat="43.1649013" lon="12.296176"><ele>259.0</ele><time>2026-04-10T12:00:38.345Z</time></trkpt><trkpt lat="43.1649846" lon="12.2959956"><ele>259.0</ele><time>2026-04-10T12:00:39.341Z</time></trkpt><trkpt lat="43.16506" lon="12.2958329"><ele>259.0</ele><time>2026-04-10T12:00:40.3Z</time></trkpt><trkpt lat="43.1651329" lon="12.2956752"><ele>259.0</ele><time>2026-04-10T12:00:41.352Z</time></trkpt><trkpt lat="43.165206" lon="12.2955378"><ele>259.0</ele><time>2026-04-10T12:00:42.347Z</time></trkpt><trkpt lat="43.1652753" lon="12.2954049"><ele>258.0</ele><time>2026-04-10T12:00:43.313Z</time></trkpt><trkpt lat="43.1653402" lon="12.2952728"><ele>257.0</ele><time>2026-04-10T12:00:44.344Z</time></trkpt><trkpt lat="43.1653973" lon="12.2951349"><ele>256.0</ele><time>2026-04-10T12:00:45.346Z</time></trkpt><trkpt lat="43.1654582" lon="12.2950033"><ele>255.0</ele><time>2026-04-10T12:00:46.36Z</time></trkpt><trkpt lat="43.1655148" lon="12.2948706"><ele>254.8</ele><time>2026-04-10T12:00:47.361Z</time></trkpt><trkpt lat="43.1655673" lon="12.2947471"><ele>254.6</ele><time>2026-04-10T12:00:48.315Z</time></trkpt><trkpt lat="43.165609" lon="12.2945998"><ele>254.39999999999998</ele><time>2026-04-10T12:00:49.334Z</time></trkpt><trkpt lat="43.1656419" lon="12.2944659"><ele>254.2</ele><time>2026-04-10T12:00:50.354Z</time></trkpt><trkpt lat="43.1656638" lon="12.2943424"><ele>254.0</ele><time>2026-04-10T12:00:51.364Z</time></trkpt><trkpt lat="43.1656855" lon="12.2942359"><ele>254.2</ele><time>2026-04-10T12:00:52.346Z</time></trkpt><trkpt lat="43.1657044" lon="12.2941397"><ele>254.39999999999998</ele><time>2026-04-10T12:00:53.346Z</time></trkpt><trkpt lat="43.165722" lon="12.2940564"><ele>254.6</ele><time>2026-04-10T12:00:54.337Z</time></trkpt><trkpt lat="43.1657798" lon="12.2939374"><ele>254.8</ele><time>2026-04-10T12:00:56.348Z</time></trkpt><trkpt lat="43.1659037" lon="12.2938768"><ele>255.0</ele><time>2026-04-10T12:00:58.353Z</time></trkpt><trkpt lat="43.1659828" lon="12.293849"><ele>255.0</ele><time>2026-04-10T12:00:59.344Z</time></trkpt><trkpt lat="43.1660734" lon="12.2938206"><ele>255.0</ele><time>2026-04-10T12:01:00.367Z</time></trkpt><trkpt lat="43.1661588" lon="12.2938014"><ele>255.0</ele><time>2026-04-10T12:01:01.351Z</time></trkpt><trkpt lat="43.1662281" lon="12.293785"><ele>255.0</ele><time>2026-04-10T12:01:02.352Z</time></trkpt><trkpt lat="43.1663358" lon="12.2937978"><ele>255.0</ele><time>2026-04-10T12:01:04.35Z</time></trkpt><trkpt lat="43.1663949" lon="12.2939521"><ele>255.0</ele><time>2026-04-10T12:01:06.368Z</time></trkpt><trkpt lat="43.166405" lon="12.2940844"><ele>255.0</ele><time>2026-04-10T12:01:07.338Z</time></trkpt><trkpt lat="43.1664181" lon="12.294212"><ele>255.0</ele><time>2026-04-10T12:01:08.345Z</time></trkpt><trkpt lat="43.1664433" lon="12.2943488"><ele>255.0</ele><time>2026-04-10T12:01:09.353Z</time></trkpt><trkpt lat="43.1664662" lon="12.2945099"><ele>255.0</ele><time>2026-04-10T12:01:10.352Z</time></trkpt><trkpt lat="43.1664909" lon="12.2946679"><ele>255.16666666666666</ele><time>2026-04-10T12:01:11.329Z</time></trkpt><trkpt lat="43.1665228" lon="12.2948288"><ele>255.33333333333331</ele><time>2026-04-10T12:01:12.334Z</time></trkpt><trkpt lat="43.1665494" lon="12.2949582"><ele>255.5</ele><time>2026-04-10T12:01:13.359Z</time></trkpt><trkpt lat="43.1665678" lon="12.2950731"><ele>255.66666666666666</ele><time>2026-04-10T12:01:14.304Z</time></trkpt><trkpt lat="43.1665933" lon="12.2951654"><ele>255.83333333333331</ele><time>2026-04-10T12:01:15.362Z</time></trkpt><trkpt lat="43.1666469" lon="12.2952228"><ele>256.0</ele><time>2026-04-10T12:01:16.342Z</time></trkpt><trkpt lat="43.1667151" lon="12.295254"><ele>256.2</ele><time>2026-04-10T12:01:17.33Z</time></trkpt><trkpt lat="43.1667922" lon="12.2952737"><ele>256.40000000000003</ele><time>2026-04-10T12:01:18.328Z</time></trkpt><trkpt lat="43.1668912" lon="12.2953429"><ele>256.6</ele><time>2026-04-10T12:01:20.36Z</time></trkpt><trkpt lat="43.1669312" lon="12.2954432"><ele>256.8</ele><time>2026-04-10T12:01:21.351Z</time></trkpt><trkpt lat="43.1669705" lon="12.2955703"><ele>257.0</ele><time>2026-04-10T12:01:22.351Z</time></trkpt><trkpt lat="43.1670017" lon="12.2957308"><ele>259.0</ele><time>2026-04-10T12:01:23.342Z</time></trkpt><trkpt lat="43.1670235" lon="12.2958995"><ele>261.0</ele><time>2026-04-10T12:01:24.341Z</time></trkpt><trkpt lat="43.1670435" lon="12.2960862"><ele>263.0</ele><time>2026-04-10T12:01:25.305Z</time></trkpt><trkpt lat="43.1670548" lon="12.2962578"><ele>265.0</ele><time>2026-04-10T12:01:26.33Z</time></trkpt><trkpt lat="43.1670599" lon="12.296383"><ele>266.3333333333333</ele><time>2026-04-10T12:01:27.338Z</time></trkpt><trkpt lat="43.167075" lon="12.2964933"><ele>267.66666666666663</ele><time>2026-04-10T12:01:28.324Z</time></trkpt><trkpt lat="43.1670873" lon="12.2965976"><ele>269.0</ele><time>2026-04-10T12:01:29.337Z</time></trkpt><trkpt lat="43.1671133" lon="12.296703"><ele>270.3333333333333</ele><time>2026-04-10T12:01:30.345Z</time></trkpt><trkpt lat="43.1671416" lon="12.296801"><ele>271.6666666666667</ele><time>2026-04-10T12:01:31.337Z</time></trkpt><trkpt lat="43.1672122" lon="12.2969358"><ele>273.0</ele><time>2026-04-10T12:01:33.343Z</time></trkpt><trkpt lat="43.1672343" lon="12.2970871"><ele>273.0</ele><time>2026-04-10T12:01:35.278Z</time></trkpt><trkpt lat="43.1671683" lon="12.2972153"><ele>273.0</ele><time>2026-04-10T12:01:37.338Z</time></trkpt><trkpt lat="43.1671092" lon="12.2972812"><ele>273.0</ele><time>2026-04-10T12:01:38.346Z</time></trkpt><trkpt lat="43.1670368" lon="12.297348"><ele>273.0</ele><time>2026-04-10T12:01:39.347Z</time></trkpt><trkpt lat="43.1669595" lon="12.2974103"><ele>273.0</ele><time>2026-04-10T12:01:40.318Z</time></trkpt><trkpt lat="43.1668733" lon="12.2974835"><ele>273.8</ele><time>2026-04-10T12:01:41.329Z</time></trkpt><trkpt lat="43.1667878" lon="12.2975542"><ele>274.6</ele><time>2026-04-10T12:01:42.312Z</time></trkpt><trkpt lat="43.166704" lon="12.2976288"><ele>275.4</ele><time>2026-04-10T12:01:43.339Z</time></trkpt><trkpt lat="43.1666373" lon="12.2976907"><ele>276.2</ele><time>2026-04-10T12:01:44.331Z</time></trkpt><trkpt lat="43.1665733" lon="12.297751"><ele>277.0</ele><time>2026-04-10T12:01:45.337Z</time></trkpt><trkpt lat="43.1664857" lon="12.2978386"><ele>277.0</ele><time>2026-04-10T12:01:47.348Z</time></trkpt><trkpt lat="43.1664293" lon="12.2978931"><ele>277.0</ele><time>2026-04-10T12:01:49.355Z</time></trkpt><trkpt lat="43.1663604" lon="12.2979179"><ele>277.0</ele><time>2026-04-10T12:02:02.308Z</time></trkpt><trkpt lat="43.1662957" lon="12.2979299"><ele>277.0</ele><time>2026-04-10T12:02:37.347Z</time></trkpt><trkpt lat="43.1664191" lon="12.2978012"><ele>277.0</ele><time>2026-04-10T12:03:39.309Z</time></trkpt></trkseg></trk></gpx>